[[{"header":{"parameterUnit":"m.s-1","parameterCategory":1,"la1":30.6,"la2":28.766,"lo1":-90.7593,"lo2":-88.6598,"dy":0.0162,"dx":0.0183,"nx":116,"ny":114,"refTime":"2024-05-04T12:00:00:Z","depth":0,"parameterNumber":2,"parameterNumberName":"U-component_of_WINDS"},"data":[0.0,0.0,0.0,0.0,0.0,0.0,0.0,0.0,0.0,0.0,0.0,0.0,0.0,0.0,0.0,0.0,0.0,0.0,0.0,0.0,0.0,0.0,0.0,0.0,0.0,0.0,0.0,0.0,0.0,0.0,0.0,0.0,0.0,0.0,0.0,0.0,0.0,0.0,0.0,0.0,0.0,0.0,0.0,0.0,0.0,0.0,0.0,0.0,0.0,0.0,0.0,0.0,0.0,0.0,0.0,0.0,0.0,0.0,0.0,0.0,0.0,0.0,0.0,0.0,0.0,0.0,0.0,0.0,0.0,0.0,0.0,0.0,0.0,0.0,0.0,0.0,0.0,0.0,0.0,0.0,0.0,0.0,0.0,0.0,0.0,0.0,0.0,0.0,0.0,0.0,0.0,0.0,0.0,0.0,0.0,0.0,0.0,0.0,0.0,0.0,0.0,0.0,0.0,0.0,0.0,0.0,0.0,0.0,0.0,0.0,0.0,0.0,0.0,0.0,0.0,0.0,0.0,0.0,0.0,0.0,0.0,0.0,0.0,0.0,0.0,0.0,0.0,0.0,0.0,0.0,0.0,0.0,0.0,0.0,0.0,0.0,0.0,0.0,0.0,0.0,0.0,0.0,0.0,0.0,0.0,0.0,0.0,0.0,0.0,0.0,0.0,0.0,0.0,0.0,0.0,0.0,0.0,0.0,0.0,0.0,0.0,0.0,0.0,0.0,0.0,0.0,0.0,0.0,0.0,0.0,0.0,0.0,0.0,0.0,0.0,0.0,0.0,0.0,0.0,0.0,0.0,0.0,0.0,0.0,0.0,0.0,0.0,0.0,0.0,0.0,0.0,0.0,0.0,0.0,0.0,0.0,0.0,0.0,0.0,0.0,0.0,0.0,0.0,0.0,0.0,0.0,0.0,0.0,0.0,0.0,0.0,0.0,0.0,0.0,0.0,0.0,0.0,0.0,0.0,0.0,0.0,0.0,0.0,0.0,0.0,0.0,0.0,0.0,0.0,0.0,0.0,0.0,0.0,0.0,0.0,0.0,0.0,0.0,0.0,0.0,0.0,0.0,0.0,0.0,0.0,0.0,0.0,0.0,0.0,0.0,0.0,0.0,0.0,0.0,0.0,0.0,0.0,0.0,0.0,0.0,0.0,0.0,0.0,0.0,0.0,0.0,0.0,0.0,0.0,0.0,0.0,0.0,0.0,0.0,0.0,0.0,0.0,0.0,0.0,0.0,0.0,0.0,0.0,0.0,0.0,0.0,0.0,0.0,0.0,0.0,0.0,0.0,0.0,0.0,0.0,0.0,0.0,0.0,0.0,0.0,0.0,0.0,0.0,0.0,0.0,0.0,0.0,0.0,0.0,0.0,0.0,0.0,0.0,0.0,0.0,0.0,0.0,0.0,0.0,0.0,0.0,0.0,0.0,0.0,0.0,0.0,0.0,0.0,0.0,0.0,0.0,0.0,0.0,0.0,0.0,0.0,0.0,0.0,0.0,0.0,0.0,0.0,0.0,0.0,0.0,0.0,0.0,0.0,0.0,0.0,0.0,0.0,0.0,0.0,0.0,0.0,0.0,0.0,0.0,0.0,0.0,0.0,0.0,0.0,0.0,0.0,0.0,0.0,0.0,0.0,0.0,0.0,0.0,0.0,0.0,0.0,0.0,0.0,0.0,0.0,0.0,0.0,0.0,0.0,0.0,0.0,0.0,0.0,0.0,0.0,0.0,0.0,0.0,0.0,0.0,0.0,0.0,0.0,0.0,0.0,0.0,0.0,0.0,0.0,0.0,0.0,0.0,0.0,0.0,0.0,0.0,0.0,0.0,0.0,0.0,0.0,0.0,0.0,0.0,0.0,0.0,0.0,0.0,0.0,0.0,0.0,0.0,0.0,0.0,0.0,0.0,0.0,0.0,0.0,0.0,0.0,0.0,0.0,0.0,0.0,0.0,0.0,0.0,0.0,0.0,0.0,0.0,0.0,0.0,0.0,0.0,0.0,0.0,0.0,0.0,0.0,0.0,0.0,0.0,0.0,0.0,0.0,0.0,0.0,0.0,0.0,0.0,0.0,0.0,0.0,0.0,0.0,0.0,0.0,0.0,0.0,0.0,0.0,0.0,0.0,0.0,0.0,0.0,0.0,0.0,0.0,0.0,0.0,0.0,0.0,0.0,0.0,0.0,0.0,0.0,0.0,0.0,0.0,0.0,0.0,0.0,0.0,0.0,0.0,0.0,0.0,0.0,0.0,0.0,0.0,0.0,0.0,0.0,0.0,0.0,0.0,0.0,0.0,0.0,0.0,0.0,0.0,0.0,0.0,0.0,0.0,0.0,0.0,0.0,0.0,0.0,0.0,0.0,0.0,0.0,0.0,0.0,0.0,0.0,0.0,0.0,0.0,0.0,0.0,0.0,0.0,0.0,0.0,0.0,0.0,0.0,0.0,0.0,0.0,0.0,0.0,0.0,0.0,0.0,0.0,0.0,0.0,0.0,0.0,0.0,0.0,0.0,0.0,0.0,0.0,0.0,0.0,0.0,0.0,0.0,0.0,0.0,0.0,0.0,0.0,0.0,0.0,0.0,0.0,0.0,0.0,0.0,0.0,0.0,0.0,0.0,0.0,0.0,0.0,0.0,0.0,0.0,0.0,0.0,0.0,0.0,0.0,0.0,0.0,0.0,0.0,0.0,0.0,0.0,0.0,0.0,0.0,0.0,0.0,0.0,0.0,0.0,0.0,0.0,0.0,0.0,0.0,0.0,0.0,0.0,0.0,0.0,0.0,0.0,0.0,0.0,0.0,0.0,0.0,0.0,0.0,0.0,0.0,0.0,0.0,0.0,0.0,0.0,0.0,0.0,0.0,0.0,0.0,0.0,0.0,0.0,0.0,0.0,0.0,0.0,0.0,0.0,0.0,0.0,0.0,0.0,0.0,0.0,0.0,0.0,0.0,0.0,0.0,0.0,0.0,0.0,0.0,0.0,0.0,0.0,0.0,0.0,0.0,0.0,0.0,0.0,0.0,0.0,0.0,0.0,0.0,0.0,0.0,0.0,0.0,0.0,0.0,0.0,0.0,0.0,0.0,0.0,0.0,0.0,0.0,0.0,0.0,0.0,0.0,0.0,0.0,0.0,0.0,0.0,0.0,0.0,0.0,0.0,0.0,0.0,0.0,0.0,0.0,0.0,0.0,0.0,0.0,0.0,0.0,0.0,0.0,0.0,0.0,0.0,0.0,0.0,0.0,0.0,0.0,0.0,0.0,0.0,0.0,0.0,0.0,0.0,0.0,0.0,0.0,0.0,0.0,0.0,0.0,0.0,0.0,0.0,0.0,0.0,0.0,0.0,0.0,0.0,0.0,0.0,0.0,0.0,0.0,0.0,0.0,0.0,0.0,0.0,0.0,0.0,0.0,0.0,0.0,0.0,0.0,0.0,0.0,0.0,0.0,0.0,0.0,0.0,0.0,0.0,0.0,0.0,0.0,0.0,0.0,0.0,0.0,0.0,0.0,0.0,0.0,0.0,0.0,0.0,0.0,0.0,0.0,0.0,0.0,0.0,0.0,0.0,0.0,0.0,0.0,0.0,0.0,0.0,0.0,0.0,0.0,0.0,0.0,0.0,0.0,0.0,0.0,0.0,0.0,0.0,0.0,0.0,0.0,0.0,0.0,0.0,0.0,0.0,0.0,0.0,0.0,0.0,0.0,0.0,0.0,0.0,0.0,0.0,0.0,0.0,0.0,0.0,0.0,0.0,0.0,0.0,0.0,0.0,0.0,0.0,0.0,0.0,0.0,0.0,0.0,0.0,0.0,0.0,0.0,0.0,0.0,0.0,0.0,0.0,0.0,0.0,0.0,0.0,0.0,0.0,0.0,0.0,0.0,0.0,0.0,0.0,0.0,0.0,0.0,0.0,0.0,0.0,0.0,0.0,0.0,0.0,0.0,0.0,0.0,0.0,0.0,0.0,0.0,0.0,0.0,0.0,0.0,0.0,0.0,0.0,0.0,0.0,0.0,0.0,0.0,0.0,0.0,0.0,0.0,0.0,0.0,0.0,0.0,0.0,0.0,0.0,0.0,0.0,0.0,0.0,0.0,0.0,0.0,0.0,0.0,0.0,0.0,0.0,0.0,0.0,0.0,0.0,0.0,0.0,0.0,0.0,0.0,0.0,0.0,0.0,0.0,0.0,0.0,0.0,0.0,0.0,0.0,0.0,0.0,0.0,0.0,0.0,0.0,0.0,0.0,0.0,0.0,0.0,0.0,0.0,0.0,0.0,0.0,0.0,0.0,0.0,0.0,0.0,0.0,0.0,0.0,0.0,0.0,0.0,0.0,0.0,0.0,0.0,0.0,0.0,0.0,0.0,0.0,0.0,0.0,0.0,0.0,0.0,0.0,0.0,0.0,0.0,0.0,0.0,0.0,0.0,0.0,0.0,0.0,0.0,0.0,0.0,0.0,0.0,0.0,0.0,0.0,0.0,0.0,0.0,0.0,0.0,0.0,0.0,0.0,0.0,0.0,0.0,0.0,0.0,0.0,0.0,0.0,0.0,0.0,0.0,0.0,0.0,0.0,0.0,0.0,0.0,0.0,0.0,0.0,0.0,0.0,0.0,0.0,0.0,0.0,0.0,0.0,0.0,0.0,0.0,0.0,0.0,0.0,0.0,0.0,0.0,0.0,0.0,0.0,0.0,0.0,0.0,0.0,0.0,0.0,0.0,0.0,0.0,0.0,0.0,0.0,0.0,0.0,0.0,0.0,0.0,0.0,0.0,0.0,0.0,0.0,0.0,0.0,0.0,0.0,0.0,0.0,0.0,0.0,0.0,0.0,0.0,0.0,0.0,0.0,0.0,0.0,0.0,0.0,0.0,0.0,0.0,0.0,0.0,0.0,0.0,0.0,0.0,0.0,0.0,0.0,0.0,0.0,0.0,0.0,0.0,0.0,0.0,0.0,0.0,0.0,0.0,0.0,0.0,0.0,0.0,0.0,0.0,0.0,0.0,0.0,0.0,0.0,0.0,0.0,0.0,0.0,0.0,0.0,0.0,0.0,0.0,0.0,0.0,0.0,0.0,0.0,0.0,0.0,0.0,0.0,0.0,0.0,0.0,0.0,0.0,0.0,0.0,0.0,0.0,0.0,0.0,0.0,0.0,0.0,0.0,0.0,0.0,0.0,0.0,0.0,0.0,0.0,0.0,0.0,0.0,0.0,0.0,0.0,0.0,0.0,0.0,0.0,0.0,0.0,0.0,0.0,0.0,0.0,0.0,0.0,0.0,0.0,0.0,0.0,0.0,0.0,0.0,0.0,0.0,0.0,0.0,0.0,0.0,0.0,0.0,0.0,0.0,0.0,0.0,0.0,0.0,0.0,0.0,0.0,0.0,0.0,0.0,0.0,0.0,0.0,0.0,0.0,0.0,0.0,0.0,0.0,0.0,0.0,0.0,0.0,0.0,0.0,0.0,0.0,0.0,0.0,0.0,0.0,0.0,0.0,0.0,0.0,0.0,0.0,0.0,0.0,0.0,0.0,0.0,0.0,0.0,0.0,0.0,0.0,0.0,0.0,0.0,0.0,0.0,0.0,0.0,0.0,0.0,0.0,0.0,0.0,0.0,0.0,0.0,0.0,0.0,0.0,0.0,0.0,0.0,0.0,0.0,0.0,0.0,0.0,0.0,0.0,0.0,0.0,0.0,0.0,0.0,0.0,0.0,0.0,0.0,0.0,0.0,0.0,0.0,0.0,0.0,0.0,0.0,0.0,0.0,0.0,0.0,0.0,0.0,0.0,0.0,0.0,0.0,0.0,0.0,0.0,0.0,0.0,0.0,0.0,0.0,0.0,0.0,0.0,0.0,0.0,0.0,0.0,0.0,0.0,0.0,0.0,0.0,0.0,0.0,0.0,0.0,0.0,0.0,0.0,0.0,0.0,0.0,0.0,0.0,0.0,0.0,0.0,0.0,0.0,0.0,0.0,0.0,0.0,0.0,0.0,0.0,0.0,0.0,0.0,0.0,0.0,0.0,0.0,0.0,0.0,0.0,0.0,0.0,0.0,0.0,0.0,0.0,0.0,0.0,0.0,0.0,0.0,0.0,0.0,0.0,0.0,0.0,0.0,-7.2052,-7.1245,0.0,0.0,0.0,0.0,0.0,0.0,0.0,0.0,0.0,0.0,0.0,0.0,0.0,0.0,0.0,0.0,0.0,0.0,0.0,0.0,0.0,0.0,0.0,-5.0712,-5.0712,-5.0712,-5.0712,-5.0712,-5.0712,0.0,0.0,0.0,0.0,0.0,-5.0712,-5.0712,-5.0712,-5.0712,-5.151,-5.2318,-5.3087,-5.3549,-5.2856,-5.1318,0.0,0.0,0.0,0.0,0.0,0.0,0.0,0.0,0.0,0.0,0.0,0.0,0.0,0.0,0.0,0.0,0.0,0.0,0.0,0.0,0.0,0.0,0.0,0.0,0.0,0.0,0.0,0.0,0.0,0.0,0.0,0.0,0.0,0.0,0.0,0.0,0.0,0.0,0.0,0.0,0.0,0.0,0.0,0.0,0.0,0.0,0.0,0.0,0.0,0.0,0.0,0.0,0.0,0.0,0.0,0.0,0.0,0.0,0.0,0.0,0.0,0.0,0.0,0.0,0.0,0.0,0.0,0.0,0.0,0.0,-7.0937,-7.0898,0.0,0.0,0.0,0.0,0.0,0.0,0.0,0.0,0.0,0.0,0.0,0.0,0.0,0.0,0.0,0.0,0.0,0.0,0.0,0.0,0.0,-5.0712,-5.0712,-5.0712,-5.0712,-5.0712,-5.0712,-5.0712,-5.0712,-5.0712,0.0,0.0,-5.0712,-5.0712,-5.0712,-5.0712,-5.0866,-5.1135,-5.2818,-5.4357,-5.5703,-5.5703,-5.4203,-5.1558,-5.1558,0.0,0.0,0.0,0.0,0.0,0.0,0.0,0.0,0.0,0.0,0.0,0.0,0.0,0.0,0.0,0.0,0.0,0.0,0.0,0.0,0.0,0.0,0.0,0.0,0.0,0.0,0.0,0.0,0.0,0.0,0.0,0.0,0.0,0.0,0.0,0.0,0.0,0.0,0.0,0.0,0.0,0.0,0.0,0.0,0.0,0.0,0.0,0.0,0.0,0.0,0.0,0.0,0.0,0.0,0.0,0.0,0.0,0.0,0.0,0.0,0.0,0.0,0.0,-7.0495,-7.0192,-7.0183,-6.9331,-6.8923,-6.895,-7.0029,-7.0644,-7.0783,-6.9398,0.0,0.0,0.0,0.0,0.0,0.0,0.0,0.0,0.0,0.0,0.0,0.0,0.0,0.0,0.0,0.0,0.0,0.0,0.0,-5.0712,-5.0712,-5.0712,-5.0712,-5.0712,-5.0712,-5.0712,-5.0712,-5.0712,-5.0712,-5.0712,-5.0712,-5.0712,-5.0712,-5.0795,-5.1528,-5.2856,-5.4549,-5.5472,-5.5703,-5.5703,-5.5472,-5.5049,-5.5049,-5.4241,-5.2836,0.0,0.0,0.0,0.0,0.0,0.0,0.0,0.0,0.0,0.0,0.0,0.0,0.0,0.0,0.0,0.0,0.0,0.0,0.0,0.0,0.0,0.0,0.0,0.0,0.0,0.0,0.0,0.0,0.0,0.0,0.0,0.0,0.0,0.0,0.0,0.0,0.0,0.0,0.0,0.0,0.0,-6.8476,-6.914,0.0,0.0,0.0,0.0,0.0,0.0,0.0,0.0,0.0,0.0,0.0,0.0,0.0,-6.6951,-6.7143,-6.8823,-6.9682,-6.9682,-7.0876,-7.1456,-7.1452,-7.1187,-7.0995,-7.0782,-6.9515,0.0,-7.0898,-7.0667,0.0,0.0,0.0,0.0,0.0,0.0,0.0,0.0,0.0,0.0,0.0,0.0,0.0,0.0,0.0,0.0,0.0,0.0,0.0,0.0,0.0,-5.1548,-5.2125,-5.2125,-5.2972,-5.3087,-5.2164,-5.2125,-5.1664,-5.075,-5.0764,-5.0795,-5.0795,-5.0952,-5.2225,-5.4716,-5.6496,-5.7782,-5.8561,-5.8644,-5.8634,-5.855,-5.855,-5.7088,-5.4577,-5.443,0.0,0.0,0.0,0.0,0.0,0.0,0.0,0.0,0.0,0.0,0.0,0.0,0.0,0.0,0.0,0.0,0.0,0.0,0.0,0.0,0.0,0.0,0.0,0.0,0.0,0.0,0.0,0.0,0.0,0.0,0.0,0.0,0.0,0.0,0.0,0.0,0.0,0.0,0.0,-6.8359,-6.9023,-6.9414,-6.9023,-6.8047,0.0,0.0,0.0,0.0,0.0,0.0,0.0,0.0,0.0,-6.6875,-6.7812,-6.832,-6.832,-7.0,-7.0859,-7.0859,-7.1414,-7.1689,-7.1686,-7.156,-7.1435,-7.1301,-7.0477,-7.0462,-7.0973,-6.9939,-6.9513,-6.936,0.0,0.0,0.0,0.0,-6.6128,-6.7051,0.0,0.0,0.0,0.0,0.0,0.0,0.0,0.0,0.0,0.0,0.0,0.0,-5.1318,-5.2856,-5.3857,-5.3857,-5.4972,-5.4972,-5.3318,-5.3203,-5.2463,-5.0835,-5.0851,-5.0794,-5.0603,-5.1581,-5.358,-5.6678,-5.8498,-5.9893,-6.0867,-6.0954,-6.0945,-6.0781,-6.0781,-5.9165,-5.6357,-5.6357,-5.4779,-5.2234,0.0,0.0,0.0,0.0,0.0,0.0,0.0,0.0,0.0,0.0,0.0,0.0,0.0,0.0,0.0,0.0,0.0,0.0,0.0,0.0,0.0,0.0,0.0,0.0,0.0,0.0,0.0,0.0,0.0,0.0,0.0,0.0,0.0,0.0,0.0,0.0,0.0,-6.8906,-6.9531,-6.9765,-6.9414,-6.8476,0.0,0.0,0.0,0.0,0.0,0.0,-6.6875,-6.6914,-6.7109,-6.7539,-6.8984,-6.9726,-6.9726,-7.125,-7.1992,-7.1992,-7.1858,-7.18,-7.1758,-7.1686,-7.1583,-7.1543,-7.1404,-7.126,-7.1084,-6.9655,-6.9052,-6.9013,-6.8577,-6.7782,-6.6859,-6.6821,-6.7205,-6.7744,0.0,0.0,0.0,0.0,0.0,0.0,0.0,0.0,0.0,0.0,0.0,-5.3087,-5.3087,-5.4587,-5.5549,-5.5549,-5.5665,-5.4972,-5.3318,-5.3203,-5.2502,-5.0944,-5.0882,-5.0578,-4.9863,-5.3024,-5.6052,-5.8754,-6.0375,-6.1116,-6.0979,-6.0997,-6.0945,-6.0781,-6.0781,-5.9819,-5.8165,-5.8165,-5.6928,-5.4689,-5.2272,0.0,0.0,0.0,0.0,0.0,0.0,0.0,0.0,0.0,0.0,0.0,0.0,0.0,0.0,0.0,0.0,0.0,0.0,0.0,0.0,0.0,0.0,0.0,0.0,0.0,0.0,0.0,0.0,0.0,0.0,0.0,0.0,0.0,0.0,0.0,0.0,0.0,0.0,-7.0547,-7.1328,0.0,0.0,0.0,0.0,-6.5664,-6.4844,-6.5156,-6.6797,-6.6914,-6.7656,-6.9336,-7.0195,-7.0625,-7.0625,-7.1523,-7.1992,-7.1992,-7.1992,-7.1992,-7.1992,-7.1992,-7.1861,-7.1682,-7.1679,-7.1491,-7.1201,-7.0889,-7.0783,-7.0629,-6.9013,-6.8859,-6.9206,-6.6821,-6.7475,-6.9436,0.0,0.0,0.0,0.0,0.0,-4.9171,-4.9974,-5.0111,-5.023,-5.0634,-5.2164,-5.3203,-5.3203,-5.5703,-5.7357,-5.7357,-5.8357,-5.828,-5.6588,-5.4988,-5.337,-5.1757,-5.0264,-5.0176,-5.1615,-5.5599,-5.8087,-5.8883,-6.0664,-6.1353,-6.1006,-6.1143,-6.1053,-6.0781,-6.0781,-6.0473,-5.9896,-5.9896,-5.8531,-5.6249,-5.5328,-5.3333,0.0,0.0,0.0,0.0,0.0,0.0,0.0,0.0,0.0,0.0,0.0,0.0,0.0,0.0,0.0,0.0,0.0,0.0,0.0,0.0,0.0,0.0,0.0,0.0,0.0,0.0,0.0,0.0,0.0,0.0,0.0,0.0,0.0,0.0,0.0,0.0,0.0,-6.8984,-6.8867,0.0,-6.789,-6.7539,-6.7109,-6.6484,-6.7148,-6.7851,-6.8555,-6.8515,-6.8828,-6.9492,-6.9726,-6.9883,-6.9922,-7.0234,-7.0351,-7.0312,-7.0312,-7.0312,-7.0312,-7.0351,-7.035,-7.0264,-7.015,-6.9962,-6.9686,-6.9505,-6.9692,-7.0052,-6.9475,-6.909,-6.8744,-6.7859,-6.809,-6.8821,0.0,0.0,0.0,-4.8994,-4.9092,-4.9386,-5.0183,-5.0313,-5.061,-5.1413,-5.301,-5.428,-5.4857,-5.7434,-5.9127,-5.9127,-6.0165,-5.9704,-5.7165,-5.5479,-5.3507,-5.0998,-5.0059,-5.1279,-5.4805,-5.7148,-5.8669,-5.9425,-6.0388,-6.0656,-6.022,-6.0346,-6.0391,-6.0358,-6.0358,-6.0512,-6.0781,-6.0781,-5.9819,-5.8204,-5.7357,-5.4818,-5.1548,0.0,0.0,0.0,0.0,0.0,0.0,0.0,0.0,0.0,0.0,0.0,0.0,0.0,0.0,0.0,0.0,0.0,0.0,0.0,0.0,0.0,0.0,0.0,0.0,0.0,0.0,0.0,0.0,0.0,0.0,0.0,0.0,0.0,0.0,-6.6953,-6.7539,-6.8125,-6.793,-6.7734,-6.7734,-6.75,-6.7344,-6.7344,-6.8086,-6.8594,-6.8633,-6.8594,-6.8594,-6.8633,-6.8867,-6.9023,-6.9062,-6.9336,-6.9453,-6.9414,-6.9414,-6.9414,-6.9414,-6.9453,-6.918,-6.8633,-6.9087,-6.8834,-6.816,-6.8521,-6.879,-6.8935,-6.9168,-6.8898,-6.8385,-6.8385,-6.8385,-6.8385,0.0,-4.8306,-4.8532,-4.9356,-4.9489,-4.9792,-5.0584,-5.0712,-5.1279,-5.2895,-5.4626,-5.6357,-5.805,-5.9742,-6.0781,-6.0781,-6.0781,-5.9011,-5.4857,-5.4562,-5.2761,-4.8725,-5.0445,-5.3906,-5.9023,-5.7539,-5.793,-6.0351,-5.957,-5.9037,-5.8688,-5.8688,-5.8956,-5.9473,-5.9473,-5.9973,-6.0742,-6.0781,-6.0781,-6.0589,-5.8115,-5.5577,-5.3241,0.0,0.0,0.0,0.0,0.0,0.0,0.0,0.0,0.0,0.0,0.0,0.0,0.0,0.0,0.0,0.0,0.0,0.0,0.0,0.0,0.0,0.0,0.0,0.0,0.0,0.0,0.0,0.0,0.0,0.0,0.0,0.0,0.0,-6.539,-6.707,-6.8125,-6.8164,-6.8828,-6.9336,-6.9336,-6.8633,-6.8164,-6.8164,-6.7383,-6.6914,-6.6914,-6.6836,-6.6836,-6.6836,-6.7656,-6.8086,-6.8086,-6.8906,-6.9336,-6.9336,-6.9375,-6.9375,-6.9336,-6.9375,-6.8515,-6.6992,-6.8633,-6.8271,-6.672,-6.8205,-6.8264,-6.7435,-6.8101,-6.8346,-6.8321,-6.8321,-6.8321,-6.8321,-4.8306,-4.8306,-4.8532,-4.9356,-4.9489,-4.9792,-5.0584,-5.0712,-5.0866,-5.1318,-5.3895,-5.5895,-5.6357,-5.905,-6.0781,-6.0781,-6.0781,-5.9511,-5.6511,-5.4669,-5.2512,-4.9728,-5.2464,-5.5106,-5.7265,-5.8672,-5.9414,-5.9531,-5.9297,-5.9037,-5.8688,-5.8688,-5.8684,-5.8665,-5.9242,-5.9627,-5.9896,-6.0512,-6.0781,-6.0742,-6.005,-5.8242,-5.6,0.0,0.0,0.0,0.0,0.0,0.0,0.0,0.0,0.0,0.0,0.0,0.0,0.0,0.0,0.0,0.0,0.0,0.0,0.0,0.0,0.0,0.0,0.0,0.0,0.0,0.0,0.0,0.0,0.0,0.0,0.0,-6.4492,-6.6015,-6.6484,-6.6278,-6.6387,-6.7148,-6.7332,-6.7443,-6.7578,-6.7383,-6.7265,-6.7265,-6.7031,-6.6914,-6.6914,-6.5703,-6.5,-6.5,-6.5234,-6.5351,-6.5351,-6.6836,-6.7578,-6.7578,-6.7617,-6.7617,-6.7578,-6.7617,-6.7344,-6.6914,-6.7383,-6.7217,-6.6613,-6.7056,-6.6944,-6.6506,-6.7176,-6.709,-6.659,-6.659,-6.659,-6.6513,-4.8306,-4.8306,-4.8514,-4.9139,-4.9386,-4.97,-5.0347,-5.0594,-5.0943,-5.1664,-5.4049,-5.5972,-5.6703,-5.9204,-6.0781,-6.0781,-6.0781,-5.9281,-5.5654,-5.3133,-5.2233,-5.3147,-5.5106,-5.6772,-5.8164,-5.9297,-5.9492,-5.8672,-5.8281,-5.7943,-5.7631,-5.7631,-5.7676,-5.778,-5.8627,-5.9165,-5.955,-6.0435,-6.0781,-6.0781,-6.0781,-5.9281,-5.7088,-5.7973,-5.6703,-5.4626,-5.5395,-5.5703,-5.5626,-5.5164,0.0,0.0,0.0,0.0,0.0,0.0,0.0,0.0,0.0,0.0,0.0,0.0,0.0,0.0,0.0,0.0,0.0,0.0,0.0,0.0,0.0,0.0,0.0,0.0,-6.4258,-6.6055,-6.6797,-6.636,-6.6198,-6.6836,-6.6789,-6.6785,-6.6875,-6.6914,-6.6914,-6.6914,-6.6914,-6.6914,-6.6914,-6.5937,-6.5039,-6.4336,-6.5,-6.5039,-6.4297,-6.6015,-6.6914,-6.6914,-6.6914,-6.6914,-6.6914,-6.6914,-6.6484,-6.5859,-6.6562,-6.6403,-6.568,-6.6319,-6.6507,-6.632,0.0,0.0,0.0,0.0,-6.5897,-6.582,-4.86,-4.8526,-4.8587,-4.901,-4.934,-4.9683,-5.0226,-5.0511,-5.1318,-5.3126,-5.4703,-5.6357,-5.8127,-5.9781,-6.0781,-6.0781,-6.0627,-5.8473,-5.3664,-5.1155,-5.2169,-5.7326,-5.7641,-5.8548,-6.0351,-5.9686,-5.8867,-5.789,-5.7148,-5.6577,-5.6191,-5.6191,-5.6435,-5.6907,-5.7857,-5.8704,-5.9435,-6.0396,-6.0781,-6.0781,-6.0781,-5.9435,-5.7522,-5.828,-5.7165,-5.528,-5.6011,-5.628,-5.6242,-5.6165,0.0,0.0,0.0,0.0,0.0,0.0,0.0,0.0,0.0,0.0,0.0,0.0,0.0,0.0,0.0,0.0,0.0,0.0,0.0,0.0,0.0,0.0,0.0,0.0,-6.3945,-6.5117,-6.668,-6.6914,-6.6914,-6.6914,-6.6874,-6.6874,-6.6914,-6.6914,-6.6914,-6.6914,-6.6914,-6.6914,-6.6914,-6.6719,0.0,0.0,0.0,-6.5859,-6.4336,-6.6015,-6.6914,-6.6914,-6.6914,-6.6914,-6.6914,-6.6914,-6.6055,-6.4687,-6.6211,-6.6015,-6.4687,-6.6067,-6.6625,-6.656,-6.6213,-6.6046,-6.5909,-6.5795,-6.582,-6.5897,-5.0325,-4.9774,-4.9547,-5.0225,-4.9897,-4.9955,-5.1354,-5.1057,-5.1558,-5.3933,-5.5088,-5.6357,-5.8127,-5.9781,-6.0781,-6.0781,-5.955,-5.7511,-5.4434,-5.2512,-5.3181,-5.7123,-5.7945,-5.8949,-6.0193,-6.0078,-5.9317,-5.789,-5.7734,-5.7163,-5.6191,-5.6191,-5.6132,-5.6011,-5.7588,-5.8396,-5.8627,-6.0165,-6.0781,-6.0781,-6.0781,-6.0512,-6.0089,-6.0242,-6.0012,-5.9588,-5.9742,-5.9819,-5.9704,-5.9011,-5.8943,-5.9257,-5.946,-5.9889,0.0,0.0,0.0,0.0,0.0,0.0,0.0,0.0,0.0,0.0,0.0,0.0,0.0,0.0,0.0,0.0,0.0,0.0,0.0,-6.3984,-6.5351,-6.6523,-6.6836,-6.6914,-6.6914,-6.6914,-6.6743,-6.6735,-6.6875,-6.6914,-6.6914,-6.6914,-6.6914,-6.6914,-6.6914,-6.5586,-6.4648,-6.4297,-6.4648,-6.4648,-6.4297,-6.6015,-6.6914,-6.6914,-6.6914,0.0,-6.6914,-6.6914,-6.6719,-6.6406,-6.6758,-6.6719,-6.6406,-6.6717,-6.6742,-6.656,-6.6213,-6.608,-6.5972,-6.5149,-6.5282,-6.5782,-5.2013,-5.1168,-5.0672,-5.1261,-5.1187,-5.1319,-5.2146,-5.2082,-5.2395,-5.3664,-5.4934,-5.6203,-5.7511,-5.8396,-5.905,-5.9511,-5.7627,-5.6395,-5.6395,-5.5164,-5.5837,-5.8983,-5.9534,-5.9869,-6.0092,-6.0097,-5.9524,-5.8383,-5.8317,-5.802,-5.7437,-5.7392,-5.7224,-5.7049,-5.8319,-5.8896,-5.8973,-6.0242,-6.0781,-6.0781,-6.0781,-6.0781,-6.0781,-6.0781,-6.0781,-6.0781,-6.0781,-6.0781,-6.0742,-6.0281,-6.0275,-6.0442,-6.0618,-6.1036,-6.1478,0.0,0.0,0.0,0.0,0.0,0.0,0.0,0.0,0.0,0.0,0.0,0.0,0.0,0.0,-6.1719,-6.1719,0.0,-6.3281,-6.414,-6.5039,-6.5898,-6.6797,-6.6914,-6.6914,-6.6914,-6.6791,-6.6788,-6.6875,-6.6914,-6.6914,-6.6914,-6.6914,-6.6914,-6.6914,-6.6055,-6.5195,-6.4336,-6.5156,-6.5195,-6.4297,-6.6015,-6.6914,-6.6914,-6.6914,-6.6914,-6.6914,-6.6914,-6.6914,-6.6914,-6.6914,-6.6914,-6.6914,-6.6914,-6.6833,-6.6735,-6.6439,-6.6237,-6.6051,-6.5533,-6.5581,-6.582,-5.3314,-5.2605,-5.2061,-5.2205,-5.243,-5.2679,-5.2931,-5.3103,-5.3395,-5.3857,-5.4972,-5.6011,-5.6907,-5.6983,-5.7099,-5.728,-5.5742,-5.5588,-5.7665,-5.7434,-5.8361,-6.0847,-6.0973,-6.0721,-6.0216,-6.0177,-5.9827,-5.9092,-5.8992,-5.8848,-5.8674,-5.8552,-5.8423,-5.8357,-5.9127,-5.9511,-5.955,-6.0435,-6.0781,-6.0781,-6.0781,-6.0781,-6.0781,-6.0781,-6.0781,-6.0781,-6.0781,-6.0781,-6.0781,-6.0781,-6.0827,-6.0882,-6.1186,-6.1779,-6.2279,-6.2024,-6.2969,0.0,0.0,0.0,0.0,0.0,0.0,0.0,0.0,-6.3359,-6.2812,-6.3164,-6.2969,-6.2695,-6.2695,-6.2695,-6.3164,-6.457,-6.4805,-6.5312,-6.6719,-6.6914,-6.6914,-6.6914,-6.6914,-6.6914,-6.6914,-6.6914,-6.6914,-6.6914,-6.6914,-6.6914,-6.6914,-6.6914,-6.625,-6.4844,-6.6172,-6.6211,-6.4805,-6.6211,-6.6914,-6.6914,-6.6914,-6.6914,-6.6914,-6.6914,-6.6914,-6.6914,-6.6914,-6.6914,-6.6914,-6.6914,-6.6914,-6.6875,-6.6735,-6.6449,-6.6204,-6.6161,-6.6059,-6.5958,-5.3644,-5.3951,-5.393,-5.317,-5.2821,-5.2982,-5.4128,-5.3682,-5.401,-5.6291,-5.6049,-5.6011,-5.6907,-5.6983,-5.6137,-5.3972,-5.4857,-5.5703,-5.5972,-5.7357,-5.8946,-6.0762,-6.0839,-6.0853,-6.0876,-6.0885,-6.0553,-5.9861,-5.9844,-5.9413,-5.8505,-5.8518,-5.8423,-5.8357,-5.9127,-5.9511,-5.955,-6.0435,-6.0781,-6.0781,-6.0781,-6.0781,-6.0781,-6.0781,-6.0781,-6.0781,-6.0781,-6.0781,-6.0781,-6.0781,-6.0882,-6.1006,-6.1227,-6.1451,-6.178,-6.2614,-6.3008,-6.2773,-6.1133,-5.9687,-5.9336,-6.2383,-6.3008,-6.289,0.0,-6.4805,-6.5898,-6.4453,-6.5312,-6.6328,-6.6328,-6.6328,-6.6367,-6.6562,-6.6601,-6.668,-6.6875,-6.6914,-6.6914,-6.6914,-6.6914,-6.6914,-6.6914,-6.6914,-6.6914,-6.6914,-6.6914,-6.6914,-6.6914,-6.6914,-6.6797,-6.6601,-6.6797,-6.6797,-6.6601,-6.6797,-6.6914,-6.6914,-6.6914,-6.6914,-6.6914,-6.6914,-6.6914,-6.6914,-6.6914,-6.6914,-6.6914,-6.6914,-6.6914,-6.6914,-6.6874,-6.6737,-6.6533,-6.6412,-6.6236,-6.607,-5.3404,-5.4033,-5.4409,-5.4016,-5.4202,-5.4583,-5.5115,-5.4895,-5.5049,-5.6088,-5.5511,-5.5511,-5.6868,-5.6137,-5.4511,-5.1972,-5.328,-5.4664,-5.5626,-5.7319,-5.905,-6.0742,-6.0781,-6.085,-6.0892,-6.0892,-6.079,-6.0584,-6.0493,-6.0294,-5.9943,-5.9872,-5.9815,-5.9781,-6.0127,-6.0242,-6.0281,-6.0666,-6.0781,-6.0781,-6.0781,-6.0781,-6.0781,-6.0781,-6.0781,-6.0666,-5.9704,-5.9358,0.0,-5.9358,-5.937,-5.963,-6.0763,-6.0553,-6.0265,-6.2308,-6.1909,-6.0859,-6.1094,-6.1406,-6.1953,-6.3398,-6.4531,-6.5273,-6.5273,-6.6133,-6.668,-6.5976,-6.6406,-6.6914,-6.6914,-6.6055,-6.5703,-6.6758,-6.6055,-6.5742,-6.6758,-6.6914,-6.6914,-6.6914,-6.6015,-6.539,-6.539,-6.6289,-6.6484,-6.5469,-6.6328,-6.6914,-6.6914,-6.6914,-6.6914,-6.6914,-6.6914,-6.6914,-6.6914,-6.6914,-6.6914,-6.6914,-6.6914,-6.6914,-6.6914,-6.6914,-6.6914,-6.6914,-6.6914,-6.6914,-6.6914,-6.6914,-6.6601,-6.6133,-6.6133,-6.5779,-6.5297,-6.5656,-6.5645,-6.5444,-5.321,-5.3985,-5.4655,-5.4655,-5.5237,-5.5703,-5.5703,-5.5703,-5.5703,-5.5703,-5.5203,-5.5126,-5.5857,-5.4857,-5.3203,-5.0904,-5.2664,-5.4395,-5.5626,-5.755,-5.9281,-6.0742,-6.0781,-6.0781,-6.0781,-6.0781,-6.0856,-6.0935,-6.0856,-6.0856,-6.0935,-6.0845,-6.0781,-6.0781,-6.0781,-6.0781,-6.0781,-6.0781,-6.0781,-6.0781,-6.0781,-6.0781,-6.0781,-6.0781,-6.0512,-5.9935,-5.8742,-5.8319,-5.8242,-5.7742,-5.7896,-5.8462,-5.937,-5.923,-5.9127,-6.1194,-6.0577,-5.9609,-6.1523,-6.2461,-6.3164,-6.4375,-6.543,-6.6328,-6.6797,-6.6914,-6.6914,-6.6914,-6.6914,-6.6914,-6.6914,-6.5859,-6.543,-6.668,-6.5859,-6.5469,-6.6719,-6.6914,-6.6719,-6.625,-6.5078,-6.3945,-6.2969,-6.4883,-6.5859,-6.5078,-6.6172,-6.6914,-6.6914,-6.6914,-6.6914,-6.6914,-6.6914,-6.6914,-6.6914,-6.6914,-6.6914,-6.6914,-6.6914,-6.6914,-6.6875,-6.664,-6.6523,-6.6523,-6.6289,-6.6172,-6.6172,-6.6172,-6.582,-6.5234,-6.5234,-6.4844,-6.4336,-6.4591,-6.4719,-6.4727,-5.3198,-5.4206,-5.5094,-5.5094,-5.5423,-5.5703,-5.5703,-5.5703,-5.5703,-5.5703,-5.5665,-5.5049,-5.351,-5.328,-5.2549,-5.0866,-5.3703,-5.5665,-5.5703,-5.805,-5.9858,-6.0742,-6.0781,-6.0781,-6.0781,-6.0781,-6.0793,-6.0793,-6.0793,-6.0793,-6.0793,-6.0793,-6.0781,-6.0781,-6.0781,-6.0781,-6.0781,-6.0781,-6.0781,-6.0781,-6.0781,-6.0781,-6.0781,-6.0781,-5.9781,-5.8357,-5.8319,-5.8319,-5.805,-5.6357,-5.6896,-5.807,-5.6744,-5.7426,-5.8797,-5.9208,-5.9258,-5.9765,-6.2265,-6.1211,-6.0351,-6.4531,-6.4961,-6.4805,-6.6523,-6.6914,-6.6914,-6.6914,-6.6914,-6.6914,-6.6914,-6.6875,-6.6836,-6.6875,-6.6875,-6.6836,-6.6875,-6.6914,-6.6289,-6.457,-6.4336,-6.3008,-5.9687,-6.2383,-6.5078,-6.6719,-6.6875,-6.6914,-6.6914,-6.6914,-6.6914,-6.6914,-6.6914,-6.6914,-6.6914,-6.6914,-6.6914,-6.6914,-6.6914,-6.6914,-6.6875,-6.6015,-6.5625,-6.5586,-6.4765,-6.4375,-6.4375,-6.4375,-6.4375,-6.4336,-6.4336,-6.4336,-6.4219,-6.3359,-6.3502,-6.4148,-5.4991,-5.5426,-5.5769,-5.5183,-5.5423,-5.5703,-5.5703,-5.5703,-5.5703,-5.5703,-5.5703,0.0,0.0,0.0,0.0,0.0,-5.2049,-5.3087,-5.478,-5.6203,-5.7857,-5.9858,-6.0473,-6.0781,-6.0781,-6.0781,-6.0781,-6.0781,-6.0781,-6.0781,-6.0781,-6.0781,-6.0781,-6.0781,-6.0781,-6.0781,-6.0781,-6.0781,-6.0781,-6.0781,-6.0781,-6.0781,-6.0666,-5.955,-5.8781,-5.8011,0.0,-5.4934,-5.4818,-5.4241,-5.4434,-5.5034,-5.5769,-5.5702,-5.5371,-5.5655,-5.8164,-6.0781,-6.0547,-6.1523,-6.293,-6.4375,-6.539,-6.6172,-6.6758,-6.6914,-6.6914,-6.6914,-6.5976,-6.5156,-6.5156,-6.4219,-6.3828,-6.5,-6.4219,-6.4258,-6.6562,-6.4922,-6.4101,-6.582,-6.3984,-6.3047,-6.4219,-6.4297,-6.4062,-6.3476,-6.5586,-6.6914,-6.6914,-6.6914,-6.6914,-6.6914,-6.6914,-6.6914,-6.6914,-6.6914,-6.6914,-6.6914,-6.6914,-6.6914,-6.6875,-6.6601,-6.6133,-6.5586,-6.5273,-6.4844,-6.4297,-6.4297,-6.3945,-6.3437,-6.3437,-6.3086,-6.2539,-6.2265,-6.2303,-6.2493,0.0,-5.6649,-5.6907,-5.6333,-5.6464,0.0,0.0,0.0,0.0,0.0,0.0,0.0,0.0,0.0,0.0,0.0,0.0,-5.2626,-5.3933,-5.4818,-5.6126,-5.805,-5.8665,-5.8973,-5.8973,-5.9588,-5.9896,-5.9896,-6.0512,-6.0781,-6.0781,-6.0781,-6.0781,-6.0781,-6.0781,-6.0781,-6.0781,-6.0781,-6.0781,-6.0742,-6.0165,-5.9896,-5.9704,-5.8011,-5.7011,0.0,-5.401,-5.2818,-5.2318,-5.2318,-5.2702,-5.332,-5.3906,-5.3915,-5.3947,-5.5329,-5.8162,-6.0859,-6.0976,-6.2617,-6.4453,-6.5078,-6.6055,-6.6914,-6.6914,-6.6914,-6.6914,-6.6914,-6.6015,-6.5039,-6.4414,-6.3398,-6.3008,-6.4101,-6.3359,-6.3633,-6.6484,-6.4961,-6.414,-6.5781,-6.3984,-6.3242,-6.4883,-6.4609,-6.3828,-6.2695,-6.4687,-6.5976,-6.5976,-6.5976,-6.625,-6.6875,-6.6914,-6.6914,-6.6914,-6.6914,-6.6914,-6.6914,-6.6914,-6.6914,-6.6875,-6.6562,-6.5781,-6.4687,-6.4687,-6.3984,-6.293,-6.3242,-6.3047,-6.2539,-6.2539,-6.2187,-6.1719,-6.1719,-6.1719,-6.1719,0.0,0.0,-5.8357,0.0,0.0,0.0,0.0,0.0,0.0,0.0,0.0,0.0,0.0,0.0,0.0,0.0,0.0,0.0,-5.3203,-5.3933,-5.478,-5.5588,-5.5665,-5.5703,-5.5703,-5.7319,-5.8165,-5.8165,-5.9742,-6.055,-6.055,-6.055,-6.055,-6.055,-6.055,-6.055,-6.055,-6.055,-6.055,-6.0396,-5.8819,-5.8165,-5.7973,-5.6242,-5.4587,-5.3203,-5.3087,-5.2049,-5.0712,-5.0712,-5.1866,-5.3032,-5.1672,-5.2557,-5.4711,-5.7908,-5.9122,-6.0156,-6.332,-6.4297,-6.4844,-6.6484,-6.6914,-6.6914,-6.6914,-6.6914,-6.6875,-6.6797,-6.6719,-6.6094,-6.4375,-6.3984,-6.3945,-6.414,-6.4101,-6.4687,-6.6523,-6.668,-6.6055,-6.4492,-6.4297,-6.3672,-6.2109,-6.3476,-6.4414,-6.4297,-6.4375,-6.4414,-6.4414,-6.4414,-6.5195,-6.6836,-6.6914,-6.6914,-6.6914,-6.6914,-6.6914,-6.6914,-6.6914,-6.6914,-6.6875,-6.6055,-6.4726,-6.3125,-6.3125,-6.2187,-6.0664,-6.1445,-6.1758,-6.1758,-6.1719,-6.1719,-6.1719,-6.1719,-6.1719,-6.1719,0.0,0.0,0.0,0.0,0.0,0.0,0.0,0.0,0.0,0.0,0.0,0.0,0.0,0.0,0.0,0.0,0.0,0.0,-5.2269,-5.3049,-5.3895,-5.478,-5.5395,-5.5703,-5.5703,-5.6126,-5.6357,-5.6357,-5.678,-5.7011,-5.7011,-5.7011,-5.7011,-5.7011,-5.7011,-5.7011,-5.7011,-5.7011,-5.7011,-5.6973,-5.6511,-5.6357,-5.6165,-5.4472,-5.3587,-5.3049,-5.1779,-5.1058,-5.0712,-5.0712,-5.2328,-5.4478,-5.5341,-5.6879,-5.8296,-5.7996,-6.0261,-6.2785,-6.2459,-6.4258,-6.6328,-6.6797,-6.6914,-6.6914,-6.6914,-6.6914,-6.6523,-6.5234,-6.3945,-6.25,-6.082,-5.9453,-5.9414,-6.1953,-6.1328,-6.1562,-6.4531,-6.3828,-6.3359,-6.4219,-6.4297,-6.4648,-6.5508,-6.5976,-6.5703,-6.4414,-6.5508,-6.625,-6.625,-6.625,-6.6445,-6.6875,-6.6914,-6.6914,-6.6914,-6.6914,-6.6914,-6.6914,-6.6914,-6.6914,-6.6875,-6.668,-6.5976,-6.4922,-6.4922,-6.4336,-6.3281,-6.2851,-6.2656,-6.2617,-6.1953,-6.1719,-6.1719,-6.1719,-6.1719,-6.1719,0.0,0.0,0.0,0.0,0.0,0.0,0.0,0.0,0.0,0.0,0.0,0.0,0.0,0.0,0.0,0.0,0.0,0.0,0.0,-5.3126,-5.3433,-5.3895,-5.401,-5.4049,-5.4049,-5.4049,-5.4395,-5.5164,-5.5164,-5.5549,-5.6252,-5.5857,-5.5703,-5.5703,-5.5703,-5.5703,-5.5703,-5.5703,-5.5703,0.0,0.0,-5.4587,-5.4472,-5.3126,-5.2615,-5.2549,-5.201,-5.1779,-5.201,-5.351,-5.4294,-5.5103,-5.7912,-5.9267,-5.9954,-6.0559,-6.2279,-6.3951,-6.388,-6.5261,-6.6788,-6.6874,-6.6914,-6.6719,-6.5937,-6.5742,-6.5273,-6.3515,-6.2383,-6.1172,-5.9492,-5.8398,-5.8594,-6.1289,-6.0898,-6.1211,-6.3906,-6.3476,-6.3203,-6.418,-6.4297,-6.4961,-6.6719,-6.6914,-6.6484,-6.5508,-6.5625,-6.5742,-6.5742,-6.5742,-6.6094,-6.6875,-6.6914,-6.6914,-6.6914,-6.6914,-6.6914,-6.6914,-6.6914,-6.6914,-6.6914,-6.6914,-6.6211,-6.5039,-6.543,-6.4883,-6.3711,-6.3594,-6.3555,-6.3476,-6.2617,-6.2265,-6.2226,-6.1836,-6.1719,-6.1719,0.0,0.0,0.0,0.0,0.0,0.0,0.0,0.0,0.0,0.0,-5.855,-5.8627,-5.8627,-5.8627,0.0,0.0,0.0,0.0,0.0,0.0,-5.3203,-5.3203,-5.2462,-5.2077,-5.2077,-5.2077,-5.2818,-5.4318,-5.4318,-5.5049,-5.6483,-5.5588,-5.5203,-5.5203,-5.5203,-5.5203,-5.5203,-5.5318,-5.5357,-5.5241,-5.378,-5.3203,-5.3126,0.0,-5.2077,-5.2154,-5.2933,-5.3203,-5.3741,-5.728,-5.7011,-5.5895,-6.0012,-6.0948,-6.105,-6.3806,-6.438,-6.4429,-6.5827,-6.6404,-6.6616,-6.6787,-6.6831,-6.6441,-6.4959,-6.4413,-6.3788,-6.207,-6.1523,-6.0937,-5.9453,-5.9219,-5.9765,-6.1445,-6.1719,-6.2148,-6.3437,-6.4023,-6.4219,-6.3984,-6.414,-6.4961,-6.6719,-6.668,-6.664,-6.6875,-6.5508,-6.4648,-6.4648,-6.4648,-6.5351,-6.6836,-6.6914,-6.6914,-6.6914,-6.6914,-6.6914,-6.6914,-6.6914,-6.6914,-6.6914,-6.6914,-6.6094,-6.4687,-6.543,-6.4922,-6.3555,-6.4219,-6.4453,-6.4375,-6.3398,-6.3008,-6.289,-6.2031,-6.1719,-6.1719,0.0,0.0,0.0,0.0,0.0,0.0,0.0,0.0,0.0,0.0,-5.9935,-6.0358,0.0,0.0,0.0,0.0,0.0,0.0,0.0,0.0,0.0,-5.3203,-5.3049,-5.2972,-5.2972,-5.2972,-5.3126,-5.3433,-5.3433,-5.3587,-5.3857,-5.2972,-5.2538,-5.2538,-5.2538,-5.2538,-5.2615,-5.3318,-5.3626,-5.3626,-5.3318,-5.3203,-5.3164,-5.3049,0.0,0.0,-5.3164,-5.3203,-5.3818,-5.7896,-5.9011,-5.9242,-6.282,-6.4357,-6.4671,-6.3922,-6.4647,-6.548,-6.4539,-6.5333,-6.6435,-6.6463,-6.6507,-6.6459,-6.6232,-6.5111,-6.3681,-6.203,-6.0586,-5.9531,-5.9258,-5.9219,-5.9765,-6.1445,-6.1719,-6.1328,-6.0234,-6.2539,-6.3789,-6.2305,-6.3437,-6.4961,-6.6719,-6.5586,-6.5351,-6.6797,-6.6601,-6.6445,-6.6445,-6.6445,-6.6601,-6.6875,-6.6914,-6.6914,-6.6914,-6.6914,-6.6914,-6.6914,-6.6914,-6.6914,-6.6914,-6.6914,-6.6758,-6.6445,-6.6601,-6.6484,-6.6172,-6.5625,-6.5351,-6.5234,-6.3633,-6.3008,-6.289,-6.2031,-6.1719,-6.1719,0.0,0.0,0.0,0.0,0.0,0.0,-6.0204,-6.0512,-6.0319,-5.905,-5.9588,-5.9973,-5.955,-5.9511,-5.9358,0.0,0.0,0.0,0.0,0.0,0.0,-5.4511,-5.4087,0.0,-5.3895,-5.301,-5.2972,-5.3895,0.0,-5.301,-5.3857,-5.2972,-5.2577,-5.2577,-5.2577,-5.2577,-5.2577,-5.301,-5.3203,-5.3203,-5.3203,-5.3203,-5.3241,0.0,0.0,0.0,-5.4511,-5.4511,-5.4934,-5.7896,-5.8896,-5.9627,-6.3935,-6.5551,-6.5576,-6.3896,-6.4646,-6.5649,-6.4114,-6.4955,-6.6268,-6.6368,-6.6387,-6.5962,-6.4326,-6.3332,-6.2025,-5.9569,-5.8398,-5.7851,-5.7851,-5.7851,-5.8672,-6.1289,-6.1719,-6.1758,-6.1836,-6.3281,-6.3984,-6.3164,-6.3789,-6.4648,-6.5469,-6.4805,-6.4648,-6.5469,-6.5547,-6.5937,-6.6836,-6.6914,-6.6914,-6.6914,-6.6914,-6.6914,-6.6914,-6.6914,-6.6914,-6.6914,-6.6914,-6.6914,-6.6914,-6.6914,-6.6914,-6.6914,-6.6914,-6.664,-6.6211,-6.625,-6.6015,-6.5508,-6.4687,-6.4062,-6.3555,-6.2695,-6.2109,-6.1719,0.0,0.0,0.0,0.0,0.0,0.0,-5.9627,-6.0089,-5.9935,-5.8242,-5.8588,-5.8665,-5.7819,-5.8088,-5.855,0.0,0.0,0.0,0.0,0.0,0.0,0.0,0.0,0.0,-5.4741,0.0,0.0,-5.4741,-5.3395,0.0,0.0,0.0,0.0,0.0,-5.3472,-5.3472,-5.351,-5.3664,-5.3741,0.0,0.0,-5.3741,-5.3818,0.0,0.0,0.0,0.0,-5.5703,-5.5972,-5.7703,-5.8319,-5.905,-6.3435,-6.482,-6.4589,-6.3589,-6.4282,-6.5151,-6.4307,-6.5064,-6.6119,-6.6267,-6.6307,-6.5535,-6.2611,-6.1681,-6.0591,-5.7687,-5.6835,-5.6719,-5.7109,-5.7148,-5.8164,-6.1211,-6.1406,-6.1758,-6.3515,-6.375,-6.3867,-6.4258,-6.4297,-6.4453,-6.4805,-6.4531,-6.4453,-6.4844,-6.4844,-6.5469,-6.6836,-6.6914,-6.6914,-6.6914,-6.6914,-6.6914,-6.6914,-6.6914,-6.6914,-6.6914,-6.6914,-6.6914,-6.6914,-6.6914,-6.6914,-6.6914,-6.6914,-6.6406,-6.5664,-6.6523,-6.6406,-6.5586,-6.5586,-6.5078,-6.418,-6.332,-6.2461,-6.1719,0.0,0.0,0.0,0.0,0.0,0.0,-5.9627,-5.9588,-5.9011,-5.733,-5.7176,-5.6907,-5.6011,-5.7357,-5.8319,0.0,0.0,0.0,0.0,0.0,0.0,0.0,0.0,0.0,0.0,0.0,0.0,-5.5588,-5.5434,0.0,0.0,0.0,0.0,0.0,0.0,-5.4395,-5.4434,-5.5164,0.0,0.0,0.0,0.0,0.0,0.0,0.0,0.0,0.0,-5.5703,-5.5972,-5.7703,-5.8319,-5.8665,-6.0627,-6.1281,-6.155,-6.2897,-6.3423,-6.3858,-6.5281,-6.5793,-6.5921,-6.5946,-6.5958,-6.5489,-6.3795,-6.2267,-6.0739,-5.9039,-5.7568,-5.707,-5.8672,-5.8945,-5.957,-6.1406,-6.043,-6.0039,-6.1719,-6.1953,-6.2539,-6.4101,-6.4297,-6.4922,-6.6523,-6.5234,-6.4961,-6.6523,-6.664,-6.6719,-6.6875,-6.6914,-6.6914,-6.6914,-6.6914,-6.6914,-6.6914,-6.6914,-6.6914,-6.6914,-6.6914,-6.6914,-6.6914,-6.6914,-6.6914,-6.6914,-6.6914,-6.6406,-6.5664,-6.6523,-6.6406,-6.5586,-6.5586,-6.5078,-6.418,-6.332,-6.2461,-6.1719,0.0,0.0,0.0,0.0,0.0,0.0,-5.9627,-5.9935,-5.9473,-5.7291,-5.7473,-5.7242,-5.5857,-5.6319,-5.6934,-5.7473,-5.6703,0.0,0.0,0.0,0.0,0.0,0.0,0.0,0.0,0.0,-5.5703,-5.5703,-5.5703,0.0,0.0,0.0,0.0,0.0,0.0,-5.5203,-5.5241,-5.5549,0.0,0.0,0.0,0.0,0.0,0.0,0.0,0.0,0.0,0.0,-5.5818,-5.6511,-5.6742,-5.6857,-5.7511,-5.7742,-5.805,-5.9781,-6.1731,-6.3243,-6.2935,-6.432,-6.5897,-6.5897,-6.5897,-6.5214,-6.2627,-6.1544,-6.0363,-5.7882,-5.6918,-5.6706,-5.75,-5.7656,-5.8203,-5.9922,-5.9648,-6.0156,-6.289,-6.3242,-6.3906,-6.5664,-6.5859,-6.5742,-6.5351,-6.4726,-6.4609,-6.5273,-6.5351,-6.5781,-6.6836,-6.6914,-6.6914,-6.6914,-6.6914,-6.6914,-6.6914,-6.6914,-6.6914,-6.6914,-6.6914,-6.6914,-6.6914,-6.6914,-6.6914,-6.6914,-6.6914,-6.6094,-6.4922,-6.6328,-6.6094,-6.4922,-6.5976,-6.5859,-6.4961,-6.4101,-6.3242,-6.2422,0.0,0.0,0.0,0.0,0.0,-6.0512,-5.9627,-6.0012,-5.9704,-5.7627,-5.7934,-5.7742,-5.6242,-5.6088,-5.6252,-5.6599,-5.6049,0.0,0.0,0.0,0.0,0.0,0.0,0.0,0.0,0.0,-5.5703,-5.5703,-5.5703,-5.5703,0.0,0.0,-5.5703,-5.5703,0.0,0.0,0.0,0.0,0.0,0.0,0.0,0.0,0.0,0.0,0.0,0.0,0.0,0.0,0.0,0.0,0.0,-5.5703,-5.5703,-5.5703,-5.6049,-5.778,-6.0319,-6.2397,-6.1743,-6.3666,-6.5897,-6.5897,-6.5513,-6.4407,-6.159,-6.0606,-5.9522,-5.6896,-5.6374,-5.645,-5.6562,-5.6601,-5.7187,-5.8906,-5.9219,-6.0195,-6.3125,-6.3515,-6.418,-6.5937,-6.6133,-6.5859,-6.5156,-6.5078,-6.5078,-6.5078,-6.5078,-6.5586,-6.6836,-6.6914,-6.6914,-6.6914,-6.6914,-6.6914,-6.6914,-6.6914,-6.6914,-6.6914,-6.6914,-6.664,-6.6133,-6.664,-6.6601,-6.6172,-6.668,-6.6055,-6.4805,-6.6289,-6.6015,-6.4844,-6.6328,-6.6367,-6.5508,-6.4609,-6.375,-6.289,0.0,0.0,0.0,0.0,0.0,-6.0512,-5.9627,-5.9511,-5.9204,-5.8396,-5.828,-5.7973,-5.7099,-5.6983,-5.6637,-5.578,-5.5703,0.0,0.0,0.0,0.0,0.0,0.0,0.0,-5.5703,-5.5703,-5.5703,-5.5703,-5.5703,-5.5703,-5.5703,-5.5703,-5.5703,-5.5703,0.0,0.0,0.0,0.0,0.0,0.0,0.0,0.0,0.0,0.0,0.0,0.0,0.0,0.0,0.0,0.0,0.0,0.0,0.0,-5.5703,-5.6049,-5.778,-5.9511,-6.1166,-6.282,-6.4551,-6.5897,-6.5897,-6.4589,-6.2897,-6.1166,-5.961,-5.8064,-5.6514,-5.6289,-5.645,-5.6562,-5.6601,-5.7187,-5.8906,-5.9219,-5.9805,-6.1484,-6.1719,-6.2383,-6.4101,-6.4336,-6.5,-6.6719,-6.6875,-6.6875,-6.6875,-6.6875,-6.6875,-6.6914,-6.6914,-6.6914,-6.6914,-6.6914,-6.6914,-6.6914,-6.6914,-6.6914,-6.6914,-6.6914,-6.6015,-6.4375,-6.6094,-6.5976,-6.4414,-6.6133,-6.6406,-6.5664,-6.6523,-6.6367,-6.5664,-6.6562,-6.6367,-6.5508,-6.4609,-6.375,-6.289,0.0,0.0,0.0,0.0,0.0,0.0,-6.0435,-6.0396,-6.0089,-5.9242,-5.8627,-5.7973,-5.7099,-5.6483,-5.6252,-5.656,-5.6049,0.0,0.0,0.0,0.0,0.0,0.0,0.0,-5.5703,-5.5703,-5.5703,-5.5703,-5.5703,-5.5703,-5.5703,-5.5703,-5.5703,-5.5703,-5.5703,-5.5703,0.0,0.0,0.0,0.0,0.0,0.0,-5.5703,0.0,0.0,0.0,0.0,0.0,0.0,0.0,0.0,0.0,0.0,0.0,0.0,-5.6357,-5.7742,-5.9204,-5.9742,-6.1127,-6.2397,-6.2397,-6.2012,-6.1166,-5.9473,-5.8693,-5.7902,-5.6319,-5.6158,-5.6289,-5.6448,-5.6557,-5.7187,-5.8906,-5.9219,-6.0195,-6.3086,-6.3476,-6.4101,-6.5859,-6.6094,-6.6289,-6.6836,-6.582,-6.5625,-6.6797,-6.5781,-6.5625,-6.6836,-6.6914,-6.6914,-6.6914,-6.6914,-6.6914,-6.6914,-6.6914,-6.6914,-6.6914,-6.6914,-6.5976,-6.4375,-6.6094,-6.5937,-6.4414,-6.6133,-6.6406,-6.5664,-6.6523,-6.6406,-6.5703,-6.6562,-6.6367,-6.5508,-6.4609,-6.375,-6.289,0.0,0.0,0.0,0.0,0.0,0.0,-6.0358,-6.0589,-6.0473,-5.9627,-5.905,-5.855,-5.8011,-5.7203,-5.6896,-5.7434,-5.6973,0.0,0.0,0.0,0.0,0.0,0.0,0.0,-5.6665,-5.6357,-5.6214,-5.6214,-5.5857,-5.5703,-5.5703,-5.5703,-5.5703,-5.5703,-5.5703,-5.5703,0.0,0.0,0.0,0.0,0.0,0.0,-5.528,0.0,0.0,0.0,0.0,0.0,0.0,0.0,0.0,0.0,0.0,0.0,0.0,0.0,-5.6472,-5.7473,-5.8127,-5.9511,-6.0781,-6.0781,-6.0319,-5.9588,-5.855,-5.778,-5.7048,-5.6106,-5.655,-5.6977,-5.6494,-5.7059,-5.7734,-5.8164,-5.9297,-6.0664,-6.2187,-6.293,-6.3711,-6.4805,-6.5508,-6.6172,-6.6836,-6.5937,-6.5742,-6.6836,-6.5898,-6.5742,-6.6836,-6.6914,-6.6914,-6.6914,-6.6914,-6.6914,-6.6914,-6.6914,-6.6914,-6.6914,-6.6914,-6.5976,-6.4375,-6.6094,-6.5937,-6.4414,-6.6133,-6.6601,0.0,-6.668,-6.6562,-6.6133,-6.668,-6.6367,-6.5508,-6.4609,-6.375,-6.289,0.0,0.0,0.0,0.0,0.0,0.0,0.0,-6.0242,-6.0473,-5.9781,-5.9588,-5.9511,-5.9588,-5.8819,-5.8319,-5.8396,-5.8396,0.0,0.0,0.0,0.0,0.0,0.0,-5.8319,-5.8319,-5.7511,-5.7099,-5.7099,-5.628,-5.5895,-5.5895,-5.5818,-5.578,-5.578,-5.5742,-5.5703,-5.5703,-5.5703,-5.528,-5.4664,-5.5395,-5.5241,0.0,0.0,0.0,0.0,0.0,0.0,0.0,0.0,0.0,0.0,0.0,0.0,0.0,0.0,0.0,0.0,0.0,-5.9242,-6.0435,-6.0435,-5.9281,-5.8127,-5.8127,-5.6857,0.0,-5.6003,-5.7469,-5.8257,-5.6836,-5.811,-5.8789,-5.707,-5.9531,-6.1172,-5.9609,-6.082,-6.1836,-6.1719,-6.3359,-6.5078,-6.6562,-6.6836,-6.6914,-6.6914,-6.6914,-6.6914,-6.6914,-6.6914,-6.6914,-6.6914,-6.6914,-6.6914,-6.6914,-6.6914,-6.6836,-6.6719,-6.6836,-6.5937,-6.418,-6.6055,-6.5937,-6.4414,-6.6133,-6.6914,-6.6914,-6.6914,-6.6914,-6.6914,-6.6914,-6.6328,-6.539,-6.4609,-6.3711,-6.2773,0.0,0.0,0.0,0.0,0.0,0.0,0.0,0.0,0.0,0.0,-6.0319,-5.9742,-6.0435,-5.9165,-5.855,0.0,0.0,0.0,0.0,0.0,0.0,0.0,-5.8319,-5.8319,-5.8319,-5.8088,-5.7973,-5.7973,-5.778,-5.7703,-5.7665,-5.7011,-5.6676,-5.6676,-5.6011,-5.5703,-5.5703,-5.5703,-5.5588,-5.5434,-5.5626,-5.5588,0.0,0.0,0.0,0.0,-5.5703,-5.5703,0.0,0.0,0.0,0.0,0.0,0.0,0.0,0.0,-5.5703,-5.578,-5.6203,0.0,-5.6896,-5.6896,-5.6588,-5.6319,0.0,-5.5972,-5.6109,-5.7443,-5.816,-5.8457,-5.8221,-5.9673,-6.0444,-5.8866,-6.0351,-6.1562,-6.1172,-6.2617,-6.3203,-6.1875,-6.4414,-6.5937,-6.5,-6.6133,-6.6914,-6.6914,-6.6914,-6.6914,-6.6914,-6.6914,-6.6914,-6.6914,-6.6914,-6.6914,-6.6914,-6.6914,-6.6211,-6.4922,-6.625,-6.5273,-6.2422,-6.5508,-6.5937,-6.4414,-6.6133,-6.6914,-6.6914,-6.6914,-6.6914,-6.6914,-6.6914,-6.5976,-6.457,-6.4375,-6.332,-6.1992,0.0,0.0,0.0,0.0,0.0,0.0,0.0,0.0,0.0,0.0,-6.0089,-5.9819,-6.0704,-5.9627,-5.9204,0.0,0.0,0.0,0.0,0.0,0.0,-5.9435,-5.9435,-5.9435,-5.9435,-5.905,-5.8858,-5.8858,-5.8473,-5.8319,-5.828,-5.7819,-5.7357,-5.6945,-5.6088,-5.5934,-5.6291,-5.5857,-5.5472,-5.5164,-5.5549,0.0,0.0,0.0,0.0,0.0,-5.5703,-5.5703,0.0,-5.5703,-5.5703,-5.5703,0.0,0.0,0.0,0.0,-5.5703,-5.5703,-5.5703,-5.5703,-5.5895,-5.6703,-5.628,-5.5895,-5.6703,-5.628,-5.6203,-5.7934,-5.844,-5.8588,-5.8627,-5.9607,-6.0137,-5.9207,-5.988,-6.082,-6.1601,-6.25,-6.2773,-6.1797,-6.3359,-6.4453,-6.4297,-6.5898,-6.6914,-6.6914,-6.6914,-6.6914,-6.6914,-6.6914,-6.6914,-6.6914,-6.6914,-6.6914,-6.6914,-6.6914,-6.6015,-6.4336,-6.6055,-6.5508,-6.2969,-6.5664,-6.6406,-6.5508,-6.6055,-6.6523,-6.6875,-6.6484,-6.6523,-6.6875,-6.6445,-6.5469,-6.4258,-6.3867,-6.2851,-6.1719,0.0,0.0,0.0,0.0,0.0,0.0,0.0,0.0,0.0,0.0,0.0,0.0,0.0,0.0,0.0,0.0,0.0,0.0,0.0,0.0,0.0,-6.0781,-6.0781,-6.0781,-6.0781,-6.0089,-5.9704,-5.9704,-5.9011,-5.8665,-5.8665,-5.855,-5.7934,-5.6983,-5.6252,-5.6252,-5.6753,-5.6011,-5.5318,-5.4741,-5.5434,0.0,0.0,0.0,0.0,0.0,0.0,0.0,0.0,-5.5703,-5.5703,-5.5703,-5.5703,0.0,0.0,0.0,0.0,0.0,-5.5703,-5.578,-5.628,-5.7896,-5.6973,-5.6165,-5.7896,-5.6934,-5.628,-5.828,-5.8841,-5.9017,-5.8924,-5.9663,-5.9981,-5.9104,-5.929,-6.0078,-6.1484,-6.1914,-6.1992,-6.1719,-6.2187,-6.2969,-6.418,-6.5898,-6.6914,-6.6914,-6.6914,-6.6914,-6.6914,-6.6914,-6.6914,-6.6914,-6.6914,-6.6914,-6.6914,-6.6914,-6.6015,-6.4336,-6.6055,-6.5976,-6.4375,-6.6094,-6.6914,-6.6875,-6.6133,-6.6211,-6.6836,-6.6094,-6.6211,-6.6797,-6.5937,-6.5078,-6.418,-6.332,-6.2461,-6.1719,0.0,0.0,0.0,0.0,0.0,0.0,0.0,0.0,0.0,0.0,0.0,0.0,0.0,0.0,0.0,0.0,0.0,0.0,0.0,0.0,0.0,-6.0781,-6.0781,-6.0781,-6.0781,-6.0666,-6.0589,-6.0589,-6.0473,-6.0435,-6.0396,-5.9665,-5.8473,-5.6983,-5.6868,-5.6483,-5.5895,-5.5742,-5.5626,-5.5511,-5.5665,0.0,0.0,0.0,0.0,0.0,0.0,0.0,0.0,-5.5703,-5.5703,-5.5703,-5.5703,0.0,0.0,0.0,0.0,0.0,-5.5703,-5.6252,-5.706,-5.805,-5.6973,-5.6165,-5.7896,-5.6934,-5.6588,-5.9742,-6.0437,-6.0538,-6.0738,-6.3114,-6.3755,-5.9793,-6.0351,-6.1406,-6.164,-6.2969,-6.3359,-6.1875,-6.4297,-6.5625,-6.4414,-6.5898,-6.6914,-6.6914,-6.6914,-6.6914,-6.6914,-6.6914,-6.6914,-6.6914,-6.6914,-6.6914,-6.6914,-6.6914,-6.6015,-6.4336,-6.6055,-6.5976,-6.4375,-6.6094,-6.6914,-6.6875,-6.6758,-6.6797,-6.6875,-6.6758,-6.6797,-6.6797,-6.5937,-6.5078,-6.418,-6.332,-6.2461,-6.1719,0.0,0.0,0.0,0.0,0.0,0.0,0.0,0.0,0.0,0.0,0.0,0.0,0.0,0.0,0.0,0.0,0.0,0.0,0.0,-6.0781,-6.0781,-6.0781,-6.0781,-6.0781,-6.0781,-6.0781,-6.0781,-6.0781,-6.0781,-6.0781,-6.0781,-5.9896,-5.9088,-5.8319,-5.7407,-5.6791,-5.6368,-5.5895,-5.5703,-5.5703,0.0,0.0,0.0,0.0,0.0,0.0,0.0,0.0,0.0,0.0,-5.5703,-5.5703,-5.5703,0.0,0.0,0.0,0.0,0.0,-5.5703,-5.5972,-5.6819,-5.9088,-5.8357,-5.778,-6.0396,-5.8973,-5.805,-6.1435,-6.0404,-5.9292,-6.0731,-6.1599,-6.1726,-6.0625,-6.273,-6.418,-6.3242,-6.3789,-6.3984,-6.3203,-6.4531,-6.5195,-6.4375,-6.5898,-6.6914,-6.6914,-6.6914,-6.6914,-6.6914,-6.6914,-6.6914,-6.6914,-6.6914,-6.6914,-6.6914,-6.6914,-6.6015,-6.4336,-6.6055,-6.5976,-6.4375,-6.6094,-6.6914,-6.6875,-6.6406,-6.6445,-6.6875,-6.6406,-6.6484,-6.6758,-6.543,-6.4648,-6.414,-6.2773,-6.2031,-6.1719,0.0,0.0,0.0,0.0,0.0,0.0,0.0,0.0,0.0,0.0,0.0,0.0,0.0,0.0,0.0,0.0,0.0,0.0,0.0,-6.0781,-6.0781,-6.0781,-6.0781,-6.0781,-6.0781,-6.0781,-6.0781,-6.0781,-6.0781,-6.0781,-6.0781,-5.9896,-5.9396,-5.9165,-5.7665,-5.6907,-5.6637,-5.6008,-5.5758,-5.5758,0.0,0.0,0.0,0.0,0.0,0.0,0.0,0.0,0.0,0.0,0.0,0.0,0.0,0.0,0.0,-5.5703,-5.5703,-5.5703,-5.5703,-5.5857,-5.6665,-5.9511,-5.8934,-5.8665,-6.2435,-6.055,-5.9011,-6.2577,-6.0678,-5.8964,-6.1059,-6.0265,-5.9911,-6.1725,-6.4388,-6.5936,-6.5039,-6.4922,-6.4922,-6.4922,-6.4922,-6.4922,-6.4922,-6.6133,-6.6914,-6.6914,-6.6914,-6.6914,-6.6914,-6.6914,-6.6914,-6.6914,-6.6914,-6.6914,-6.6914,-6.6914,-6.6211,-6.4922,-6.625,-6.6211,-6.4961,-6.6289,-6.6914,-6.6875,-6.6172,-6.6289,-6.6836,-6.6172,-6.6172,-6.6445,-6.4883,-6.4062,-6.3515,-6.2187,-6.1719,-6.1719,0.0,0.0,0.0,0.0,0.0,0.0,0.0,0.0,0.0,0.0,0.0,0.0,0.0,0.0,0.0,0.0,0.0,0.0,0.0,-6.0781,-6.0781,-6.0781,-6.0781,-6.0781,-6.0781,-6.0781,-6.0781,-6.0781,-6.0781,-6.0781,-6.0781,-5.9896,-5.9088,-5.8357,-5.7407,-5.656,-5.5801,-5.5843,-5.5899,-5.5899,-5.5899,0.0,0.0,0.0,0.0,0.0,0.0,0.0,0.0,0.0,0.0,0.0,0.0,0.0,-5.5703,-5.5703,-5.5703,-5.5703,-5.5703,-5.6291,-5.7176,-5.8204,-5.7165,-5.7203,-6.2166,-6.0089,-5.828,-6.2435,-6.2447,-6.2078,-6.31,-6.2113,-6.1684,-6.3375,-6.4002,-6.4859,-6.6484,-6.6719,-6.6719,-6.6719,-6.6719,-6.6719,-6.6719,-6.6836,-6.6914,-6.6914,-6.6914,-6.6914,-6.6914,-6.6914,-6.6914,-6.6914,-6.6914,-6.6914,-6.6914,-6.6914,-6.6836,-6.6719,-6.6836,-6.6836,-6.6719,-6.6836,-6.6914,-6.6914,-6.6836,-6.6836,-6.6914,-6.6836,-6.6367,-6.5586,-6.4648,-6.332,-6.1875,-6.1758,-6.1719,-6.1719,0.0,0.0,0.0,0.0,0.0,0.0,0.0,0.0,0.0,0.0,0.0,0.0,0.0,0.0,0.0,0.0,0.0,0.0,-6.0781,-6.0781,-6.0781,-6.0781,-6.0781,-6.0781,-6.0781,-6.0781,-6.0781,-6.0781,-6.0781,-6.0781,-6.0781,-5.9896,-5.9088,-5.828,-5.7496,-5.6646,-5.5843,-5.6022,-5.6104,-5.6104,-5.6104,-5.6104,0.0,0.0,0.0,0.0,0.0,0.0,0.0,0.0,-5.5703,-5.5703,-5.5703,-5.5703,-5.5703,-5.5703,-5.5703,-5.5703,-5.5703,-5.6329,-5.7445,-5.9396,-5.8165,-5.7703,-6.2281,-6.1243,-6.0435,-6.4166,-6.2551,-6.0431,-6.0299,-6.1628,-6.2952,-6.3581,-6.4793,-6.5889,-6.6614,-6.6832,-6.6914,-6.6914,-6.6914,-6.6914,-6.6914,-6.6914,-6.6914,-6.6914,-6.6914,-6.6914,-6.6914,-6.6914,-6.6914,-6.6914,-6.6914,-6.6914,-6.6914,-6.6914,-6.6914,-6.6914,-6.6914,-6.6914,-6.6914,-6.6914,-6.6914,-6.6914,-6.6914,-6.6914,-6.6914,-6.6914,-6.6406,-6.5469,-6.4023,-6.2773,-6.1719,-6.1719,-6.1719,-6.1719,0.0,0.0,0.0,0.0,0.0,0.0,0.0,0.0,0.0,0.0,0.0,0.0,0.0,0.0,0.0,0.0,0.0,0.0,-6.085,-6.0839,-6.0781,-6.0781,-6.0781,-6.0781,-6.0781,-6.0781,-6.0781,-6.0781,-6.0781,-6.0781,-6.0781,-5.9665,-5.8864,-5.8305,-5.728,-5.6498,-5.5991,-5.6197,-5.6256,-5.6256,-5.6256,-5.6256,0.0,0.0,0.0,0.0,0.0,0.0,0.0,0.0,-5.5703,-5.5703,-5.5703,-5.5703,-5.5703,-5.5703,-5.5703,-5.5703,-5.5703,-5.6137,-5.7137,-5.9435,-5.8484,-5.8099,-6.2358,-6.1781,-6.1358,-6.4782,-6.3358,-6.1166,-6.0089,-6.1874,-6.3545,-6.3592,-6.4785,-6.5921,-6.6535,-6.6785,-6.6914,-6.6914,-6.6914,-6.6914,-6.6914,-6.6914,-6.6914,-6.6914,-6.6914,-6.6914,-6.6914,-6.6914,-6.6914,-6.6914,-6.6914,-6.6914,-6.6914,-6.6914,-6.6914,-6.6914,-6.6914,-6.6914,-6.6914,-6.6914,-6.6914,-6.6914,-6.6914,-6.6914,-6.6875,-6.6601,-6.582,-6.4648,-6.3164,-6.2226,-6.1719,-6.1719,-6.1719,-6.1719,0.0,0.0,0.0,0.0,0.0,0.0,0.0,0.0,-6.2695,-6.1797,-6.1582,0.0,0.0,0.0,0.0,0.0,0.0,0.0,-6.0997,-6.0871,-6.0793,-6.0781,-6.0781,-6.0781,-6.0781,-6.0781,-6.0781,-6.0781,-6.0781,-6.0781,-6.0742,-5.9088,-5.8353,-5.8432,-5.6698,-5.6037,-5.6202,-5.6358,-5.643,-5.6391,-5.6391,-5.6391,-5.6383,0.0,0.0,0.0,0.0,0.0,0.0,0.0,-5.5703,-5.5703,-5.5703,-5.5703,-5.5703,-5.5703,-5.5703,-5.5703,-5.5703,-5.5703,-5.6126,-5.7896,-5.7665,-5.8138,-6.232,-6.1358,-6.0473,-6.3897,-6.5282,-6.5359,-6.3589,-6.3308,-6.3388,-6.3555,-6.3711,-6.4465,-6.633,-6.6785,-6.6914,-6.6914,-6.6914,-6.6914,-6.6914,-6.6914,-6.6914,-6.6914,-6.6914,-6.6914,-6.6914,-6.6914,-6.6914,-6.6914,-6.6914,-6.6914,-6.6914,-6.6914,-6.6914,-6.6914,-6.6914,-6.6914,-6.6914,-6.6914,-6.6914,-6.6914,-6.6914,-6.6914,-6.6836,-6.5937,-6.457,-6.289,-6.2031,-6.1719,-6.1719,-6.1719,-6.1719,-6.1719,0.0,0.0,0.0,0.0,0.0,0.0,0.0,0.0,-6.1992,-6.1719,-6.1678,0.0,0.0,0.0,0.0,0.0,0.0,0.0,-6.1014,-6.0973,-6.0884,-6.0793,-6.0781,-6.0781,-6.0781,-6.0781,-6.0781,-6.0781,-6.0781,-6.0473,-5.9858,-5.8896,-5.813,-5.7597,-5.7865,-5.7381,-5.6439,-5.7794,-5.7651,-5.6558,-5.6558,-5.6558,-5.6516,0.0,0.0,0.0,0.0,0.0,0.0,0.0,0.0,0.0,-5.5703,-5.5703,-5.5934,-5.7165,-5.6665,-5.5972,-5.7203,-5.7088,-5.7022,-5.8704,-5.8934,-5.9396,-6.1897,-6.1858,-6.1781,-6.3358,-6.4397,-6.4282,-6.1973,-6.3512,-6.4742,-6.3604,-6.4513,-6.5677,-6.6357,-6.6599,-6.674,-6.6875,-6.6914,-6.6914,-6.6914,-6.6914,-6.6914,-6.6914,-6.6914,-6.6914,-6.6914,-6.6914,-6.6914,-6.6914,-6.6914,-6.6914,-6.6914,-6.6914,-6.6914,-6.6914,-6.6914,-6.6914,-6.6914,-6.6914,-6.6914,-6.6914,-6.6914,-6.6914,-6.6797,-6.5312,-6.4023,-6.289,-6.2031,-6.1719,-6.1719,-6.1719,-6.1719,-6.1719,0.0,0.0,0.0,0.0,0.0,0.0,0.0,0.0,-6.1719,-6.1719,-6.1719,-6.1678,0.0,0.0,0.0,0.0,0.0,0.0,-6.1208,-6.1133,-6.1031,-6.0892,-6.0882,-6.0867,-6.0793,-6.0781,-6.085,-6.0882,-6.085,-6.0376,-5.9559,-5.8827,-5.8095,-5.7385,-5.7747,-5.7382,-5.6545,-5.7693,-5.7578,-5.6601,-5.6601,-5.6601,-5.6601,0.0,0.0,0.0,0.0,0.0,0.0,0.0,0.0,0.0,-5.5707,-5.6165,-5.678,-5.7165,-5.7011,-5.6973,-5.8011,-5.7934,-5.8088,-6.0435,-6.0512,-6.0469,-6.2287,-6.2644,-6.2933,-6.4177,-6.479,-6.4666,-6.3089,-6.4512,-6.5551,-6.4512,-6.5318,-6.6153,-6.6361,-6.6512,-6.6683,-6.6874,-6.6914,-6.6914,-6.6914,-6.6914,-6.6914,-6.6914,-6.6914,-6.6914,-6.6914,-6.6914,-6.6914,-6.6914,-6.6914,-6.6874,-6.6787,-6.6787,-6.674,-6.6717,-6.674,-6.6787,-6.6788,-6.6874,-6.6914,-6.6875,-6.6523,-6.6172,-6.5742,-6.4375,-6.3281,-6.2422,-6.1914,-6.1719,-6.1719,-6.1719,-6.1719,-6.1719,0.0,0.0,-6.625,-6.4609,0.0,0.0,0.0,0.0,-6.1719,-6.1719,-6.1719,-6.1719,0.0,0.0,0.0,0.0,0.0,0.0,0.0,-6.1378,-6.1234,-6.104,-6.1014,-6.0935,-6.0827,-6.0827,-6.0882,-6.0997,-6.0882,-6.039,-5.9581,-5.8861,-5.8162,-5.7476,-5.6901,-5.6623,-5.6601,-5.6758,-5.6758,-5.6601,-5.6601,-5.6601,-5.6601,-5.6601,0.0,0.0,0.0,0.0,0.0,0.0,0.0,0.0,-5.5758,-5.678,-5.778,-5.6357,-5.7049,-5.8319,-5.8511,-5.8434,-5.905,-6.2154,-6.1882,-6.134,-6.3389,-6.3619,-6.3939,-6.5712,-6.5931,-6.582,-6.5897,-6.5897,-6.5897,-6.5897,-6.5992,-6.6174,-6.6361,-6.6503,-6.6675,-6.6874,-6.6914,-6.6914,-6.6914,-6.6914,-6.6914,-6.6914,-6.6914,-6.6914,-6.6914,-6.6914,-6.6914,-6.6914,-6.6875,-6.6788,-6.6616,-6.661,-6.6516,-6.6387,-6.6529,-6.6616,-6.6619,-6.6791,-6.6914,-6.6836,-6.5976,-6.5117,-6.4219,-6.3359,-6.25,-6.1719,-6.1719,-6.1719,-6.1719,-6.1719,-6.1719,-6.1719,0.0,0.0,-6.5547,-6.4492,0.0,0.0,0.0,0.0,0.0,-6.1719,-6.1719,0.0,0.0,0.0,0.0,0.0,0.0,0.0,0.0,-6.1485,-6.1387,-6.124,-6.1089,-6.0979,-6.0963,-6.0963,-6.0991,-6.0997,-6.0991,-6.0265,-5.8907,-5.8861,-5.8028,-5.6704,-5.8036,-5.7851,-5.668,-5.8047,-5.7851,-5.6601,-5.6601,-5.6601,-5.6601,-5.6601,-5.6562,0.0,0.0,0.0,0.0,0.0,0.0,0.0,-5.5758,-5.5972,-5.6434,-5.7434,-5.8011,-5.8588,-5.9896,-5.9319,-5.8627,-5.9973,-6.0622,-6.1819,-6.5054,-6.5123,-6.4803,-6.5867,-6.5468,-6.5089,-6.5782,-6.5897,-6.5897,-6.5897,-6.5921,-6.6035,-6.6341,-6.6418,-6.6564,-6.6873,-6.6914,-6.6914,-6.6914,-6.6914,-6.6914,-6.6914,-6.6914,-6.6914,-6.6914,-6.6914,-6.6914,-6.6914,-6.6742,-6.6634,-6.6616,-6.6493,-6.6423,-6.6387,-6.6529,-6.6616,-6.6619,-6.6791,-6.6914,-6.6836,-6.5976,-6.5117,-6.4219,-6.3359,-6.25,-6.1719,-6.1719,-6.1719,-6.1719,-6.1719,-6.1719,-6.1719,0.0,0.0,0.0,0.0,0.0,0.0,0.0,0.0,0.0,0.0,0.0,0.0,0.0,0.0,0.0,0.0,0.0,0.0,0.0,-6.1585,-6.1522,-6.1392,-6.1246,-6.115,-6.115,-6.115,-6.1193,-6.1238,-6.1238,-6.0383,-5.8815,-5.8864,-5.8043,-5.6548,-5.7538,-5.7461,-5.664,-5.7578,-5.7422,-5.6601,-5.6601,-5.6601,-5.6562,-5.6133,-5.625,-5.6523,-5.6046,0.0,0.0,0.0,0.0,0.0,0.0,0.0,-5.7023,-5.7054,-5.7665,-5.8495,-5.9444,-5.9612,-5.9896,-6.155,-6.271,-6.3865,-6.5421,-6.5659,-6.5701,-6.6159,-6.5719,-6.5359,-6.582,-6.5897,-6.5897,-6.5897,-6.5897,-6.6008,-6.6341,-6.6387,-6.6537,-6.6873,-6.6914,-6.6914,-6.6914,-6.6914,-6.6914,-6.6914,-6.6914,-6.6914,-6.6914,-6.6914,-6.6914,-6.6914,-6.6692,-6.6557,-6.6503,-6.6347,-6.6234,-6.6167,-6.6312,-6.6434,-6.6619,-6.6791,-6.6914,-6.6836,-6.5547,-6.4726,-6.4219,-6.289,-6.2109,-6.1719,-6.1719,-6.1719,-6.1719,-6.1719,-6.1719,-6.1719,0.0,0.0,0.0,0.0,0.0,0.0,0.0,0.0,0.0,0.0,0.0,0.0,0.0,0.0,0.0,0.0,0.0,0.0,0.0,0.0,0.0,-6.1525,-6.1396,-6.1323,-6.1323,-6.1323,-6.1378,-6.1504,-6.1515,-6.0817,-5.9373,-5.9373,-5.8538,-5.7031,-5.7031,-5.6875,-5.6601,-5.6601,-5.6601,-5.6601,-5.6445,-5.6367,-5.6289,-5.539,-5.5508,-5.6055,-5.5312,-5.5625,-5.6367,-5.6216,0.0,0.0,0.0,0.0,-5.7791,-5.6252,-5.6994,-5.8384,-5.8467,-5.964,-6.1423,-6.3857,-6.489,-6.5305,-6.5355,-6.5689,-6.6079,-6.6351,-6.6185,-6.5933,-6.591,-6.5897,-6.5897,-6.5897,-6.5909,-6.6024,-6.6341,-6.6412,-6.656,-6.6873,-6.6914,-6.6914,-6.6914,-6.6914,-6.6914,-6.6914,-6.6914,-6.6914,-6.6914,-6.6914,-6.6914,-6.6914,-6.6683,-6.6512,-6.6387,-6.6191,-6.6003,-6.591,-6.6069,-6.6302,-6.6619,-6.6791,-6.6836,-6.6601,-6.5,-6.4219,-6.3945,-6.2344,-6.1719,-6.1719,-6.1719,-6.1719,-6.1719,-6.1719,-6.1719,-6.1719,0.0,0.0,0.0,0.0,0.0,0.0,0.0,0.0,0.0,0.0,-6.1719,-6.1719,0.0,0.0,-6.1719,-6.1719,-6.1719,-6.1719,-6.1719,0.0,0.0,-6.1679,-6.1527,-6.1485,-6.1485,-6.1485,-6.1491,-6.1504,-6.163,-6.1561,-6.1327,-6.1327,-6.0429,-5.8867,-5.8867,-5.8008,-5.6601,-5.6601,-5.6601,-5.6523,-5.5781,-5.5469,-5.539,-5.4492,-5.4258,-5.4336,-5.4219,-5.4726,-5.5468,-5.5318,-5.5764,0.0,0.0,0.0,-5.6469,-5.6218,-5.7327,-5.8648,-5.8543,-5.9702,-6.1449,-6.3415,-6.2985,-6.2882,-6.5737,-6.5386,-6.484,-6.6287,-6.6295,-6.6028,-6.5921,-6.5897,-6.5897,-6.5897,-6.6019,-6.6156,-6.6361,-6.6498,-6.6634,-6.6874,-6.6914,-6.6914,-6.6914,-6.6914,-6.6914,-6.6914,-6.6914,-6.6914,-6.6914,-6.6914,-6.6914,-6.6914,-6.6588,-6.6412,-6.6387,-6.6088,-6.5909,-6.591,-6.6209,-6.6452,-6.6619,-6.6791,-6.6484,-6.5703,-6.4726,-6.3867,-6.3086,-6.2109,-6.1719,-6.1719,-6.1719,-6.1719,-6.1719,-6.1719,-6.1719,-6.1719,0.0,0.0,0.0,0.0,0.0,0.0,0.0,0.0,0.0,0.0,0.0,-6.1719,-6.1719,-6.1719,-6.1719,-6.1719,-6.1719,-6.1719,-6.1719,-6.1719,-6.1719,-6.1719,-6.1636,-6.1629,-6.1629,-6.1629,-6.1629,-6.1629,-6.1678,-6.2187,-6.3164,-6.3164,-6.1758,-5.9258,-6.0195,-5.9101,-5.664,-5.7656,-5.7226,-5.5859,-5.5469,-5.5312,-5.5156,-5.3789,-5.3867,-5.4609,-5.3633,-5.3828,-5.457,-5.4486,-5.5067,-5.5764,-5.562,0.0,0.0,0.0,-5.6731,-5.7687,-5.9561,-5.9957,-6.0678,-6.4331,-6.3379,-6.2401,-6.5836,-6.5358,-6.4669,-6.6274,-6.6464,-6.6295,-6.6049,-6.5943,-6.5897,-6.5897,-6.6014,-6.6153,-6.6361,-6.6512,-6.6683,-6.6874,-6.6914,-6.6914,-6.6914,-6.6914,-6.6914,-6.6914,-6.6914,-6.6914,-6.6914,-6.6914,-6.6834,-6.6738,-6.6537,-6.6341,-6.6228,-6.6008,-6.5897,-6.591,-6.6138,-6.6334,-6.6493,-6.6163,-6.5852,-6.5547,-6.4687,-6.3828,-6.293,-6.207,-6.1719,-6.1719,-6.1719,-6.1719,-6.1719,-6.1719,-6.1719,-6.1719,0.0,0.0,0.0,0.0,0.0,0.0,0.0,0.0,0.0,0.0,0.0,-6.1719,-6.1719,0.0,0.0,0.0,-6.1719,-6.1719,-6.1719,-6.1719,-6.1719,-6.1719,-6.1719,-6.1719,-6.1719,-6.1719,-6.1719,-6.1719,-6.1719,-6.2383,-6.3633,-6.4101,-6.2695,-5.9883,-6.1133,-6.0273,-5.7969,-5.8828,-5.7969,-5.5976,-5.5976,-5.5547,-5.4805,-5.3281,-5.3516,-5.4453,-5.293,-5.293,-5.3672,-5.3672,-5.4258,-5.4999,-5.5098,-5.5593,0.0,0.0,0.0,-5.6913,-5.9941,-5.9864,-5.9921,-6.4168,-6.3042,-6.1681,-6.4689,-6.4444,-6.41,-6.5677,-6.6319,-6.6533,-6.6266,-6.6079,-6.5943,-6.5943,-6.6079,-6.6244,-6.6429,-6.6592,-6.6738,-6.6875,-6.6914,-6.6914,-6.6914,-6.6914,-6.6914,-6.6914,-6.6914,-6.6914,-6.6914,-6.6914,-6.6791,-6.6619,-6.6468,-6.6298,-6.6109,-6.599,-6.5897,-6.591,-6.6056,-6.6195,-6.6354,-6.5632,-6.5286,-6.5234,-6.4336,-6.3476,-6.2617,-6.1953,-6.1719,-6.1719,-6.1719,-6.1719,-6.1719,-6.1719,-6.1719,-6.1719,0.0,0.0,0.0,0.0,0.0,0.0,0.0,0.0,0.0,0.0,0.0,-6.1719,-6.1719,-6.1719,-6.1719,-6.1719,-6.1719,-6.1719,-6.1719,-6.1719,-6.1719,-6.1719,-6.1719,0.0,-6.1719,-6.1719,-6.1719,-6.1719,-6.1719,-6.1758,-6.1875,-6.3515,-6.332,-6.1562,-6.164,-6.1601,-6.1328,-5.9844,-5.8633,-5.7773,-5.7773,-5.6289,-5.3984,-5.3047,-5.2773,-5.2734,-5.1797,-5.2031,-5.2773,-5.2773,-5.3359,-5.4219,-5.5039,-5.5312,-5.5508,0.0,0.0,0.0,-5.8785,-5.9125,-5.9375,-6.1442,-6.0625,-5.9765,-6.1562,-6.1875,-6.2344,-6.4062,-6.5565,-6.6574,-6.6564,-6.6302,-6.609,-6.609,-6.6252,-6.6429,-6.6557,-6.6743,-6.6875,-6.6914,-6.6914,-6.6914,-6.6914,-6.6914,-6.6914,-6.6914,-6.6914,-6.6914,-6.6914,-6.6914,-6.6791,-6.6619,-6.6468,-6.6298,-6.6109,-6.599,-6.5897,-6.591,-6.6056,-6.6195,-6.6354,-6.5632,-6.4974,-6.4336,-6.3437,-6.2578,-6.1758,-6.1719,-6.1719,-6.1719,-6.1719,-6.1719,-6.1719,-6.1719,-6.1719,-6.1719,0.0,0.0,0.0,0.0,0.0,0.0,0.0,0.0,0.0,0.0,0.0,0.0,0.0,-6.1719,-6.1719,-6.1719,-6.1719,-6.1719,-6.1719,-6.1719,-6.1719,-6.1719,-6.1719,-6.1719,-6.1719,-6.1719,-6.1719,-6.1719,-6.1133,-6.1133,-6.1719,-6.1758,-6.1758,-6.1797,-6.4023,-6.3203,-6.0195,-6.1797,-5.9726,-5.5625,-5.8398,-5.6953,-5.3242,-5.4062,-5.4375,-5.4101,-5.2109,-5.2305,-5.3359,-5.2226,-5.2422,-5.332,-5.418,-5.4844,-5.5469,-5.6328,-5.6561,-5.6909,-5.871,-5.8318,-5.812,-6.0976,-5.9609,-5.8242,-6.1055,-6.1719,-6.1875,-6.25,-6.4841,-6.6429,-6.5217,-6.5615,-6.6126,-6.6268,-6.6347,-6.6441,-6.6564,-6.6785,-6.6914,-6.6914,-6.6914,-6.6914,-6.6914,-6.6914,-6.6914,-6.6914,-6.5859,-6.5703,-6.6836,-6.5859,-6.5609,-6.6439,-6.6418,-6.6275,-6.5963,-6.5921,-6.5897,-6.5897,-6.5943,-6.5848,-6.5524,-6.4722,-6.4031,-6.3437,-6.2539,-6.1992,-6.1719,-6.1719,-6.1719,-6.1719,-6.1719,-6.1719,-6.1719,-6.1719,-6.1719,-6.1719,0.0,0.0,0.0,0.0,0.0,-6.2383,-6.1797,-6.1719,-6.1719,-6.1719,0.0,0.0,0.0,0.0,-6.1719,-6.1719,-6.1719,-6.1719,-6.1719,-6.1719,-6.1719,-6.1719,-6.1719,-6.1719,-6.1719,-6.1719,-6.1562,-6.125,-6.0664,-6.039,-6.043,-6.039,-6.0547,-6.0976,-6.3867,-6.3555,-6.1055,-6.3008,-6.1055,-5.6797,-5.9062,-5.7773,-5.4492,-5.5078,-5.5312,-5.5117,-5.3672,-5.3516,-5.3906,-5.3359,-5.3125,-5.3281,-5.4141,-5.4844,-5.5469,-5.6328,-5.6601,-5.6836,-5.8008,-5.7461,-5.7148,-5.9414,-5.8281,-5.7187,-5.9453,-6.0898,-6.1719,-6.1719,-6.4453,-6.6522,-6.5251,-6.5699,-6.6302,-6.6452,-6.6468,-6.6512,-6.6683,-6.6831,-6.6914,-6.6914,-6.6914,-6.6914,-6.6914,-6.6914,-6.6914,-6.6914,-6.582,-6.5664,-6.6836,-6.5781,-6.5561,-6.636,-6.6307,-6.6109,-6.591,-6.5897,-6.5897,-6.5897,-6.5897,-6.5589,-6.4969,-6.4163,-6.3466,-6.2884,-6.207,-6.1719,-6.1719,-6.1719,-6.1719,-6.1719,-6.1719,-6.1719,-6.1719,-6.1719,-6.1719,-6.1719,0.0,0.0,-6.4023,-6.3203,-6.2305,-6.1719,-6.1719,-6.1719,-6.1719,-6.1719,0.0,0.0,0.0,0.0,0.0,-6.164,-6.164,-6.164,-6.164,-6.164,-6.164,-6.164,-6.164,-6.164,-6.164,-6.164,-6.125,-6.039,-6.0351,-5.9492,-5.793,-5.9531,-5.9883,-5.9219,-6.0898,-6.2578,-6.4101,-6.332,-6.2422,-6.1367,-5.9922,-5.8672,-5.7539,-5.6015,-5.5351,-5.539,-5.6289,-5.5508,-5.4336,-5.6015,-5.543,-5.4141,-5.5,-5.5273,-5.5469,-5.6328,-5.6601,-5.6601,0.0,0.0,0.0,-5.6601,-5.6601,-5.6601,-5.6601,-5.9219,-6.164,-6.164,-6.4414,-6.6836,-6.6836,-6.6701,-6.6619,-6.6619,-6.6619,-6.668,-6.6874,-6.6914,-6.6914,-6.6914,-6.6914,-6.6914,-6.6914,-6.6914,-6.6914,-6.6914,-6.6836,-6.6836,-6.6914,-6.6875,-6.6731,-6.6399,-6.6067,-6.5897,-6.5897,-6.5897,-6.5897,-6.5897,-6.5859,-6.55,-6.4733,-6.4076,-6.3385,-6.2722,-6.2027,-6.1719,-6.1719,-6.1719,-6.1719,-6.1719,-6.1719,-6.1719,-6.1719,-6.1719,-6.1719,-6.1719,0.0,-6.4883,-6.4219,-6.3984,-6.2695,-6.1719,-6.1719,-6.1719,-6.1719,0.0,0.0,0.0,-6.082,-6.0234,-5.9883,-5.9883,-5.9883,-5.9883,-5.9883,-5.9883,-5.9883,-5.9883,-6.0469,-6.0742,-6.0742,-6.0742,-6.0625,-6.039,-5.918,-5.8359,-5.789,-5.7734,-5.7539,-5.7383,-5.9101,-6.0156,-6.0703,-6.2305,-6.0351,-5.6523,-6.1055,-5.8984,-5.3633,-5.75,-5.707,-5.457,-5.6055,-5.6289,-5.5937,-5.6445,-5.543,-5.4023,-5.4297,-5.4805,-5.5469,-5.6328,-5.6601,-5.6601,-5.6601,0.0,0.0,0.0,0.0,0.0,-5.6601,-5.832,-5.9883,-5.9883,-6.2617,-6.5039,-6.5039,-6.6014,-6.6831,-6.6831,-6.669,-6.668,-6.6874,-6.6914,-6.6914,-6.6914,-6.6914,-6.6914,-6.6914,-6.6914,-6.6914,-6.6914,-6.5742,-6.5586,-6.6836,-6.6664,-6.6512,-6.6393,-6.6067,-6.5897,-6.5897,-6.5897,-6.5897,-6.5897,-6.5243,-6.4662,-6.4044,-6.3236,-6.2535,-6.1988,-6.1796,-6.1719,-6.1719,-6.1719,-6.1719,-6.1719,-6.1719,-6.1719,-6.1719,-6.1719,-6.1719,-6.1719,-6.4531,-6.4101,-6.3633,-6.3281,-6.2383,-6.1719,-6.1719,-6.1719,-6.1562,0.0,0.0,0.0,-6.0,-5.9492,-5.9219,-5.9219,-5.9219,-5.9219,-5.9219,-5.9219,-5.9219,-5.9219,-5.9648,-5.9883,-5.9883,-5.9883,-5.9726,-5.9375,-5.8398,-5.7695,-5.7344,-5.6836,-5.6601,-5.664,-5.7656,-5.8125,-5.8203,-5.9645,-5.906,-5.7422,-5.9903,-5.8804,-5.5927,-5.8699,-5.8231,-5.6279,-5.8085,-5.8281,-5.7773,-5.8476,-5.7109,-5.5156,-5.5508,-5.5234,-5.5078,-5.668,-5.6875,-5.6601,-5.6601,-5.6601,-5.6601,-5.6601,0.0,0.0,-5.6601,-5.8476,-6.0234,-6.0234,-6.3008,-6.5156,-6.4414,-6.5117,-6.582,-6.582,-6.5735,-6.5925,-6.6797,-6.6914,-6.6914,-6.6914,-6.6914,-6.6914,-6.6914,-6.6914,-6.6914,-6.6914,-6.5976,-6.582,-6.6836,-6.6576,-6.6387,-6.6387,-6.6067,-6.5897,-6.5897,-6.5897,-6.5897,-6.5897,-6.5013,-6.4293,-6.3689,-6.288,-6.218,-6.1631,-6.1679,-6.1719,-6.1719,-6.1719,-6.1719,-6.1719,-6.1719,-6.1719,-6.1719,-6.1719,-6.1719,-6.1719,0.0,-6.2888,-6.2576,-6.1794,-6.1482,-6.1365,-6.1365,-6.1365,-6.1091,0.0,-6.0155,-5.9843,-5.9101,-5.8945,-5.8906,-5.8906,-5.8906,-5.8906,-5.8906,-5.8906,-5.8906,-5.8906,-5.8984,-5.9062,-5.9062,-5.9062,-5.8672,-5.789,-5.7812,-5.7344,-5.6601,-5.6601,-5.6601,-5.6601,-5.6601,-5.6601,-5.6561,-5.622,-5.8022,-6.0815,-5.7732,-5.8252,-6.0786,-5.9612,-5.8946,-5.8841,-6.093,-6.0585,-5.9413,-6.0898,-5.9414,-5.6953,-5.7461,-5.6015,-5.457,-5.6797,-5.6992,-5.6445,-5.6445,-5.6523,-5.6601,-5.6601,-5.6601,0.0,-5.6601,-5.8945,-6.1172,-6.1367,-6.3906,-6.5625,-6.4258,-6.4023,-6.4023,-6.4023,-6.4023,-6.4609,-6.6367,-6.6797,-6.6836,-6.664,-6.6797,-6.6914,-6.6914,-6.6914,-6.6914,-6.6914,-6.6914,-6.6914,-6.6914,-6.6588,-6.6406,-6.6387,-6.6098,-6.5935,-6.5897,-6.5897,-6.5859,-6.5743,-6.4859,-6.4111,-6.3464,-6.2723,-6.207,-6.152,-6.1637,-6.1719,-6.1719,-6.1719,-6.1719,-6.1719,-6.1719,-6.1719,-6.1719,-6.1719,-6.1719,-6.1719,-6.2682,-6.2123,-6.1582,-6.1426,-6.0218,-5.9282,-5.9282,-5.9282,-5.9204,-5.9049,-5.8565,-5.8168,-5.8011,-5.7455,-5.7109,-5.7109,-5.7109,-5.7109,-5.7109,-5.7109,-5.7109,-5.7109,-5.7773,-5.8164,-5.8164,-5.8164,-5.8086,-5.789,-5.7187,-5.6758,-5.6601,-5.6601,-5.6601,-5.6601,-5.6601,-5.6558,-5.6328,-5.4812,-5.5368,-5.7334,-5.7941,-5.7803,-5.7409,-5.9882,-5.9098,-5.7079,-6.0363,-6.0429,-5.9031,-5.9529,-5.9258,-5.8359,-5.6406,-5.5469,-5.5,-5.4805,-5.5156,-5.5547,-5.5547,-5.6055,-5.6601,-5.6601,-5.6601,0.0,-5.6601,-5.7109,-5.8008,-5.9414,-6.0234,-6.1015,-6.2031,-6.2226,-6.2226,-6.2226,-6.2226,-6.2812,-6.457,-6.6015,-6.6367,-6.4961,-6.6055,-6.6914,-6.6914,-6.6914,-6.6914,-6.6914,-6.6914,-6.6914,-6.6914,-6.6683,-6.6507,-6.6393,-6.6191,-6.6003,-6.591,-6.5897,-6.5551,-6.4859,-6.3974,-6.3243,-6.2704,-6.1888,-6.1573,-6.1677,-6.1679,-6.1719,-6.1719,-6.1719,-6.1719,-6.1719,-6.1719,-6.1719,-6.1719,-6.1719,-6.1719,-6.1719,-6.1968,-6.1262,-6.0645,-6.0645,-5.9555,-5.8704,-5.8704,-5.8704,-5.8543,-5.8115,-5.7424,-5.6952,-5.6952,-5.6602,-5.6445,-5.6508,-5.651,-5.6517,-5.6601,-5.6601,-5.6601,-5.6601,-5.7031,-5.7265,-5.7265,-5.7265,-5.7265,-5.7265,-5.6797,-5.6601,-5.6601,-5.6601,-5.6561,-5.651,-5.651,-5.617,-5.5541,-5.4097,-5.4265,-5.554,-5.6722,-5.7226,-5.7564,-6.018,-6.0056,-5.8789,-6.0716,-6.0878,-6.0107,-5.9411,-5.9219,-5.8984,-5.7656,-5.6367,-5.5195,-5.4765,-5.4648,-5.4765,-5.5195,-5.5625,-5.6055,-5.6484,-5.6601,0.0,0.0,-5.7265,-5.8125,-5.9023,-5.9844,-6.0469,-6.0469,-6.0469,-6.0469,-6.0469,-6.0469,-6.0742,-6.164,-6.3984,-6.5586,-6.5586,-6.6367,-6.6914,-6.6914,-6.6914,-6.6914,-6.6914,-6.6914,-6.6914,-6.6914,-6.6694,-6.6533,-6.6393,-6.6195,-6.6056,-6.591,-6.5897,-6.5474,-6.4589,-6.3743,-6.2969,-6.2393,-6.1635,-6.14,-6.1588,-6.1678,-6.1719,-6.1719,-6.1719,-6.1719,-6.1719,-6.1719,-6.1719,-6.1719,-6.1719,-6.1719,-6.1719,-6.1186,-6.0377,-5.9691,-5.9691,-5.8798,-5.8104,-5.8104,-5.8104,-5.7871,-5.7165,-5.6523,-5.6263,-5.6613,-5.637,-5.6354,-5.6826,-5.6833,-5.6748,-5.6559,-5.6872,-5.6913,-5.6601,-5.6601,-5.6601,-5.6601,-5.6601,-5.6601,-5.6601,-5.6601,-5.6601,-5.6601,-5.6601,-5.6558,-5.6448,-5.6397,-5.6032,-5.533,-5.4315,-5.4359,-5.5191,-5.5912,-5.6926,-5.8196,-6.0199,-6.0779,-6.0536,-6.1063,-6.1359,-6.1278,-5.9678,-5.9179,-5.914,-5.8828,-5.7031,-5.5039,-5.5039,-5.4414,-5.3906,-5.4609,-5.5039,-5.5469,-5.6172,-5.6484,-5.6601,0.0,0.0,0.0,-5.8711,-5.9765,-6.0312,-5.8945,-5.8711,-5.8711,-5.8711,-5.8711,-5.8828,-5.914,-6.1562,-6.3828,-6.5234,-6.5703,-6.5898,-6.5898,-6.6211,-6.6523,-6.6875,-6.6914,-6.6914,-6.6914,-6.6742,-6.6592,-6.6393,-6.6236,-6.6069,-6.591,-6.5743,-6.5205,-6.4359,-6.3474,-6.2701,-6.2043,-6.1518,-6.1364,-6.1507,-6.1635,-6.1719,-6.1719,-6.1719,-6.1719,-6.1719,-6.1719,-6.1719,-6.1719,-6.1719,-6.1719,-6.1719,-6.0845,-5.9573,-5.8494,-5.8494,-5.7117,-5.6038,-5.6038,-5.6038,-5.6,-5.5923,-5.5917,-5.6536,-5.8078,-5.7036,-5.6814,-5.8298,-5.8454,-5.7853,-5.6514,-5.7799,-5.802,-5.664,-5.6601,-5.6601,-5.6601,-5.6601,-5.6601,-5.6601,-5.6601,-5.6601,-5.6601,-5.6601,-5.6601,-5.6561,-5.6454,-5.6652,-5.7031,-5.6047,-5.6036,-5.6795,-5.7676,-5.7225,-5.6372,-5.9606,-5.9914,-5.883,-6.0449,-6.1232,-6.1231,-5.9519,-5.9047,-5.8945,-5.7383,-5.5625,-5.4141,-5.4141,-5.3516,-5.2851,-5.2969,-5.4101,-5.5312,-5.543,-5.6015,-5.6601,-5.6601,0.0,-5.6914,-5.6914,0.0,-5.7109,-5.6914,0.0,0.0,-5.6914,-5.6914,-5.7422,-5.8984,-5.9531,-5.9844,-6.0039,-6.1406,-6.2305,-6.2305,-6.3672,-6.5234,-6.6797,-6.6914,-6.6914,-6.6914,-6.6874,-6.6727,-6.6399,-6.6368,-6.6209,-6.591,-6.5128,-6.432,-6.3435,-6.2627,-6.1863,-6.1161,-6.1246,-6.1364,-6.1507,-6.1635,-6.1719,-6.1719,-6.1719,-6.1719,-6.1719,-6.1719,-6.1719,-6.1719,-6.1719,-6.1719,-6.1719,-6.0781,-5.9435,-5.8319,-5.8319,-5.6857,-5.5703,-5.5703,-5.5703,-5.5703,-5.5703,-5.5768,-5.6445,-5.8181,-5.7814,-5.8114,-5.9887,-6.0011,-5.9781,-5.9202,-5.8939,-5.8523,-5.7942,-5.701,-5.6515,-5.6601,-5.6601,-5.6601,-5.6601,-5.6601,-5.6601,-5.6601,-5.6601,-5.6515,-5.6371,-5.6293,-5.6347,-5.6407,-5.5961,-5.5961,-5.6291,-5.6626,-5.6357,-5.6049,-5.9511,-6.0358,-5.9738,-5.9611,-6.0251,-6.0798,-5.8194,-5.8757,-6.0059,-5.7329,-5.6051,-5.5508,-5.5508,-5.3828,-5.2266,-5.3789,-5.4726,-5.5547,-5.6562,-5.707,-5.75,-5.8008,-5.7344,-5.6601,-5.6601,0.0,0.0,0.0,0.0,0.0,0.0,-5.6601,-5.6875,-5.7578,-5.7695,-5.8437,-6.039,-6.1289,-6.2109,-6.3125,-6.2969,-6.3515,-6.5273,-6.539,-6.539,-6.539,-6.6367,-6.6735,-6.6399,-6.6387,-6.6234,-6.591,-6.5051,-6.4166,-6.3269,-6.2474,-6.1659,-6.0913,-6.1158,-6.1323,-6.1387,-6.1629,-6.1719,-6.1719,-6.1719,-6.1719,-6.1719,-6.1719,-6.1719,-6.1719,-6.1719,-6.1719,-6.1719,-6.0165,-5.9319,-5.855,-5.8357,-5.7049,-5.5972,-5.5742,-5.6126,-5.6395,-5.6395,-5.6395,-5.7088,-5.8819,-5.8165,-5.8473,-6.0741,-6.0945,-6.1009,-6.1133,-6.0021,-5.9398,-5.9529,-5.7482,-5.6617,-5.7168,-5.6741,-5.6507,-5.6507,-5.6507,-5.6507,-5.6507,-5.6507,-5.6386,-5.6191,-5.5919,-5.5792,-5.5778,-5.5966,-5.6203,-5.6434,-5.6896,-5.7088,-5.7319,-5.9319,-6.0396,-6.065,-5.9523,-5.9957,-6.0558,-5.7786,-5.8559,-6.0293,-5.7804,-5.6787,-5.6546,-5.7064,-5.5112,-5.3199,-5.5117,-5.582,-5.6211,-5.6992,-5.7539,-5.793,-5.8086,-5.7344,-5.6601,-5.6601,-5.6601,0.0,0.0,0.0,-5.6601,-5.6601,0.0,-5.6601,-5.6601,-5.6601,-5.7539,-6.0,-6.0703,-6.1523,-6.2773,-6.2187,-6.2226,-6.3476,-6.4023,-6.4297,-6.4297,-6.5937,-6.6735,-6.6399,-6.6387,-6.6118,-6.5564,-6.4666,-6.382,-6.2974,-6.2127,-6.1408,-6.0804,-6.1159,-6.1283,-6.1301,-6.1582,-6.1719,-6.1719,-6.1719,-6.1719,-6.1719,-6.1719,-6.1719,-6.1719,-6.1719,-6.1719,-6.1719,-5.855,-5.8973,-5.9204,-5.8434,-5.755,-5.6676,-5.5818,-5.7126,-5.8204,-5.8204,-5.8204,-5.8858,-6.055,-5.778,-5.7137,-6.0523,-6.0793,-6.0877,-6.1,-6.097,-6.0987,-6.1136,-5.7976,-5.6975,-5.8599,-5.7053,-5.6207,-5.6207,-5.6207,-5.6207,-5.6207,-5.6207,-5.6202,-5.6147,-5.5176,-5.5157,-5.593,-5.6665,-5.7434,-5.8357,-5.9973,-6.0627,-6.0473,-5.8973,-5.9396,-6.0781,-6.0754,-6.0825,-6.0726,-5.9005,-5.8598,-5.8782,-5.8665,-5.7453,-5.6469,-5.8276,-5.7596,-5.6285,-5.6482,-5.7187,-5.7422,-5.5781,-5.664,-5.7461,-5.5781,-5.6015,-5.6601,-5.6601,-5.6601,-5.6601,-5.6601,-5.6601,-5.6601,-5.6601,-5.6601,0.0,0.0,-5.6601,-5.664,-5.6758,-5.8242,-5.9297,-5.9375,-6.0781,-6.1719,-6.1797,-6.3359,-6.4297,-6.4297,-6.5937,-6.6735,-6.6399,-6.6387,-6.5816,-6.4628,-6.3782,-6.2935,-6.2139,-6.1243,-6.0819,-6.0804,-6.1159,-6.1283,-6.1301,-6.1582,-6.1719,-6.1719,-6.1719,-6.1719,-6.1719,-6.1719,-6.1719,-6.1719,-6.1719,-6.1719,-6.1719,-5.8588,-5.8511,-5.8434,-5.7588,-5.6703,-5.6049,-5.5742,-5.6203,-5.6973,-5.8165,-5.8319,-5.9358,-6.2166,-6.1435,-6.1204,-6.2358,-6.3512,-6.3703,-6.2601,-6.2524,-6.2565,-6.2723,-6.0569,-5.9163,-5.8698,-5.8159,-5.7309,-5.6191,-5.6191,-5.6191,-5.6191,-5.6191,-5.6141,-5.5945,-5.5072,-5.5114,-5.5837,-5.6631,-5.7511,-5.8357,-5.8934,-5.9165,-5.9204,-5.9742,-6.0319,-6.0781,-6.0781,-6.0811,-6.0629,-5.8911,-5.9204,-6.0011,-5.8932,-5.8227,-5.8159,-5.9976,-5.8462,-5.6494,-5.7768,-5.8332,-5.8575,-5.8671,-5.8281,-5.8047,-5.8555,-5.7148,-5.5898,-5.6484,-5.6601,-5.6601,-5.6601,-5.6601,-5.6601,-5.6601,-5.6601,-5.6601,0.0,-5.6094,-5.5742,-5.5742,-5.6758,-5.793,-5.9101,-5.8672,-5.8789,-5.9961,-6.0586,-6.0937,-6.0937,-6.3633,-6.5106,-6.4887,-6.5857,-6.584,-6.4742,-6.3773,-6.2897,-6.2101,-6.1216,-6.0856,-6.0954,-6.104,-6.1208,-6.1421,-6.1517,-6.1631,-6.1719,-6.1719,-6.1719,-6.1719,-6.1719,-6.1719,-6.1719,-6.1719,-6.1719,-6.1719,-5.778,-5.7627,-5.7665,-5.7099,-5.6291,-5.5895,-5.6511,-5.6626,-5.7473,-5.9781,-5.955,-6.0242,-6.3012,-6.2781,-6.2666,-6.3231,-6.3782,-6.4128,-6.4205,-6.2551,-6.2363,-6.4265,-6.1571,-6.0142,-6.032,-5.9165,-5.832,-5.7823,-5.6628,-5.6318,-5.6939,-5.6318,-5.5785,-5.5379,-5.4538,-5.4216,-5.4434,-5.5895,-5.6857,-5.7434,-5.805,-5.8665,-5.9242,-5.9742,-6.0281,-6.0781,-6.0781,-6.0781,-6.0627,-5.955,-5.9952,-6.0751,-5.9669,-5.9374,-5.9693,-6.0861,-5.9587,-5.8137,-5.9425,-5.9732,-5.9747,-5.9802,-5.9226,-5.8842,-5.9677,-5.839,-5.73,-5.8203,-5.8398,-5.8242,-5.7617,-5.7539,-5.7305,-5.6719,-5.6601,-5.6484,0.0,-5.5664,-5.5195,-5.4883,-5.6133,-5.7265,-5.7773,-5.7656,-5.7734,-5.8242,-5.8867,-5.9219,-5.9219,-6.2422,-6.4251,-6.4115,-6.5338,-6.5498,-6.4449,-6.3467,-6.2519,-6.172,-6.1108,-6.0845,-6.0916,-6.1048,-6.1208,-6.1421,-6.152,-6.1631,-6.1719,-6.1719,-6.1719,-6.1719,-6.1719,-6.1719,-6.1719,-6.1719,-6.1719,-6.1719,-5.6203,-5.6368,-5.6945,-5.6945,-5.6329,-5.6395,-5.805,-5.8357,-5.9588,-6.2781,-6.1858,-6.1512,-6.3115,-6.1935,-6.1627,-6.3051,-6.1781,-6.2281,-6.5436,-6.1204,-6.0742,-6.5667,-6.1243,-6.0127,-6.3231,-6.0204,-5.9281,-6.0781,-5.7473,-5.6665,-5.828,-5.6511,-5.528,-5.4472,-5.3587,-5.2731,-5.2077,-5.4626,-5.5742,-5.5972,-5.755,-5.9165,-6.0512,-5.8896,-5.9358,-6.0781,-6.0781,-6.0781,-6.0781,-6.0781,-6.0781,-6.0781,-6.0781,-6.0781,-6.0839,-6.0954,-6.0979,-6.1031,-6.1227,-6.1277,-6.0882,-5.9242,-5.9404,-5.9755,-5.9092,-5.9583,-6.0427,-6.1404,-6.168,-6.1211,-5.9609,-5.9258,-5.8672,-5.6992,-5.664,-5.6289,-5.543,-5.5273,-5.4922,-5.4023,-5.6133,-5.7031,-5.5469,-5.7539,-5.8359,-5.6719,-5.8125,-5.9101,-5.9219,-6.2265,-6.4057,-6.4121,-6.4704,-6.4657,-6.3831,-6.2734,-6.1763,-6.0997,-6.085,-6.0793,-6.0827,-6.1143,-6.1277,-6.1312,-6.1577,-6.1679,-6.1719,-6.1719,-6.1719,-6.1719,-6.1719,-6.1719,-6.1719,-6.1719,-6.1719,-6.1719,-5.6088,-5.5857,-5.6011,-5.6011,-5.6934,-5.778,-5.8242,-5.9358,-6.0473,-6.132,-6.2166,-6.282,-6.3231,-6.4089,-6.3743,-6.1627,-6.2204,-6.2512,-6.2127,-6.205,-6.3166,-6.5782,-6.4666,-6.3743,-6.3308,-6.2462,-6.1627,-6.0781,-5.8665,-5.7857,-5.828,-5.6511,-5.528,-5.4472,-5.3587,-5.2731,-5.2077,-5.4626,-5.6434,-5.755,-5.6703,-5.7396,-5.8896,-5.8473,-5.9358,-6.0781,-6.0781,-6.0781,-6.0781,-6.0781,-6.0781,-6.0781,-6.0781,-6.0781,-6.0804,-6.0845,-6.0867,-6.0882,-6.1023,-6.1081,-6.1004,-6.0708,-5.9832,-5.9137,-5.961,-5.9459,-5.9474,-6.0393,-6.1165,-6.1562,-6.1133,-6.0039,-5.9062,-5.8594,-5.7461,-5.6289,-5.543,-5.4726,-5.4023,-5.3125,-5.3633,-5.4375,-5.5234,-5.5898,-5.6367,-5.6562,-5.6992,-5.7812,-5.914,-6.0039,-6.1679,-6.4176,-6.2464,-6.2308,-6.401,-6.1592,-6.0583,-6.0997,-6.085,-6.0867,-6.0944,-6.0915,-6.1105,-6.1467,-6.1404,-6.1512,-6.1719,-6.1719,-6.1719,-6.1719,-6.1719,-6.1719,-6.1719,-6.1719,-6.1719,-6.1719,-5.6049,-5.5703,-5.5703,-5.5703,-5.7742,-5.9396,-5.9396,-6.0204,-6.132,-6.282,-6.3205,-6.3589,-6.4359,-6.532,-6.5128,-6.3205,-6.2512,-6.2435,-6.2974,-6.182,-6.2551,-6.5743,-6.5166,-6.432,-6.332,-6.3308,-6.2858,-6.1897,-5.9473,-5.8665,-5.9358,-5.6857,-5.5049,-5.3895,-5.3433,-5.251,-5.1587,-5.4472,-5.6703,-5.8204,-5.7242,-5.7857,0.0,-5.8588,-5.9358,-6.0781,-6.0781,-6.0781,-6.0781,-6.0781,-6.0781,-6.0781,-6.0781,-6.0781,-6.0781,-6.0781,-6.0781,-6.0827,-6.0874,-6.0915,-6.0945,-6.1044,-6.0326,-5.9847,-6.0801,-6.0663,-6.0744,-6.205,-6.2842,-6.3192,-6.2839,-6.1403,-5.9805,-5.832,-5.7226,-5.6172,-5.4922,-5.5273,-5.4805,-5.2422,-5.3125,-5.3906,-5.4141,-5.4492,-5.5078,-5.5976,-5.5664,-5.6211,-5.7969,-5.9101,-6.0273,-6.1445,-6.1084,-6.1034,-6.1387,-5.9238,-5.8784,-5.9995,-5.9783,-6.014,-6.0915,-6.0913,-6.1073,-6.1396,-6.1323,-6.1432,-6.1719,-6.1634,-6.1636,-6.1719,-6.1719,-6.1719,-6.1719,-6.1719,-6.1719,-6.1719,-5.6049,-5.5703,-5.578,-5.6011,-5.8511,-6.0627,-6.105,-6.132,-6.2435,-6.5205,-6.4436,-6.4128,-6.5436,-6.5743,-6.582,-6.559,-6.282,-6.2397,-6.5359,-6.1396,-6.105,-6.5705,-6.4436,-6.3628,-6.3628,-6.3628,-6.3628,-6.3628,-6.0281,-5.9358,-6.0704,-5.7203,-5.4703,-5.3203,-5.3087,-5.2395,-5.152,-5.4241,-5.6511,-5.8319,-5.8319,-5.9165,-6.0319,-5.9088,-5.9511,-6.0781,-6.0781,-6.0781,-6.0781,-6.0781,-6.0781,-6.0781,-6.0781,-6.0781,-6.0781,-6.0781,-6.0781,-6.0781,-6.0781,-6.0781,-6.0781,-6.0781,-6.0781,-6.1015,-6.1892,-6.2198,-6.2779,-6.4545,-6.5163,-6.5159,-6.4528,-6.2906,-6.0585,-5.7305,-5.6562,-5.582,-5.4062,-5.6094,-5.6172,-5.1914,-5.3711,0.0,-5.2695,-5.332,-5.4258,-5.5234,-5.4609,-5.4961,-5.6836,-5.8828,-5.9375,-5.8242,-6.0038,-6.0116,-5.8242,-5.6847,-5.7136,-5.9048,-5.853,-5.9165,-6.0793,-6.0925,-6.1081,-6.1253,-6.1253,-6.1404,-6.1635,-6.1515,-6.1568,-6.1679,-6.1679,-6.1679,-6.1679,-6.1679,-6.1679,-6.1679,-5.6049,-5.5703,-5.6165,-5.7588,-5.8357,-5.9665,-6.2435,-6.4089,-6.4705,-6.3858,-6.4743,-6.5013,-6.3897,-6.5051,-6.532,-6.3897,-6.3205,-6.3128,-6.3743,-6.2923,-6.3474,-6.5782,-6.559,-6.5436,-6.5436,-6.5436,-6.5436,-6.5436,-6.2012,-6.0512,-6.0704,-5.6626,-5.4164,-5.3164,-5.2462,-5.3126,-5.478,-5.3972,-5.5434,-5.8319,-5.8319,-5.8473,-5.8858,-5.9935,-6.055,-6.0781,-6.0781,-6.0781,-6.0781,-6.0781,-6.0781,-6.0781,-6.0781,-6.0781,-6.0781,-6.0781,-6.0781,-6.0781,-6.0781,-6.0781,-6.0781,-6.0781,-6.0781,-6.0843,-6.1015,-6.1717,-6.2581,-6.3654,-6.457,-6.5345,-6.5884,-6.3565,-6.0675,-5.8085,-5.6484,-5.4922,-5.3164,-5.5195,-5.5469,-5.1836,-5.3711,-5.4336,-5.1875,-5.2422,-5.3594,-5.5195,-5.5156,-5.6133,-5.8594,-5.7812,-5.8086,-5.9883,-5.8263,-5.8183,-5.9922,-5.7302,-5.7596,-6.081,-5.9128,-5.9165,-6.0781,-6.08,-6.0905,-6.1056,-6.1056,-6.1154,-6.1359,-6.1334,-6.14,-6.1522,-6.1522,-6.1522,-6.1522,-6.1522,-6.1522,-6.1568,-5.7203,-5.6319,-5.5972,-5.678,-5.8434,-6.0127,-6.1743,-6.4205,-6.559,-6.4743,-6.5397,-6.559,-6.4743,-6.5397,-6.5551,-6.4705,-6.382,-6.3666,-6.4589,-6.382,-6.4089,-6.582,-6.5897,-6.5474,-6.4589,-6.5436,-6.5474,-6.4551,-6.2012,-6.0781,-6.0704,-5.6472,-5.4049,-5.3164,-5.2769,-5.328,-5.4472,-5.5434,-5.6819,-5.8396,-5.9242,-5.9588,-5.9665,-6.0473,-6.0781,-6.0781,-6.0781,-6.0781,-6.0781,-6.0781,-6.0781,-6.0781,-6.0781,-6.0781,-6.0781,-6.0781,-6.0781,-6.0781,-6.0781,-6.0781,-6.0781,-6.0781,-6.0781,-6.0781,-6.0781,-6.1175,-6.1783,-6.2622,-6.361,-6.445,-6.4961,-6.3847,-6.2158,-5.9963,-5.7896,-5.608,-5.4745,-5.5688,-5.5736,-5.3672,-5.5742,-5.6289,-5.3672,-5.3789,-5.4219,-5.4609,-5.3789,-5.4414,-5.7031,-5.6367,-5.6444,-5.76,-5.7221,-5.7395,-5.8175,-5.6673,-5.7226,-5.9854,-5.878,-5.9165,-6.0781,-6.0781,-6.0871,-6.0997,-6.0945,-6.1053,-6.1283,-6.1283,-6.1328,-6.1387,-6.1387,-6.1387,-6.1387,-6.1387,-6.1387,-6.1413,-5.8819,-5.7742,-5.6896,-5.7242,-5.9242,-6.105,-6.1781,-6.3858,-6.5474,-6.5859,-6.5897,-6.5897,-6.5897,-6.5897,-6.5743,-6.5397,-6.4436,-6.4128,-6.4782,-6.4205,-6.432,-6.5282,-6.5705,-6.5243,-6.3897,-6.5205,-6.5243,-6.3858,-6.2166,-6.105,-6.0435,-5.6549,-5.4203,-5.3241,-5.3587,-5.3933,-5.4472,-5.7165,-5.8511,-5.8934,-6.0281,-6.0781,-6.0781,-6.0781,-6.0781,-6.0781,-6.0781,-6.0781,-6.0781,-6.0781,-6.0781,-6.0781,-6.0781,-6.0781,-6.0781,-6.0781,-6.0781,-6.0781,-6.0781,-6.0781,-6.0781,-6.0781,-6.0781,-6.0781,-6.0781,-6.0781,-6.105,-6.1908,-6.3025,-6.3863,-6.3983,-6.3971,-6.3249,-6.1078,-5.8819,-5.6845,-5.5438,-5.5728,-5.5909,-5.5348,-5.7109,-5.7578,-5.5508,-5.4805,-5.4258,-5.375,-5.2461,-5.2891,-5.5703,-5.5312,-5.5152,-5.5391,-5.6455,-5.6753,-5.6163,-5.5971,-5.6932,-5.9026,-5.8526,-5.9165,-6.0781,-6.0781,-6.0877,-6.0954,-6.0856,-6.0963,-6.1218,-6.122,-6.1234,-6.1234,-6.1234,-6.1234,-6.1234,-6.1234,-6.1234,-6.1277,-6.055,-6.0435,-6.0781,-6.232,-6.1589,-6.182,-6.4936,-6.4359,-6.4128,-6.5705,-6.5897,-6.5897,-6.5897,-6.5897,-6.5243,-6.3666,-6.4859,-6.4397,-6.1473,-6.4012,-6.5013,-6.3628,-6.5051,-6.582,-6.5667,-6.582,-6.582,-6.5667,-6.3935,-6.1897,-5.955,-5.6857,-5.4741,-5.328,-5.478,-5.6357,-5.7857,-5.8165,-5.9165,-6.0589,-6.0742,-6.0781,-6.0781,-6.0781,-6.0781,-6.0781,-6.0781,-6.0781,-6.0781,-6.0781,-6.0781,-6.0781,-6.0781,-6.0781,-6.0781,-6.0781,-6.0781,-6.0781,-6.0781,-6.0781,-6.0781,-6.0781,-6.0781,-6.0781,-6.0781,-6.0781,-6.105,-6.1908,-6.3383,-6.454,-6.4667,-6.4084,-6.2572,-5.9611,-5.7511,-5.519,-5.2127,-5.3704,-5.5192,-5.512,-5.5424,-5.5586,-5.5312,-5.3164,-5.207,-5.2773,-5.2656,-5.4062,-5.7461,-5.539,-5.4844,-5.6406,-5.5613,-5.555,-5.6368,-5.5924,-5.7419,-6.0765,-5.9076,-5.9165,-6.0781,-6.0781,-6.0804,-6.0827,-6.0793,-6.0816,-6.0856,-6.0982,-6.1031,-6.1031,-6.1031,-6.1031,-6.1031,-6.1031,-6.1031,-6.1065,-6.232,-6.1473,-6.1012,-6.1666,-6.2089,-6.2781,-6.4128,-6.4628,-6.5128,-6.582,-6.5897,-6.5897,-6.5897,-6.5897,-6.5628,-6.4936,-6.5513,-6.532,-6.3935,-6.5128,-6.559,-6.4897,-6.5513,-6.5897,-6.5897,-6.5897,-6.5897,-6.5897,-6.3166,-6.1012,-5.9435,-5.6896,-5.5318,-5.478,-5.6472,-5.7665,-5.8357,-5.9358,-6.0204,-6.0781,-6.0781,-6.0781,-6.0781,-6.0781,-6.0781,-6.0781,-6.0781,-6.0781,-6.0781,-6.0781,-6.0781,-6.0781,-6.0781,-6.0781,-6.0781,-6.0781,-6.0781,-6.0781,-6.0781,-6.0781,-6.0781,-6.0781,-6.0781,-6.0781,-6.0781,-6.0781,-6.0896,-6.1243,-6.2281,-6.3407,-6.4486,-6.4443,-6.3514,-6.1186,-6.0274,-5.8814,-5.5993,-5.6472,-5.772,-5.9363,-5.825,-5.7921,-5.9471,-5.5972,-5.373,-5.4074,-5.273,-5.2539,-5.3906,-5.3935,-5.4429,-5.5679,-5.5112,-5.6181,-5.9121,-5.7371,-5.7961,-6.0882,-6.0145,-6.0165,-6.0781,-6.0781,-6.0781,-6.0781,-6.0781,-6.0781,-6.0793,-6.0877,-6.0882,-6.0882,-6.0882,-6.0882,-6.0882,-6.0882,-6.0882,-6.0902,-6.4051,-6.3128,-6.2281,-6.2281,-6.3281,-6.3897,-6.3397,-6.4782,-6.5705,-6.5205,-6.559,-6.5897,-6.5897,-6.5897,-6.5705,-6.5166,-6.559,-6.5474,-6.4474,-6.532,-6.5667,-6.5166,-6.5628,-6.5897,-6.5897,-6.5897,-6.5897,-6.5897,-6.3243,-6.1204,-5.9819,-5.755,-5.6472,-5.6549,-5.828,-5.905,-5.9127,-6.0281,-6.0781,-6.0781,-6.0781,-6.0781,-6.0781,-6.0781,-6.0781,-6.0781,-6.0781,-6.0781,-6.0781,-6.0781,-6.0781,-6.0781,-6.0781,-6.0781,-6.0781,-6.0781,-6.0781,-6.0781,-6.0781,-6.0781,-6.0781,-6.0781,-6.0781,-6.0781,-6.0781,-6.0781,-6.0781,-6.0781,-6.1473,-6.2447,-6.3666,-6.4161,-6.3794,-6.2073,-6.1832,-6.1079,-5.8824,-5.8514,-5.9226,-6.1136,-5.9132,-5.8608,-6.1212,-5.7595,-5.4934,-5.4617,-5.3001,-5.2057,-5.2106,-5.2234,-5.2902,-5.4248,-5.3333,-5.4862,-5.9091,-5.7235,-5.778,-6.0781,-6.0781,-6.0781,-6.0781,-6.0781,-6.0781,-6.0781,-6.0781,-6.0781,-6.0781,-6.0781,-6.0781,-6.0781,-6.0781,-6.0781,-6.0781,-6.0781,-6.0781,-6.0781,-6.5859,-6.5859,-6.582,-6.582,-6.5859,-6.5282,-6.3551,-6.4782,-6.5282,-6.3551,-6.482,-6.5897,-6.5897,-6.5897,-6.5205,-6.3462,-6.4897,-6.4474,-6.1089,-6.4012,-6.5128,-6.3423,-6.4974,-6.5897,-6.5897,-6.5897,-6.5897,-6.5897,-6.5013,-6.3243,-6.0742,-5.905,-5.828,-5.8357,-6.0012,-6.0781,-6.0781,-6.0781,-6.0781,-6.0781,-6.0781,-6.0781,-6.0781,-6.0781,-6.0781,-6.0781,-6.0781,-6.0781,-6.0781,-6.0781,-6.0781,-6.0781,-6.0781,-6.0781,-6.0781,-6.0781,-6.0781,-6.0781,-6.0781,-6.0781,-6.0781,-6.0781,-6.0781,-6.0781,-6.0781,-6.0781,-6.0781,-6.0781,-6.1473,-6.2101,-6.2139,-6.2781,-6.2826,-6.1244,-6.091,-6.0267,-5.872,-5.8514,-5.8575,-5.8743,-5.655,-5.6056,-5.8676,-5.6566,-5.4617,-5.3696,-5.3608,-5.3641,-5.375,-5.0586,-4.9892,-5.2351,-4.9813,-5.0424,-5.4738,-5.4593,-5.6626,-6.0781,-6.0781,-6.0781,-6.0781,-6.0781,-6.0781,-6.0781,-6.0781,-6.0781,-6.0781,-6.0781,-6.0781,-6.0781,-6.0781,-6.0781,-6.0781,-6.0781,-6.0781,-6.0781,-6.2666,-6.4282,-6.5513,-6.432,-6.5128,-6.5705,-6.5166,-6.5551,-6.5705,-6.5166,-6.5551,-6.5897,-6.5897,-6.5897,-6.5667,-6.5128,-6.4474,-6.4166,-6.4282,-6.4166,-6.4397,-6.5051,-6.4474,-6.4128,-6.4128,-6.4128,-6.3858,-6.3332,-6.3012,-6.1858,-5.9896,-5.8819,-5.8896,-6.0012,-6.055,-6.0781,-6.0781,-6.0781,-6.0781,-6.0781,-6.0781,-6.0781,-6.0781,-6.0781,-6.0781,-6.0781,-6.0781,-6.0781,-6.0781,-6.0781,-6.0781,-6.0781,-6.0781,-6.0781,-6.0781,-6.0781,-6.0781,-6.0781,-6.0781,-6.0781,-6.0781,-6.0781,-6.0781,-6.0781,-6.0781,-6.0781,-6.0781,-6.0781,-6.1012,-6.1408,-6.1985,-6.2332,-6.192,-6.0228,-6.1405,-6.192,-6.0316,-6.0057,-6.0292,-6.0925,-5.8779,-5.8041,-5.9985,-5.794,-5.6121,-5.5256,-5.3073,-5.1838,-5.1888,-5.2458,-5.3707,-5.5753,-5.476,-5.5759,-5.8975,-5.7158,-5.7753,-6.0781,-6.0781,-6.0781,-6.0781,-6.0781,-6.0781,-6.0781,-6.0781,-6.0781,-6.0781,-6.0781,-6.0781,-6.0781,-6.0781,-6.0781,-6.0781,-6.0781,-6.0781,-6.0781,-6.263,-6.4308,-6.5551,-6.4474,-6.5166,-6.5667,-6.5013,-6.5474,-6.5667,-6.5013,-6.5474,-6.5897,-6.5897,-6.5897,-6.5897,-6.5897,-6.4897,-6.4743,-6.582,-6.4897,-6.4743,-6.5859,-6.4859,-6.4282,-6.4282,-6.4282,-6.3858,-6.3051,-6.2409,-6.1358,-5.9973,-5.9473,-5.9781,-6.0781,-6.0781,-6.0781,-6.0781,-6.0781,-6.0781,-6.0781,-6.0781,-6.0781,-6.0781,-6.0781,-6.0781,-6.0781,-6.0781,-6.0781,-6.0781,-6.0781,-6.0781,-6.0781,-6.0781,-6.0781,-6.0781,-6.0781,-6.0781,-6.0781,-6.0781,-6.0781,-6.0781,-6.0781,-6.0781,-6.0781,-6.0781,-6.0781,-6.0781,-6.0781,-6.0781,-6.0973,-6.1524,-6.1601,-6.1358,-6.0589,-6.182,-6.2589,-6.1858,-6.0935,-6.0508,-6.1147,-5.896,-5.8189,-6.0194,-5.9012,-5.7782,-5.6859,-5.3994,-5.2598,-5.3211,-5.2941,-5.3716,-5.5746,-5.5673,-5.6827,-5.9476,-5.7839,-5.8292,-6.0781,-6.0781,-6.0781,-6.0781,-6.0781,-6.0781,-6.0781,-6.0781,-6.0781,-6.0781,-6.0781,-6.0781,-6.0781,-6.0781,-6.0781,-6.0781,-6.0781,-6.0781,-6.0781,-6.4708,-6.5307,-6.5821,-6.5667,-6.5808,-6.5359,-6.3743,-6.4859,-6.532,-6.3705,-6.4897,-6.5897,-6.5897,-6.5897,-6.5897,-6.5897,-6.5782,-6.5782,-6.5897,-6.5782,-6.5782,-6.5897,-6.5782,-6.5705,-6.5705,-6.5705,-6.532,-6.4512,-6.282,-6.1601,-6.0781,-6.0781,-6.0781,-6.0781,-6.0781,-6.0781,-6.0781,-6.0781,-6.0781,-6.0781,-6.0781,-6.0781,-6.0781,-6.0781,-6.0781,-6.0781,-6.0781,-6.0781,-6.0781,-6.0781,-6.0781,-6.0781,-6.0781,-6.0781,-6.0781,-6.0781,-6.0781,-6.0781,-6.0781,-6.0781,-6.0781,-6.0781,-6.0781,-6.0781,-6.0781,-6.0781,-6.0781,-6.0781,-6.0781,-6.0781,-6.0781,-6.0781,-6.105,-6.187,-6.2024,-6.2243,-6.2858,-6.0896,-5.9408,-5.9427,-5.7491,-5.7065,-5.9368,-5.9755,-5.9399,-5.8292,-5.6011,-5.5357,-5.6907,-5.2631,-5.1219,-5.3664,-5.3741,-5.4857,-5.7253,-5.7253,-5.8446,-6.0781,-6.0781,-6.0781,-6.0781,-6.0781,-6.0781,-6.0781,-6.0781,-6.0781,-6.0781,-6.0781,-6.0781,-6.0781,-6.0781,-6.0781,-6.0781,-6.0781,-6.0781,-6.0781,-6.0911,-6.3188,-6.4908,-6.3594,-6.4792,-6.5743,-6.5359,-6.5628,-6.5743,-6.532,-6.5628,-6.5897,-6.5897,-6.5897,-6.5897,-6.5897,-6.4666,-6.4474,-6.582,-6.4666,-6.4512,-6.582,-6.4628,-6.3935,-6.3935,-6.3935,-6.382,-6.3628,-6.1935,-6.1012,-6.0781,-6.0781,-6.0781,-6.0781,-6.0781,-6.0781,-6.0781,-6.0781,-6.0781,-6.0781,-6.0781,-6.0781,-6.0781,-6.0781,-6.0781,-6.0781,-6.0781,-6.0781,-6.0781,-6.0781,-6.0781,-6.0781,-6.0781,-6.0781,-6.0781,-6.0781,-6.0781,-6.0781,-6.0781,-6.0781,-6.0781,-6.0781,-6.0781,-6.0781,-6.0781,-6.0781,-6.0781,-6.0781,-6.0781,-6.0781,-6.0781,-6.0781,-6.0858,-6.105,-6.1089,-6.0742,-5.9627,-5.8973,-5.811,-5.6788,-5.7829,-5.8638,-5.8638,-6.0371,-6.0349,-5.7522,-5.6753,-5.6599,-5.6983,-5.591,-5.641,-5.8934,-5.9011,-5.9281,-5.9896,-5.9896,-6.0204,-6.0781,-6.0781,-6.0781,-6.0781,-6.0781,-6.0781,-6.0781,-6.0781,-6.0781,-6.0781,-6.0781,-6.0781,-6.0781,-6.0781,-6.0781,-6.0781,-6.0781,-6.0781,-6.0781,-6.1444,-6.3161,-6.4567,-6.387,-6.4747,-6.5635,-6.5872,-6.5897,-6.5897,-6.5897,-6.5897,-6.5897,-6.5897,-6.5897,-6.5897,-6.5897,-6.5013,-6.4897,-6.582,-6.5013,-6.4897,-6.5859,-6.4974,-6.4474,-6.4474,-6.4474,-6.4089,-6.3308,-6.1627,-6.0781,-6.0781,-6.0781,-6.0781,-6.0781,-6.0781,-6.0781,-6.0781,-6.0781,-6.0781,-6.0781,-6.0781,-6.0781,-6.0781,-6.0781,-6.0781,-6.0781,-6.0781,-6.0781,-6.0781,-6.0781,-6.0781,-6.0781,-6.0781,-6.0781,-6.0781,-6.0781,-6.0781,-6.0781,-6.0781,-6.0781,-6.0781,-6.0781,-6.0781,-6.0781,-6.0781,-6.0781,-6.0781,-6.0781,-6.0781,-6.0781,-6.0781,-6.0781,-6.0781,-6.0781,-5.9819,-5.8742,-5.7819,-5.6703,-5.6049,-5.628,-5.7511,-5.8627,-5.9358,-6.0704,-6.0754,-5.8869,-5.7665,-5.7511,-5.8676,-5.7627,-5.8165,-6.0704,-6.0781,-6.0781,-6.0781,-6.0781,-6.0781,-6.0781,-6.0781,-6.0781,-6.0781,-6.0781,-6.0781,-6.0781,-6.0781,-6.0781,-6.0781,-6.0781,-6.0781,-6.0781,-6.0781,-6.0781,-6.0781,-6.0781,-6.0781,-6.0781,-6.3476,-6.3913,-6.4407,-6.4799,-6.4981,-6.5261,-6.5703,-6.5872,-6.5897,-6.5897,-6.5897,-6.5897,-6.5897,-6.5897,-6.5897,-6.5897,-6.5897,-6.5897,-6.5897,-6.5897,-6.5897,-6.5897,-6.5897,-6.5897,-6.5897,-6.5782,-6.4974,-6.3512,-6.1935,-6.1127,-6.1012,-6.1012,-6.0935,-6.0781,-6.0781,-6.0781,-6.0781,-6.0781,-6.0781,-6.0781,-6.0781,-6.0781,-6.0781,-6.0781,-6.0781,-6.0781,-6.0781,-6.0781,-6.0781,-6.0781,-6.0781,-6.0781,-6.0781,-6.0781,-6.0781,-6.0781,-6.0781,-6.0781,-6.0781,-6.0781,-6.0781,-6.0781,-6.0781,-6.0781,-6.0781,-6.0781,-6.0781,-6.0781,-6.0781,-6.0781,-6.0781,-6.0781,-6.0666,-6.0281,-5.8511,-5.7049,-5.6676,-5.5203,-5.4972,-5.7115,-5.7731,-5.8819,-6.0973,-6.1166,-6.1127,-6.1012,-5.8973,-5.8665,-6.0704,-5.8753,-5.8561,-6.0742,-6.0781,-6.0781,-6.0781,-6.0781,-6.0781,-6.0781,-6.0781,-6.0781,-6.0781,-6.0781,-6.0781,-6.0781,-6.0781,-6.0781,-6.0781,-6.0781,-6.0781,-6.0781,-6.0781,-6.0781,-6.0781,-6.0781,-6.0781,-6.0781,-6.2917,-6.334,-6.3745,-6.3829,-6.4554,-6.513,-6.5192,-6.5597,-6.5897,-6.5897,-6.5897,-6.5897,-6.5897,-6.5897,-6.5897,-6.5897,-6.5897,-6.5897,-6.5897,-6.5897,-6.5897,-6.5897,-6.5897,-6.5897,-6.5897,-6.5166,-6.4666,-6.4397,-6.3397,-6.2551,-6.1908,-6.1908,-6.1524,-6.0781,-6.0781,-6.0781,-6.0781,-6.0781,-6.0781,-6.0781,-6.0781,-6.0781,-6.0781,-6.0781,-6.0781,-6.0781,-6.0781,-6.0781,-6.0781,-6.0781,-6.0781,-6.0781,-6.0781,-6.0781,-6.0781,-6.0781,-6.0781,-6.0781,-6.0781,-6.0781,-6.0781,-6.0781,-6.0781,-6.0781,-6.0781,-6.0781,-6.0781,-6.0781,-6.0781,-6.0781,-6.0781,-6.0781,-6.0089,-5.7945,-5.7896,-5.7357,-5.5203,-5.6973,-5.8665,-5.905,-6.1012,-6.2474,-6.2858,-6.2897,-6.2627,-6.1947,-6.1524,-6.1166,-6.0819,-6.0435,-6.0396,-6.0781,-6.0781,-6.0781,-6.0781,-6.0781,-6.0781,-6.0781,-6.0781,-6.0781,-6.0781,-6.0781,-6.0781,-6.0781,-6.0781,-6.0781,-6.0781,-6.0781,-6.0781,-6.0781,-6.0781,-6.0781,-6.0781,-6.0781,-6.0781,-6.0781,-6.278,-6.299,-6.3262,-6.3565,-6.3978,-6.4407,-6.4679,-6.5168,-6.5461,-6.5461,-6.5703,-6.5897,-6.5897,-6.5897,-6.5897,-6.5897,-6.5897,-6.5897,-6.5897,-6.5897,-6.5897,-6.5897,-6.5897,-6.5897,-6.5897,-6.5051,-6.4589,-6.4589,-6.3743,-6.3128,-6.2743,-6.2743,-6.2281,-6.1512,-6.1512,-6.1243,-6.0781,-6.0781,-6.0781,-6.0781,-6.0781,-6.0781,-6.0781,-6.0781,-6.0781,-6.0781,-6.0781,-6.0781,-6.0781,-6.0781,-6.0781,-6.0781,-6.0781,-6.0781,-6.0781,-6.0781,-6.0781,-6.0781,-6.0781,-6.0781,-6.0781,-6.0781,-6.0781,-6.0781,-6.0781,-6.0781,-6.0781,-6.0781,-6.1166,-6.1512,-6.1512,-6.1858,-6.1743,-6.0589,-5.9588,-5.855,-5.7357,-5.8511,-5.9511,-5.9511,-6.1743,-6.3308,-6.3308,-6.3308,-6.3166,-6.2781,-6.2743,-6.2551,-6.2166,-6.2166,-6.1935,-6.1524,-6.105,-6.0781,-6.0781,-6.0781,-6.0781,-6.0781,-6.0781,-6.0781,-6.0781,-6.0781,-6.0781,-6.0781,-6.0781,-6.0781,-6.0781,-6.0781,-6.0781,-6.0781,-6.0781,-6.0781,-6.0781,-6.0781,-6.0781,-6.0781,-6.278,-6.278,-6.2917,-6.334,-6.352,-6.3745,-6.4138,-6.4626,-6.4954,-6.4954,-6.5388,-6.5703,-6.5703,-6.5821,-6.5897,-6.5897,-6.5897,-6.5897,-6.5897,-6.5897,-6.5897,-6.5897,-6.5897,-6.5897,-6.5897,-6.5243,-6.4897,-6.4897,-6.4243,-6.382,-6.3589,-6.3589,-6.3166,-6.2358,-6.2358,-6.2012,-6.1358,-6.1166,-6.1089,-6.1089,-6.0858,-6.0781,-6.0781,-6.0781,-6.0781,-6.0781,-6.0781,-6.0781,-6.0781,-6.0781,-6.0781,-6.0781,-6.0781,-6.0781,-6.0781,-6.0781,-6.0781,-6.0781,-6.0781,-6.0781,-6.0781,-6.0781,-6.0781,-6.0858,-6.105,-6.1089,-6.1166,-6.1358,-6.1897,-6.2358,-6.2358,-6.2897,-6.3128,-6.25,-6.0935,-5.9819,-5.9819,-5.9973,-6.0319,-6.0935,-6.2704,-6.3897,-6.3897,-6.3897,-6.382,-6.3628,-6.3589,-6.3512,-6.3308,-6.3308,-6.3012,-6.2397,-6.1358,-6.0781,-6.0781,-6.0781,-6.0781,-6.0781,-6.0781,-6.0781,-6.0781,-6.0781,-6.0781,-6.0781,-6.0781,-6.0781,-6.0781,-6.0781,-6.0781,-6.0781,-6.0781,-6.0781,-6.0781,-6.0781,-6.0935,-6.1089,-6.278,-6.278,-6.2805,-6.2855,-6.3285,-6.3593,-6.3637,-6.4099,-6.4444,-6.4444,-6.485,-6.5146,-6.5146,-6.5597,-6.5897,-6.5897,-6.5897,-6.5897,-6.5897,-6.5897,-6.5897,-6.5897,-6.5897,-6.5897,-6.5897,-6.582,-6.5782,-6.5782,-6.5743,-6.5282,-6.4512,-6.4512,-6.4051,-6.3205,-6.3205,-6.3166,-6.3089,-6.232,-6.1985,-6.1947,-6.1127,-6.0781,-6.0781,-6.0781,-6.0781,-6.0781,-6.0781,-6.0781,-6.0781,-6.0781,-6.0781,-6.0781,-6.0781,-6.0781,-6.0781,-6.0781,-6.0781,-6.0781,-6.0781,-6.0781,-6.0781,-6.0781,-6.0781,-6.1012,-6.1831,-6.1985,-6.2204,-6.2974,-6.3166,-6.3205,-6.3205,-6.3281,-6.2551,-6.0165,-6.0281,-6.0704,-6.0704,-6.1408,-6.2793,-6.5128,-6.559,-6.5705,-6.5705,-6.5705,-6.5359,-6.4551,-6.4512,-6.4166,-6.3346,-6.3308,-6.3281,-6.3205,-6.1627,-6.0781,-6.0781,-6.0781,-6.0781,-6.0781,-6.0781,-6.0781,-6.0781,-6.0781,-6.0781,-6.0781,-6.0781,-6.0781,-6.0781,-6.0781,-6.0781,-6.0781,-6.0781,-6.0781,-6.0781,-6.0781,-6.132,-6.1985,-6.278,-6.278,-6.278,-6.278,-6.2965,-6.3097,-6.3097,-6.355,-6.3913,-6.3913,-6.4608,-6.5099,-6.5099,-6.5569,-6.5897,-6.5897,-6.5897,-6.5897,-6.5897,-6.5897,-6.5897,-6.5897,-6.5897,-6.5897,-6.5897,-6.5897,-6.5897,-6.5897,-6.5897,-6.5743,-6.5397,-6.5397,-6.4936,-6.4128,-6.4128,-6.382,-6.3281,-6.2974,-6.2858,-6.282,-6.2474,-6.2358,-6.2358,-6.2358,-6.2358,-6.2358,-6.2358,-6.2358,-6.2358,-6.2358,-6.2358,-6.2358,-6.2358,-6.2358,-6.2358,-6.2358,-6.2358,-6.2358,-6.2358,-6.1973,-6.1743,-6.2243,-6.2358,-6.2435,-6.2781,-6.2858,-6.2935,-6.3243,-6.3743,-6.4128,-6.4128,-6.4551,-6.4589,-6.3628,-6.3743,-6.3974,-6.3974,-6.4243,-6.482,-6.5782,-6.5897,-6.5897,-6.5897,-6.5897,-6.5743,-6.5436,-6.5397,-6.5243,-6.4936,-6.4397,-6.4128,-6.4128,-6.2974,-6.2358,-6.2358,-6.2358,-6.2358,-6.2358,-6.2358,-6.2089,-6.1601,-6.1601,-6.1601,-6.1601,-6.1601,-6.1897,-6.2358,-6.2358,-6.2358,-6.2358,-6.2358,-6.2358,-6.2358,-6.2358,-6.2551,-6.2858,-6.278,-6.278,-6.278,-6.278,-6.278,-6.278,-6.278,-6.3097,-6.334,-6.334,-6.4218,-6.4866,-6.4866,-6.5499,-6.5897,-6.5897,-6.5897,-6.5897,-6.5897,-6.5897,-6.5897,-6.5897,-6.5897,-6.5897,-6.5897,-6.5897,-6.5897,-6.5897,-6.5897,-6.5897,-6.5897,-6.5897,-6.559,-6.5013,-6.5013,-6.4666,-6.4089,-6.382,-6.3705,-6.3666,-6.3423,-6.3308,-6.3308,-6.3308,-6.3308,-6.3308,-6.3308,-6.3308,-6.3308,-6.3308,-6.3308,-6.3308,-6.3308,-6.3308,-6.3308,-6.3308,-6.3308,-6.3346,-6.3628,-6.332,-6.2935,-6.3243,-6.3308,-6.3346,-6.3666,-6.3705,-6.3782,-6.4051,-6.4589,-6.5013,-6.5013,-6.5513,-6.5897,-6.5897,-6.5897,-6.5897,-6.5897,-6.5897,-6.5897,-6.5897,-6.5897,-6.5897,-6.5897,-6.5897,-6.5897,-6.5897,-6.5897,-6.5897,-6.5897,-6.532,-6.5013,-6.5013,-6.4436,-6.4128,-6.4128,-6.3589,-6.3308,-6.3308,-6.3308,-6.3012,-6.2474,-6.2474,-6.2474,-6.2474,-6.2474,-6.2781,-6.3308,-6.3308,-6.3308,-6.3308,-6.3308,-6.3308,-6.3308,-6.3308,-6.3462,-6.3705,-6.278,-6.278,-6.278,-6.278,-6.278,-6.278,-6.278,-6.278,-6.2805,-6.2805,-6.3745,-6.4389,-6.4426,-6.5314,-6.5897,-6.5897,-6.5897,-6.5897,-6.5897,-6.5897,-6.5897,-6.5897,-6.5897,-6.5897,-6.5897,-6.5897,-6.5897,-6.5897,-6.5897,-6.5897,-6.5897,-6.5897,-6.5897,-6.5897,-6.5897,-6.5897,-6.582,-6.4974,-6.4628,-6.4551,-6.3666,-6.332,-6.332,-6.332,-6.332,-6.332,-6.332,-6.332,-6.332,-6.332,-6.332,-6.332,-6.332,-6.332,-6.332,-6.332,-6.332,-6.3512,-6.4397,-6.4628,-6.4397,-6.3538,-6.332,-6.3551,-6.4397,-6.4628,-6.4859,-6.5705,-6.5897,-6.5897,-6.5897,-6.5897,-6.5897,-6.5897,-6.5897,-6.5897,-6.5897,-6.5897,-6.5897,-6.5897,-6.5897,-6.5897,-6.5897,-6.5897,-6.5897,-6.5897,-6.5897,-6.5897,-6.5897,-6.5897,-6.5897,-6.5897,-6.5897,-6.5897,-6.5897,-6.4166,-6.332,-6.332,-6.332,-6.332,-6.3308,-6.3308,-6.3308,-6.3308,-6.3308,-6.3308,-6.332,-6.332,-6.332,-6.332,-6.332,-6.332,-6.332,-6.332,-6.3858,-6.4628,-6.278,-6.278,-6.278,-6.278,-6.278,-6.278,-6.278,-6.278,-6.2953,-6.3294,-6.3995,-6.4518,-6.485,-6.5513,-6.5897,-6.5897,-6.5897,-6.5897,-6.5897,-6.5897,-6.5897,-6.5897,-6.5897,-6.5897,-6.5897,-6.5897,-6.5897,-6.5897,-6.5897,-6.5897,-6.5897,-6.5897,-6.5897,-6.5897,-6.5897,-6.5897,-6.5859,-6.5628,-6.5513,-6.5474,-6.5243,-6.5128,-6.5128,-6.5128,-6.5128,-6.5128,-6.5128,-6.5128,-6.5128,-6.5128,-6.5128,-6.5128,-6.5128,-6.5128,-6.5128,-6.5128,-6.5128,-6.5166,-6.5436,-6.5513,-6.5436,-6.5205,-6.5128,-6.5205,-6.5436,-6.5513,-6.559,-6.5859,-6.5897,-6.5897,-6.5897,-6.5897,-6.5897,-6.5897,-6.5897,-6.5897,-6.5897,-6.5897,-6.5897,-6.5897,-6.5897,-6.5897,-6.5897,-6.5897,-6.5897,-6.5897,-6.5897,-6.5897,-6.5897,-6.5897,-6.5897,-6.5897,-6.5897,-6.5897,-6.5897,-6.5397,-6.5128,-6.5128,-6.5128,-6.4782,-6.4205,-6.4205,-6.4205,-6.4205,-6.4205,-6.4551,-6.5128,-6.5128,-6.5128,-6.5128,-6.5128,-6.5128,-6.5128,-6.5128,-6.5282,-6.5513,-6.278,-6.278,-6.278,-6.278,-6.278,-6.278,-6.278,-6.278,-6.299,-6.3543,-6.4076,-6.4572,-6.5067,-6.5569,-6.5897,-6.5897,-6.5897,-6.5897,-6.5897,-6.5897,-6.5897,-6.5897,-6.5897,-6.5897,-6.5897,-6.5897,-6.5897,-6.5897,-6.5897,-6.5897,-6.5897,-6.5897,-6.5897,-6.5897,-6.5897,-6.5897,-6.5897,-6.5897,-6.5897,-6.5897,-6.5897,-6.5897,-6.5897,-6.5897,-6.5897,-6.5897,-6.5897,-6.5897,-6.5897,-6.5897,-6.5897,-6.5897,-6.5897,-6.5897,-6.5897,-6.5897,-6.5897,-6.5897,-6.5897,-6.5897,-6.5897,-6.5897,-6.5897,-6.5897,-6.5897,-6.5897,-6.5897,-6.5897,-6.5897,-6.5897,-6.5897,-6.5897,-6.5897,-6.5897,-6.5897,-6.5897,-6.5897,-6.5897,-6.5897,-6.5897,-6.5897,-6.5897,-6.5897,-6.5897,-6.5897,-6.5897,-6.5897,-6.5897,-6.5897,-6.5897,-6.5897,-6.5897,-6.5897,-6.5897,-6.5897,-6.5897,-6.5897,-6.5897,-6.5897,-6.5628,-6.5128,-6.5128,-6.5128,-6.5128,-6.5128,-6.5397,-6.5897,-6.5897,-6.5897,-6.5897,-6.5897,-6.5897,-6.5897,-6.5897,-6.5897,-6.5897,-6.278,-6.278,-6.278,-6.278,-6.278,-6.278,-6.278,-6.278,-6.299,-6.3543,-6.4036,-6.4518,-6.5051,-6.5542,-6.5872,-6.5897,-6.5897,-6.5897,-6.5897,-6.5897,-6.5897,-6.5897,-6.5897,-6.5897,-6.5897,-6.5897,-6.5897,-6.5897,-6.5897,-6.5897,-6.5897,-6.5897,-6.5897,-6.5897,-6.5897,-6.5897,-6.5897,-6.5897,-6.5897,-6.5897,-6.5897,-6.5897,-6.5897,-6.5897,-6.5897,-6.5897,-6.5897,-6.5897,-6.5897,-6.5897,-6.5897,-6.5897,-6.5897,-6.5897,-6.5897,-6.5897,-6.5897,-6.5897,-6.5897,-6.5897,-6.5897,-6.5897,-6.5897,-6.5897,-6.5897,-6.5897,-6.5897,-6.5897,-6.5897,-6.5897,-6.5897,-6.5897,-6.5897,-6.5897,-6.5897,-6.5897,-6.5897,-6.5897,-6.5897,-6.5897,-6.5897,-6.5897,-6.5897,-6.5897,-6.5897,-6.5897,-6.5897,-6.5897,-6.5897,-6.5897,-6.5897,-6.5897,-6.5897,-6.5897,-6.5897,-6.5897,-6.5897,-6.5897,-6.5897,-6.5897,-6.5897,-6.5897,-6.5897,-6.5897,-6.5897,-6.5897,-6.5897,-6.5897,-6.5897,-6.5897,-6.5897,-6.5897,-6.5897,-6.5897,-6.5897,-6.5897,-6.278,-6.278,-6.278,-6.278,-6.278,-6.278,-6.278,-6.278,-6.299,-6.3543,-6.3702,-6.4119,-6.4981,-6.5192,-6.5446,-6.5872,-6.5897,-6.5897,-6.5897,-6.5897,-6.5897,-6.5897,-6.5897,-6.5897,-6.5897,-6.5897,-6.5897,-6.5897,-6.5897,-6.5897,-6.5897,-6.5897,-6.5897,-6.5897,-6.5897,-6.5897,-6.5897,-6.5897,-6.5897,-6.5897,-6.5897,-6.5897,-6.5897,-6.5897,-6.5897,-6.5897,-6.5897,-6.5897,-6.5897,-6.5897,-6.5897,-6.5897,-6.5897,-6.5897,-6.5897,-6.5897,-6.5897,-6.5897,-6.5897,-6.5897,-6.5897,-6.5897,-6.5897,-6.5897,-6.5897,-6.5897,-6.5897,-6.5897,-6.5897,-6.5897,-6.5897,-6.5897,-6.5897,-6.5897,-6.5897,-6.5897,-6.5897,-6.5897,-6.5897,-6.5897,-6.5897,-6.5897,-6.5897,-6.5897,-6.5897,-6.5897,-6.5897,-6.5897,-6.5897,-6.5897,-6.5897,-6.5897,-6.5897,-6.5897,-6.5897,-6.5897,-6.5897,-6.5897,-6.5897,-6.5897,-6.5897,-6.5897,-6.5897,-6.5897,-6.5897,-6.5897,-6.5897,-6.5897,-6.5897,-6.5897,-6.5897,-6.5897,-6.5897,-6.5897,-6.5897,-6.5897,-6.278,-6.278,-6.278,-6.278,-6.278,-6.278,-6.278,-6.278,-6.299,-6.3543,-6.3609,-6.4025,-6.5229,-6.5338,-6.5715,-6.6634,-6.6701,-6.6825,-6.7077,-6.709,-6.709,-6.709,-6.709,-6.709,-6.709,-6.709,-6.6705,-6.5897,-6.5897,-6.5897,-6.5897,-6.5897,-6.5897,-6.5897,-6.5897,-6.5897,-6.5897,-6.5897,-6.5897,-6.5897,-6.5897,-6.5897,-6.5897,-6.5897,-6.5897,-6.5897,-6.5897,-6.5897,-6.5897,-6.5897,-6.5897,-6.5897,-6.5897,-6.5897,-6.5897,-6.5897,-6.5897,-6.5897,-6.5897,-6.5897,-6.5897,-6.5897,-6.5897,-6.5897,-6.5897,-6.5897,-6.5897,-6.5897,-6.5897,-6.5897,-6.5897,-6.5897,-6.5897,-6.5897,-6.5897,-6.5897,-6.5897,-6.5897,-6.5897,-6.5897,-6.5897,-6.5897,-6.5897,-6.5897,-6.5897,-6.5897,-6.5897,-6.5897,-6.5897,-6.5897,-6.5897,-6.5897,-6.5897,-6.5897,-6.5897,-6.5897,-6.5897,-6.5897,-6.5897,-6.5897,-6.5897,-6.5897,-6.5897,-6.5897,-6.5897,-6.5897,-6.5897,-6.5897,-6.5897,-6.5897,-6.5897,-6.5897,-6.5897,-6.5897,-6.5897,-6.5897,-6.278,-6.278,-6.278,-6.278,-6.289,-6.3025,-6.3025,-6.3135,-6.3383,-6.3831,-6.3899,-6.4345,-6.555,-6.5764,-6.6239,-6.7372,-6.7483,-6.7703,-6.8238,-6.8265,-6.8293,-6.8385,-6.8385,-6.8385,-6.8385,-6.8385,-6.7705,-6.632,-6.632,-6.632,-6.632,-6.632,-6.6244,-6.609,-6.609,-6.6013,-6.5897,-6.5897,-6.5897,-6.5897,-6.5897,-6.5897,-6.5897,-6.5897,-6.5897,-6.5897,-6.5897,-6.5897,-6.5897,-6.5897,-6.5897,-6.5897,-6.5897,-6.5897,-6.5897,-6.5897,-6.5897,-6.5897,-6.5897,-6.5897,-6.5897,-6.5897,-6.5897,-6.5897,-6.5897,-6.5897,-6.5897,-6.5897,-6.5897,-6.5897,-6.5897,-6.5897,-6.5897,-6.5897,-6.5897,-6.5897,-6.5897,-6.5897,-6.5897,-6.5897,-6.5897,-6.5897,-6.5897,-6.5897,-6.5897,-6.5897,-6.5897,-6.5897,-6.5897,-6.5897,-6.5897,-6.5897,-6.5897,-6.5897,-6.5897,-6.5897,-6.5897,-6.5897,-6.5897,-6.5897,-6.5897,-6.5897,-6.5897,-6.5897,-6.5897,-6.5897,-6.5897,-6.5897,-6.5897,-6.5897,-6.5897,-6.5897,-6.5897,-6.5897,-6.5897,-6.5897,-6.278,-6.278,-6.278,-6.278,-6.3429,-6.3906,-6.3906,-6.453,-6.4997,-6.5037,-6.5062,-6.5312,-6.5889,-6.6349,-6.6727,-6.6881,-6.6918,-6.7144,-6.7649,-6.7719,-6.7929,-6.8371,-6.8385,-6.8385,-6.8385,-6.8385,-6.8269,-6.8052,-6.8052,-6.8052,-6.8052,-6.8052,-6.7667,-6.6936,-6.6936,-6.6551,-6.5897,-6.5897,-6.5897,-6.5897,-6.5897,-6.5897,-6.5897,-6.5897,-6.5897,-6.5897,-6.5897,-6.5897,-6.5897,-6.5897,-6.5897,-6.5897,-6.5897,-6.5897,-6.5897,-6.5897,-6.5897,-6.5897,-6.5897,-6.5897,-6.5897,-6.5897,-6.5897,-6.5897,-6.5897,-6.5897,-6.5897,-6.5897,-6.5897,-6.5897,-6.5897,-6.5897,-6.5897,-6.5897,-6.5897,-6.5897,-6.5897,-6.5897,-6.5897,-6.5897,-6.5897,-6.5897,-6.5897,-6.5897,-6.5897,-6.5897,-6.5897,-6.5897,-6.5897,-6.5897,-6.5897,-6.5897,-6.5897,-6.5897,-6.5897,-6.5897,-6.5897,-6.5897,-6.5897,-6.5897,-6.5897,-6.5897,-6.5897,-6.5897,-6.5897,-6.5897,-6.5897,-6.5897,-6.5897,-6.5897,-6.5897,-6.5897,-6.5897,-6.5897,-6.5897,-6.5897,-6.4127,-6.42,-6.42,-6.42,-6.453,-6.4787,-6.4787,-6.5081,-6.5301,-6.5301,-6.5301,-6.5551,-6.6223,-6.69,-6.7431,-6.7732,-6.7754,-6.7973,-6.8508,-6.8527,-6.88,-6.9322,-6.9337,-6.9481,-6.9769,-6.9821,-6.9821,-6.9821,-6.8859,-6.8385,-6.8385,-6.8385,-6.8205,-6.7821,-6.7821,-6.7628,-6.7321,-6.7321,-6.7321,-6.7321,-6.7321,-6.7013,-6.6551,-6.6551,-6.6282,-6.5897,-6.5897,-6.5897,-6.5897,-6.5897,-6.5897,-6.5897,-6.5897,-6.5897,-6.5897,-6.5897,-6.5897,-6.5897,-6.5897,-6.5897,-6.5897,-6.5897,-6.5897,-6.5897,-6.5897,-6.5897,-6.5897,-6.5897,-6.5897,-6.5897,-6.5897,-6.5897,-6.5897,-6.5897,-6.5897,-6.5897,-6.5897,-6.5897,-6.5897,-6.5897,-6.5897,-6.5897,-6.5897,-6.5897,-6.5897,-6.5897,-6.5897,-6.5897,-6.5897,-6.5897,-6.5897,-6.5897,-6.5897,-6.5897,-6.5897,-6.5897,-6.5897,-6.5897,-6.5897,-6.5897,-6.5897,-6.5897,-6.5897,-6.5897,-6.5897,-6.5897,-6.5897,-6.5897,-6.5897,-6.5897,-6.5897,-6.5897,-6.5897,-6.5897,-6.5897,-6.5897]},{"header":{"parameterUnit":"m.s-1","parameterCategory":1,"la1":30.6,"la2":28.766,"lo1":-90.7593,"lo2":-88.6598,"dy":0.0162,"dx":0.0183,"nx":116,"ny":114,"refTime":"2024-05-04T12:00:00:Z","depth":0,"parameterNumber":3,"parameterNumberName":"V-component_of_WINDS"},"data":[0.0,0.0,0.0,0.0,0.0,0.0,0.0,0.0,0.0,0.0,0.0,0.0,0.0,0.0,0.0,0.0,0.0,0.0,0.0,0.0,0.0,0.0,0.0,0.0,0.0,0.0,0.0,0.0,0.0,0.0,0.0,0.0,0.0,0.0,0.0,0.0,0.0,0.0,0.0,0.0,0.0,0.0,0.0,0.0,0.0,0.0,0.0,0.0,0.0,0.0,0.0,0.0,0.0,0.0,0.0,0.0,0.0,0.0,0.0,0.0,0.0,0.0,0.0,0.0,0.0,0.0,0.0,0.0,0.0,0.0,0.0,0.0,0.0,0.0,0.0,0.0,0.0,0.0,0.0,0.0,0.0,0.0,0.0,0.0,0.0,0.0,0.0,0.0,0.0,0.0,0.0,0.0,0.0,0.0,0.0,0.0,0.0,0.0,0.0,0.0,0.0,0.0,0.0,0.0,0.0,0.0,0.0,0.0,0.0,0.0,0.0,0.0,0.0,0.0,0.0,0.0,0.0,0.0,0.0,0.0,0.0,0.0,0.0,0.0,0.0,0.0,0.0,0.0,0.0,0.0,0.0,0.0,0.0,0.0,0.0,0.0,0.0,0.0,0.0,0.0,0.0,0.0,0.0,0.0,0.0,0.0,0.0,0.0,0.0,0.0,0.0,0.0,0.0,0.0,0.0,0.0,0.0,0.0,0.0,0.0,0.0,0.0,0.0,0.0,0.0,0.0,0.0,0.0,0.0,0.0,0.0,0.0,0.0,0.0,0.0,0.0,0.0,0.0,0.0,0.0,0.0,0.0,0.0,0.0,0.0,0.0,0.0,0.0,0.0,0.0,0.0,0.0,0.0,0.0,0.0,0.0,0.0,0.0,0.0,0.0,0.0,0.0,0.0,0.0,0.0,0.0,0.0,0.0,0.0,0.0,0.0,0.0,0.0,0.0,0.0,0.0,0.0,0.0,0.0,0.0,0.0,0.0,0.0,0.0,0.0,0.0,0.0,0.0,0.0,0.0,0.0,0.0,0.0,0.0,0.0,0.0,0.0,0.0,0.0,0.0,0.0,0.0,0.0,0.0,0.0,0.0,0.0,0.0,0.0,0.0,0.0,0.0,0.0,0.0,0.0,0.0,0.0,0.0,0.0,0.0,0.0,0.0,0.0,0.0,0.0,0.0,0.0,0.0,0.0,0.0,0.0,0.0,0.0,0.0,0.0,0.0,0.0,0.0,0.0,0.0,0.0,0.0,0.0,0.0,0.0,0.0,0.0,0.0,0.0,0.0,0.0,0.0,0.0,0.0,0.0,0.0,0.0,0.0,0.0,0.0,0.0,0.0,0.0,0.0,0.0,0.0,0.0,0.0,0.0,0.0,0.0,0.0,0.0,0.0,0.0,0.0,0.0,0.0,0.0,0.0,0.0,0.0,0.0,0.0,0.0,0.0,0.0,0.0,0.0,0.0,0.0,0.0,0.0,0.0,0.0,0.0,0.0,0.0,0.0,0.0,0.0,0.0,0.0,0.0,0.0,0.0,0.0,0.0,0.0,0.0,0.0,0.0,0.0,0.0,0.0,0.0,0.0,0.0,0.0,0.0,0.0,0.0,0.0,0.0,0.0,0.0,0.0,0.0,0.0,0.0,0.0,0.0,0.0,0.0,0.0,0.0,0.0,0.0,0.0,0.0,0.0,0.0,0.0,0.0,0.0,0.0,0.0,0.0,0.0,0.0,0.0,0.0,0.0,0.0,0.0,0.0,0.0,0.0,0.0,0.0,0.0,0.0,0.0,0.0,0.0,0.0,0.0,0.0,0.0,0.0,0.0,0.0,0.0,0.0,0.0,0.0,0.0,0.0,0.0,0.0,0.0,0.0,0.0,0.0,0.0,0.0,0.0,0.0,0.0,0.0,0.0,0.0,0.0,0.0,0.0,0.0,0.0,0.0,0.0,0.0,0.0,0.0,0.0,0.0,0.0,0.0,0.0,0.0,0.0,0.0,0.0,0.0,0.0,0.0,0.0,0.0,0.0,0.0,0.0,0.0,0.0,0.0,0.0,0.0,0.0,0.0,0.0,0.0,0.0,0.0,0.0,0.0,0.0,0.0,0.0,0.0,0.0,0.0,0.0,0.0,0.0,0.0,0.0,0.0,0.0,0.0,0.0,0.0,0.0,0.0,0.0,0.0,0.0,0.0,0.0,0.0,0.0,0.0,0.0,0.0,0.0,0.0,0.0,0.0,0.0,0.0,0.0,0.0,0.0,0.0,0.0,0.0,0.0,0.0,0.0,0.0,0.0,0.0,0.0,0.0,0.0,0.0,0.0,0.0,0.0,0.0,0.0,0.0,0.0,0.0,0.0,0.0,0.0,0.0,0.0,0.0,0.0,0.0,0.0,0.0,0.0,0.0,0.0,0.0,0.0,0.0,0.0,0.0,0.0,0.0,0.0,0.0,0.0,0.0,0.0,0.0,0.0,0.0,0.0,0.0,0.0,0.0,0.0,0.0,0.0,0.0,0.0,0.0,0.0,0.0,0.0,0.0,0.0,0.0,0.0,0.0,0.0,0.0,0.0,0.0,0.0,0.0,0.0,0.0,0.0,0.0,0.0,0.0,0.0,0.0,0.0,0.0,0.0,0.0,0.0,0.0,0.0,0.0,0.0,0.0,0.0,0.0,0.0,0.0,0.0,0.0,0.0,0.0,0.0,0.0,0.0,0.0,0.0,0.0,0.0,0.0,0.0,0.0,0.0,0.0,0.0,0.0,0.0,0.0,0.0,0.0,0.0,0.0,0.0,0.0,0.0,0.0,0.0,0.0,0.0,0.0,0.0,0.0,0.0,0.0,0.0,0.0,0.0,0.0,0.0,0.0,0.0,0.0,0.0,0.0,0.0,0.0,0.0,0.0,0.0,0.0,0.0,0.0,0.0,0.0,0.0,0.0,0.0,0.0,0.0,0.0,0.0,0.0,0.0,0.0,0.0,0.0,0.0,0.0,0.0,0.0,0.0,0.0,0.0,0.0,0.0,0.0,0.0,0.0,0.0,0.0,0.0,0.0,0.0,0.0,0.0,0.0,0.0,0.0,0.0,0.0,0.0,0.0,0.0,0.0,0.0,0.0,0.0,0.0,0.0,0.0,0.0,0.0,0.0,0.0,0.0,0.0,0.0,0.0,0.0,0.0,0.0,0.0,0.0,0.0,0.0,0.0,0.0,0.0,0.0,0.0,0.0,0.0,0.0,0.0,0.0,0.0,0.0,0.0,0.0,0.0,0.0,0.0,0.0,0.0,0.0,0.0,0.0,0.0,0.0,0.0,0.0,0.0,0.0,0.0,0.0,0.0,0.0,0.0,0.0,0.0,0.0,0.0,0.0,0.0,0.0,0.0,0.0,0.0,0.0,0.0,0.0,0.0,0.0,0.0,0.0,0.0,0.0,0.0,0.0,0.0,0.0,0.0,0.0,0.0,0.0,0.0,0.0,0.0,0.0,0.0,0.0,0.0,0.0,0.0,0.0,0.0,0.0,0.0,0.0,0.0,0.0,0.0,0.0,0.0,0.0,0.0,0.0,0.0,0.0,0.0,0.0,0.0,0.0,0.0,0.0,0.0,0.0,0.0,0.0,0.0,0.0,0.0,0.0,0.0,0.0,0.0,0.0,0.0,0.0,0.0,0.0,0.0,0.0,0.0,0.0,0.0,0.0,0.0,0.0,0.0,0.0,0.0,0.0,0.0,0.0,0.0,0.0,0.0,0.0,0.0,0.0,0.0,0.0,0.0,0.0,0.0,0.0,0.0,0.0,0.0,0.0,0.0,0.0,0.0,0.0,0.0,0.0,0.0,0.0,0.0,0.0,0.0,0.0,0.0,0.0,0.0,0.0,0.0,0.0,0.0,0.0,0.0,0.0,0.0,0.0,0.0,0.0,0.0,0.0,0.0,0.0,0.0,0.0,0.0,0.0,0.0,0.0,0.0,0.0,0.0,0.0,0.0,0.0,0.0,0.0,0.0,0.0,0.0,0.0,0.0,0.0,0.0,0.0,0.0,0.0,0.0,0.0,0.0,0.0,0.0,0.0,0.0,0.0,0.0,0.0,0.0,0.0,0.0,0.0,0.0,0.0,0.0,0.0,0.0,0.0,0.0,0.0,0.0,0.0,0.0,0.0,0.0,0.0,0.0,0.0,0.0,0.0,0.0,0.0,0.0,0.0,0.0,0.0,0.0,0.0,0.0,0.0,0.0,0.0,0.0,0.0,0.0,0.0,0.0,0.0,0.0,0.0,0.0,0.0,0.0,0.0,0.0,0.0,0.0,0.0,0.0,0.0,0.0,0.0,0.0,0.0,0.0,0.0,0.0,0.0,0.0,0.0,0.0,0.0,0.0,0.0,0.0,0.0,0.0,0.0,0.0,0.0,0.0,0.0,0.0,0.0,0.0,0.0,0.0,0.0,0.0,0.0,0.0,0.0,0.0,0.0,0.0,0.0,0.0,0.0,0.0,0.0,0.0,0.0,0.0,0.0,0.0,0.0,0.0,0.0,0.0,0.0,0.0,0.0,0.0,0.0,0.0,0.0,0.0,0.0,0.0,0.0,0.0,0.0,0.0,0.0,0.0,0.0,0.0,0.0,0.0,0.0,0.0,0.0,0.0,0.0,0.0,0.0,0.0,0.0,0.0,0.0,0.0,0.0,0.0,0.0,0.0,0.0,0.0,0.0,0.0,0.0,0.0,0.0,0.0,0.0,0.0,0.0,0.0,0.0,0.0,0.0,0.0,0.0,0.0,0.0,0.0,0.0,0.0,0.0,0.0,0.0,0.0,0.0,0.0,0.0,0.0,0.0,0.0,0.0,0.0,0.0,0.0,0.0,0.0,0.0,0.0,0.0,0.0,0.0,0.0,0.0,0.0,0.0,0.0,0.0,0.0,0.0,0.0,0.0,0.0,0.0,0.0,0.0,0.0,0.0,0.0,0.0,0.0,0.0,0.0,0.0,0.0,0.0,0.0,0.0,0.0,0.0,0.0,0.0,0.0,0.0,0.0,0.0,0.0,0.0,0.0,0.0,0.0,0.0,0.0,0.0,0.0,0.0,0.0,0.0,0.0,0.0,0.0,0.0,0.0,0.0,0.0,0.0,0.0,0.0,0.0,0.0,0.0,0.0,0.0,0.0,0.0,0.0,0.0,0.0,0.0,0.0,0.0,0.0,0.0,0.0,0.0,0.0,0.0,0.0,0.0,0.0,0.0,0.0,0.0,0.0,0.0,0.0,0.0,0.0,0.0,0.0,0.0,0.0,0.0,0.0,0.0,0.0,0.0,0.0,0.0,0.0,0.0,0.0,0.0,0.0,0.0,0.0,0.0,0.0,0.0,0.0,0.0,0.0,0.0,0.0,0.0,0.0,0.0,0.0,0.0,0.0,0.0,0.0,0.0,0.0,0.0,0.0,0.0,0.0,0.0,0.0,0.0,0.0,0.0,0.0,0.0,0.0,0.0,0.0,0.0,0.0,0.0,0.0,0.0,0.0,0.0,0.0,0.0,0.0,0.0,0.0,0.0,0.0,0.0,0.0,0.0,0.0,0.0,0.0,0.0,0.0,0.0,0.0,0.0,0.0,0.0,0.0,0.0,0.0,0.0,0.0,0.0,0.0,0.0,0.0,0.0,0.0,0.0,0.0,0.0,0.0,0.0,0.0,0.0,0.0,0.0,0.0,0.0,0.0,0.0,0.0,0.0,0.0,0.0,0.0,0.0,0.0,0.0,0.0,0.0,0.0,0.0,0.0,0.0,0.0,0.0,0.0,0.0,0.0,0.0,0.0,0.0,0.0,0.0,0.0,0.0,0.0,0.0,0.0,0.0,0.0,0.0,0.0,0.0,0.0,0.0,0.0,0.0,0.0,0.0,0.0,0.0,0.0,0.0,0.0,0.0,0.0,0.0,0.0,0.0,0.0,0.0,0.0,0.0,0.0,0.0,0.0,0.0,0.0,0.0,0.0,0.0,0.0,0.0,0.0,0.0,0.0,0.0,0.0,0.0,0.0,0.0,0.0,0.0,0.0,0.0,0.0,0.0,0.0,0.0,0.0,0.0,0.0,0.0,0.0,0.0,0.0,0.0,0.0,0.0,0.0,0.0,-1.2705,-1.2562,0.0,0.0,0.0,0.0,0.0,0.0,0.0,0.0,0.0,0.0,0.0,0.0,0.0,0.0,0.0,0.0,0.0,0.0,0.0,0.0,0.0,0.0,0.0,-0.8885,-0.8885,-0.8885,-0.8885,-0.8885,-0.8885,0.0,0.0,0.0,0.0,0.0,-0.8885,-0.8885,-0.8885,-0.8885,-0.9083,-0.9225,-0.9361,-0.9442,-0.932,-0.9049,0.0,0.0,0.0,0.0,0.0,0.0,0.0,0.0,0.0,0.0,0.0,0.0,0.0,0.0,0.0,0.0,0.0,0.0,0.0,0.0,0.0,0.0,0.0,0.0,0.0,0.0,0.0,0.0,0.0,0.0,0.0,0.0,0.0,0.0,0.0,0.0,0.0,0.0,0.0,0.0,0.0,0.0,0.0,0.0,0.0,0.0,0.0,0.0,0.0,0.0,0.0,0.0,0.0,0.0,0.0,0.0,0.0,0.0,0.0,0.0,0.0,0.0,0.0,0.0,0.0,0.0,0.0,0.0,0.0,0.0,-1.2508,-1.2501,0.0,0.0,0.0,0.0,0.0,0.0,0.0,0.0,0.0,0.0,0.0,0.0,0.0,0.0,0.0,0.0,0.0,0.0,0.0,0.0,0.0,-0.8885,-0.8885,-0.8885,-0.8885,-0.8885,-0.8885,-0.8885,-0.8885,-0.8885,0.0,0.0,-0.8885,-0.8885,-0.8885,-0.8657,-0.8683,-0.8959,-0.9313,-0.9585,-0.9822,-0.9822,-0.9557,-0.9033,-0.9033,0.0,0.0,0.0,0.0,0.0,0.0,0.0,0.0,0.0,0.0,0.0,0.0,0.0,0.0,0.0,0.0,0.0,0.0,0.0,0.0,0.0,0.0,0.0,0.0,0.0,0.0,0.0,0.0,0.0,0.0,0.0,0.0,0.0,0.0,0.0,0.0,0.0,0.0,0.0,0.0,0.0,0.0,0.0,0.0,0.0,0.0,0.0,0.0,0.0,0.0,0.0,0.0,0.0,0.0,0.0,0.0,0.0,0.0,0.0,0.0,0.0,0.0,0.0,-0.7176,-0.8153,-0.8229,-1.0207,-1.1302,-1.1616,-1.1797,-1.2139,-1.2481,-1.2237,0.0,0.0,0.0,0.0,0.0,0.0,0.0,0.0,0.0,0.0,0.0,0.0,0.0,0.0,0.0,0.0,0.0,0.0,0.0,-0.8885,-0.8885,-0.8885,-0.8885,-0.8885,-0.8885,-0.8885,-0.8885,-0.8885,-0.8885,-0.8885,-0.8885,-0.8885,-0.8885,-0.7648,-0.7758,-0.932,-0.9618,-0.9781,-0.9822,-0.9822,-0.9781,-0.9707,-0.9707,-0.9564,-0.9435,0.0,0.0,0.0,0.0,0.0,0.0,0.0,0.0,0.0,0.0,0.0,0.0,0.0,0.0,0.0,0.0,0.0,0.0,0.0,0.0,0.0,0.0,0.0,0.0,0.0,0.0,0.0,0.0,0.0,0.0,0.0,0.0,0.0,0.0,0.0,0.0,0.0,0.0,0.0,0.0,0.0,0.0,0.0,0.0,0.0,0.0,0.0,0.0,0.0,0.0,0.0,0.0,0.0,0.0,0.0,0.0,-0.0511,-0.0806,-0.0826,-0.0836,-0.0836,-0.294,-0.3901,-0.3979,-0.6072,-0.801,-0.9712,-0.9461,0.0,-1.2501,-1.2461,0.0,0.0,0.0,0.0,0.0,0.0,0.0,0.0,0.0,0.0,0.0,0.0,0.0,0.0,0.0,0.0,0.0,0.0,0.0,0.0,0.0,-0.9089,-0.9191,-0.9191,-0.934,-0.9361,-0.9198,-0.9191,-0.911,-0.8892,-0.8097,-0.7648,-0.7648,-0.62,-0.6412,-0.8361,-0.7501,-0.8185,-1.026,-0.9288,-0.9352,-1.0324,-1.0324,-1.0066,-0.9685,-1.0272,0.0,0.0,0.0,0.0,0.0,0.0,0.0,0.0,0.0,0.0,0.0,0.0,0.0,0.0,0.0,0.0,0.0,0.0,0.0,0.0,0.0,0.0,0.0,0.0,0.0,0.0,0.0,0.0,0.0,0.0,0.0,0.0,0.0,0.0,0.0,0.0,0.0,0.0,0.0,0.0,0.0,0.0,0.0,0.0,0.0,0.0,0.0,0.0,0.0,0.0,0.0,0.0,0.0,0.0,0.0,0.0,0.0,0.0,0.0,0.0,-0.2104,-0.313,-0.3208,-0.5318,-0.68,-0.773,-0.8731,-0.9746,-1.0845,-1.1861,-1.2257,-1.223,0.0,0.0,0.0,0.0,-1.166,-1.1823,0.0,0.0,0.0,0.0,0.0,0.0,0.0,0.0,0.0,0.0,0.0,0.0,-0.9049,-0.932,-0.9496,-0.9496,-0.9693,-0.9693,-0.9401,-0.9381,-0.9074,-0.8393,-0.726,-0.6518,-0.6157,-0.5137,-0.5159,-0.6332,-0.544,-0.6758,-0.9981,-0.8634,-0.8972,-1.0717,-1.0717,-1.0432,-0.9937,-0.9937,-1.0524,-1.146,0.0,0.0,0.0,0.0,0.0,0.0,0.0,0.0,0.0,0.0,0.0,0.0,0.0,0.0,0.0,0.0,0.0,0.0,0.0,0.0,0.0,0.0,0.0,0.0,0.0,0.0,0.0,0.0,0.0,0.0,0.0,0.0,0.0,0.0,0.0,0.0,0.0,0.0,0.0,0.0,0.0,0.0,0.0,0.0,0.0,0.0,0.0,0.0,0.0,0.0,0.0,0.0,0.0,0.0,0.0,0.0,0.0,0.0,-0.1568,-0.2272,-0.2349,-0.3992,-0.5006,-0.5552,-0.7111,-0.8434,-0.9516,-1.1422,-1.2176,-1.2169,-1.2169,-1.1952,-1.1789,-1.1782,-1.185,-1.1945,0.0,0.0,0.0,0.0,0.0,0.0,0.0,0.0,0.0,0.0,0.0,-0.9361,-0.9361,-0.9625,-0.9795,-0.9795,-0.9815,-0.9693,-0.9401,-0.9381,-0.8609,-0.6877,-0.6755,-0.6042,-0.4637,-0.4814,-0.4227,-0.2951,-0.4553,-0.6356,-0.8163,-0.803,-0.8972,-1.0717,-1.0717,-1.0548,-1.0256,-1.0256,-1.0937,-1.1937,-1.1469,0.0,0.0,0.0,0.0,0.0,0.0,0.0,0.0,0.0,0.0,0.0,0.0,0.0,0.0,0.0,0.0,0.0,0.0,0.0,0.0,0.0,0.0,0.0,0.0,0.0,0.0,0.0,0.0,0.0,0.0,0.0,0.0,0.0,0.0,0.0,0.0,0.0,0.0,0.0,0.0,0.0,0.0,0.0,0.0,0.0,0.0,0.0,0.0,0.0,0.0,0.0,0.0,0.0,0.0,0.0,0.0,0.0,-0.0079,-0.0157,-0.0157,-0.0236,-0.1411,-0.3286,-0.3365,-0.5705,-0.9532,-1.1624,-1.2481,-1.2454,-1.2169,-1.2142,-1.2203,-1.1782,-1.1898,-1.2244,0.0,0.0,0.0,0.0,0.0,-1.4449,-1.1538,-1.1109,-1.0562,-0.9099,-0.9198,-0.9381,-0.9381,-0.9822,-1.0114,-1.0114,-1.029,-1.0276,-0.9978,-0.8894,-0.7857,-0.6986,-0.4951,-0.3124,-0.1633,-0.1699,-0.2092,-0.27,-0.2185,-0.4021,-0.7964,-0.6831,-0.7902,-1.0717,-1.0717,-1.0663,-1.0561,-1.0561,-1.065,-1.0743,-1.0567,-1.0186,0.0,0.0,0.0,0.0,0.0,0.0,0.0,0.0,0.0,0.0,0.0,0.0,0.0,0.0,0.0,0.0,0.0,0.0,0.0,0.0,0.0,0.0,0.0,0.0,0.0,0.0,0.0,0.0,0.0,0.0,0.0,0.0,0.0,0.0,0.0,0.0,0.0,0.0,0.0,0.0,0.0,0.0,0.0,0.0,0.0,0.0,0.0,0.0,0.0,0.0,0.0,0.0,0.0,0.0,0.0,0.0,0.0,0.0,0.0,0.0,-0.0384,-0.115,-0.2526,-0.4662,-0.7401,-0.9536,-1.1194,-1.2352,-1.225,-1.2182,-1.2121,-1.1965,-1.2006,-1.2135,0.0,0.0,0.0,-1.5037,-1.4716,-1.3696,-1.0781,-1.0351,-1.0067,-0.9181,-0.9347,-0.9571,-0.9673,-1.0127,-1.0426,-1.0426,-1.0609,-1.0527,-1.008,-0.8539,-0.7163,-0.6149,-0.3117,-0.1007,0.0,0.0,-0.0576,-0.1816,-0.0593,-0.2383,-0.6994,-0.5811,-0.7215,-1.0643,-1.0643,-1.067,-1.0717,-1.0717,-1.0548,-1.0263,-1.0114,-0.9666,-0.9089,0.0,0.0,0.0,0.0,0.0,0.0,0.0,0.0,0.0,0.0,0.0,0.0,0.0,0.0,0.0,0.0,0.0,0.0,0.0,0.0,0.0,0.0,0.0,0.0,0.0,0.0,0.0,0.0,0.0,0.0,0.0,0.0,0.0,0.0,0.0,0.0,0.0,0.0,0.0,0.0,0.0,0.0,0.0,0.0,0.0,0.0,0.0,0.0,0.0,0.0,0.0,0.0,0.0,0.0,0.0,0.0,0.0,0.0,0.0,0.0,-0.0075,-0.1432,-0.3156,-0.5215,-0.7277,-0.9285,-1.1227,-1.1963,-1.2149,-1.2135,-1.2135,-1.2135,-1.2135,0.0,-1.7582,-1.6711,-1.3804,-1.3318,-1.2299,-0.9375,-0.8885,-0.9042,-0.9327,-0.9632,-0.9937,-1.0236,-1.0534,-1.0717,-1.0717,-1.0717,-1.0405,-0.9673,-0.8337,-0.6537,-0.4209,-0.1541,-0.0059,0.0,0.0,0.0,0.0,0.0,-0.1739,-0.507,-0.507,-0.7043,-1.0487,-1.0487,-1.0575,-1.0711,-1.0717,-1.0717,-1.0683,-1.0313,-0.9862,-0.9388,0.0,0.0,0.0,0.0,0.0,0.0,0.0,0.0,0.0,0.0,0.0,0.0,0.0,0.0,0.0,0.0,0.0,0.0,0.0,0.0,0.0,0.0,0.0,0.0,0.0,0.0,0.0,0.0,0.0,0.0,0.0,0.0,0.0,0.0,0.0073,0.0074,0.0,0.0075,0.0076,0.0,0.0,0.0,0.0,0.0,0.0,0.0,0.0,0.0,0.0,0.0,0.0,0.0,0.0,0.0,0.0,0.0,0.0,0.0,0.0,0.0,0.0,0.0,-0.1192,-0.3205,-0.5143,-0.71,-0.9103,-1.1244,-1.2128,-1.2047,-1.2047,-1.2047,-1.2047,-1.7582,-1.7582,-1.6711,-1.3804,-1.3318,-1.2299,-0.9375,-0.8885,-0.8912,-0.9049,-0.9503,-0.9856,-0.9937,-1.0412,-1.0717,-1.0717,-1.0717,-1.0493,-0.9964,-0.8414,-0.5983,-0.2769,-0.1947,-0.1082,0.0,0.0,0.0,0.0,0.0,-0.1739,-0.507,-0.507,-0.7011,-1.0344,-1.0446,-1.0514,-1.0561,-1.067,-1.0717,-1.0711,-1.0588,-1.027,-0.9937,0.0,0.0,0.0,0.0,0.0,0.0,0.0,0.0,0.0,0.0,0.0,0.0,0.0,0.0,0.0,0.0,0.0,0.0,0.0,0.0,0.0,0.0,0.0,0.0,0.0,0.0,0.0,0.0,0.0,0.0,0.0,0.0,0.0,0.0,0.1229,0.1593,0.0146,0.1249,0.1545,0.0147,0.0,0.0,0.0,0.0,0.0,0.0,0.0,0.0,0.0,0.0,0.0,0.0,0.0,0.0,0.0,0.0,0.0,0.0,0.0,0.0,0.0,0.0,-0.11,-0.2981,-0.3514,-0.571,-0.8977,-1.1091,-1.183,-1.1742,-1.1742,-1.1742,-1.1728,-1.7582,-1.7582,-1.6882,-1.4556,-1.3696,-1.2507,-1.0186,-0.932,-0.8925,-0.911,-0.953,-0.9869,-0.9998,-1.0439,-1.0717,-1.0717,-1.0717,-1.0453,-0.9876,-0.8119,-0.5663,-0.2437,-0.2346,-0.1673,-0.0063,0.0,0.0,0.0,0.0,-0.1707,-0.5042,-0.5042,-0.689,-1.0188,-1.0337,-1.0432,-1.05,-1.0656,-1.0717,-1.0717,-1.0717,-1.0453,-1.0066,-1.0222,-0.9998,-0.9632,-0.9768,-0.9822,-0.9808,-0.9727,0.0,0.0,0.0,0.0,0.0,0.0,0.0,0.0,0.0,0.0,0.0,0.0,0.0,0.0,0.0,0.0,0.0,0.0,0.0,0.0,0.0,0.0,0.0,0.0,0.0,0.0,0.0,0.0941,0.13,0.0146,0.102,0.1239,0.0146,0.0,0.0,0.0,0.0,0.0,0.0,0.0,0.0,0.0,0.0,0.0,0.0,0.0,0.0,0.0,0.0,0.0,0.0,0.0,0.0,0.0,0.0,-0.0652,-0.172,-0.2533,-0.4213,-0.6532,0.0,0.0,0.0,0.0,-1.1619,-1.1606,-1.7689,-1.7662,-1.7146,-1.5512,-1.4148,-1.2733,-1.1135,-0.9761,-0.9049,-0.9367,-0.9646,-0.9937,-1.0249,-1.0541,-1.0717,-1.0717,-1.069,-1.031,-0.9462,-0.7874,-0.5886,-0.3318,-0.3273,-0.23,-0.0329,-0.0326,-0.0193,0.0,0.0,-0.1667,-0.4916,-0.4916,-0.6742,-0.997,-1.0202,-1.0351,-1.048,-1.0649,-1.0717,-1.0717,-1.0717,-1.048,-1.0078,-1.0276,-1.008,-0.9747,-0.9876,-0.9924,-0.9917,-0.9903,0.0,0.0,0.0,0.0,0.0,0.0,0.0,0.0,0.0,0.0,0.0,0.0,0.0,0.0,0.0,0.0,0.0,0.0,0.0,0.0,0.0,0.0,0.0,0.0,0.0,0.0,0.0,0.0,0.0,0.0,0.0219,0.0219,0.0,0.0,0.0,0.0,0.0,0.0,0.0,0.0,0.0,0.0,0.0,0.0,0.0,0.0,0.0,0.0,0.0,0.0,0.0,0.0,0.0,0.0,0.0,0.0,-0.0141,-0.1874,-0.2691,-0.327,-0.7178,-0.9723,-1.1325,-1.1527,-1.1606,-1.1619,-1.8317,-1.8116,-1.7121,-1.4461,-1.3604,-1.2455,-0.9924,-0.9175,-0.9033,-0.951,-0.9713,-0.9937,-1.0249,-1.0541,-1.0717,-1.0717,-1.05,-1.0141,-0.9598,-0.9023,-0.8067,-0.6571,-0.6602,-0.5222,-0.2233,-0.2164,-0.1489,0.0,0.0,-0.1684,-0.4916,-0.4916,-0.6644,-0.9876,-1.0154,-1.0297,-1.0337,-1.0609,-1.0717,-1.0717,-1.0717,-1.067,-1.0595,-1.0622,-1.0582,-1.0507,-1.0534,-1.0548,-1.0527,-1.0405,-0.8349,-0.5706,-0.5202,-0.2942,0.0,0.0,0.0,0.0,0.0,0.0,0.0,0.0,0.0,0.0,0.0,0.0,0.0,0.0,0.0,0.0,0.0,0.0,0.0,0.0,0.0,0.0,0.0,0.0,0.0,0.0,0.1384,0.1748,0.0146,0.0,0.0,0.0,0.0,0.0,0.0,0.0,0.0,0.0,0.0,0.0,0.0,0.0,0.0,0.0,0.0,0.0,0.0,0.0,0.0,0.0,0.0,0.0,0.0,-0.0437,-0.1456,-0.327,-0.7178,-0.892,-0.9419,-1.0902,-1.1511,-1.1599,-1.8931,-1.7931,-1.6342,-1.4096,-1.3,-1.1966,-1.055,-0.9653,-0.9239,-0.9462,-0.9686,-0.991,-1.0141,-1.0297,-1.0412,-1.0493,-1.0161,-0.9944,-0.9944,-0.9727,-0.9031,-0.7765,-0.7772,-0.6623,-0.4136,-0.4071,-0.3185,-0.1338,-0.2228,-0.3485,-0.5025,-0.5906,-0.7661,-1.0059,-1.0283,-1.0385,-1.0399,-1.0622,-1.0717,-1.0717,-1.0717,-1.0717,-1.0717,-1.0717,-1.0717,-1.0717,-1.0717,-1.0717,-1.0711,-1.0629,-0.9479,-0.7756,-0.5837,-0.4067,-0.2348,0.0,0.0,0.0,0.0,0.0,0.0,0.0,0.0,0.0,0.0,0.0,0.0,0.0,0.0,0.0,0.0,0.0,0.0,0.0,0.0,0.0,0.0,0.0,0.0,0.0,0.0874,0.1093,0.0073,0.0,0.0,0.0,0.0,0.0,0.0,0.0,0.0,0.0,0.0,0.0,0.0,0.0,0.0,0.0,0.0,0.0,0.0,0.0,0.0,0.0,0.0,0.0,0.0,0.0,-0.0583,-0.1748,-0.4646,-0.6962,-0.8842,-0.9721,-1.0681,-1.1606,-1.901,-1.7219,-1.5421,-1.4049,-1.2527,-1.1438,-1.1191,-1.0142,-0.9415,-0.9496,-0.9693,-0.9876,-0.997,-0.9984,-1.0004,-1.01,-0.9829,-0.9802,-1.0168,-1.0127,-0.957,-0.8552,-0.8501,-0.7725,-0.5931,-0.5927,-0.5037,-0.3226,-0.4708,-0.5472,-0.565,-0.7125,-0.8666,-1.029,-1.0426,-1.0493,-1.05,-1.0656,-1.0717,-1.0717,-1.0717,-1.0717,-1.0717,-1.0717,-1.0717,-1.0717,-1.0717,-1.0717,-1.0717,-1.0717,-1.0452,-0.9643,-0.6431,-0.5133,-0.4218,-0.0947,0.0,0.0,0.0,0.0,0.0,0.0,0.0,0.0,0.0,0.0,0.0,0.0,0.0,0.0,0.0,0.0,0.0,0.0,0.0,0.0,0.0,0.0,0.0,0.0,0.0,0.0,0.0,0.0,0.0,0.0,0.0,0.0,0.0,0.0,0.0,0.0,0.0,0.0,0.0,0.0,0.0,0.0,0.0,0.0,0.0,0.0,0.0,0.0,0.0,0.0,0.0,0.0,0.0,-0.0146,-0.1748,-0.4501,-0.7616,-0.7977,-0.9357,-1.1038,-1.756,-1.5917,-1.4703,-1.4371,-1.2742,-1.1141,-0.9971,-0.9586,-0.9523,-0.9862,-0.9883,-0.9876,-0.997,-0.9984,-0.9835,-0.9517,-0.9673,-0.9822,-0.9869,-1.0114,-1.0327,-1.0373,-1.0386,-0.957,-0.7744,-0.7678,-0.6832,-0.5106,-0.5301,-0.6114,-0.7508,-0.7704,-0.8666,-1.029,-1.0426,-1.0493,-1.05,-1.0656,-1.0717,-1.0717,-1.0717,-1.0717,-1.0717,-1.0717,-1.0717,-1.0717,-1.0717,-1.0717,-1.0717,-1.0717,-0.9643,-0.7964,-0.603,-0.4297,-0.263,-0.0615,0.0,0.0,0.0,0.0,0.0,0.0,0.0,0.0,0.0,0.0,0.0,0.0,0.0,0.0,0.0,0.0,0.0,0.0,0.0,0.0,0.0,0.0,0.0,0.0,0.0,0.0,0.0,0.0,0.0,0.0,0.0,0.0,0.0,0.0,0.0,0.0,0.0,0.0,0.0,0.0,0.0,0.0,0.0,0.0,0.0,0.0,0.0,0.0,0.0,0.0,0.0,0.0,0.0,0.0,-0.0219,-0.1675,-0.3778,-0.5518,-0.7327,-0.8992,-1.8519,-1.6326,-1.4579,-1.4537,-1.2327,-1.0301,-0.978,-0.968,-0.9707,-0.989,-0.9788,-0.9788,-0.9963,-0.9835,-0.9612,-0.9164,-0.9395,-0.9639,-0.9808,-1.0107,-1.0412,-1.0711,-1.0717,-1.0319,-0.9576,-0.9576,-0.8679,-0.6903,-0.7964,-0.8273,-0.7958,-0.9015,-0.9876,-1.0541,-1.0602,-1.0622,-1.0629,-1.0697,-1.0717,-1.0717,-1.0717,-1.0717,-1.0717,-1.0717,-1.0717,-1.0697,-1.0527,-1.0466,0.0,-1.0466,-0.9935,-0.9045,-0.7393,-0.5697,-0.3884,-0.2108,-0.081,0.0,0.0,0.0,0.0,0.0,0.0,0.0,0.0,0.0,0.0,0.0,0.0,0.0,0.0,0.0,0.0,0.0,0.0,0.0,0.0,0.0,0.0,0.0,0.0,0.0,0.0,0.0,0.0,0.0,0.0,0.0,0.0,0.0,0.0,0.0,0.0,0.0,0.0,0.0,0.0,0.0,0.0,0.0,0.0,0.0,0.0,0.0,0.0,0.0,0.0,0.0,0.0,0.0,0.0,-0.0502,-0.1425,-0.3369,-0.531,-0.7023,-1.7998,-1.5799,-1.3944,-1.3944,-1.1615,-0.9822,-0.9822,-0.9822,-0.9822,-0.9822,-0.9734,-0.972,-0.9849,-0.9673,-0.9381,-0.8919,-0.9286,-0.9591,-0.9808,-1.0148,-1.0453,-1.0711,-1.0717,-1.0717,-1.0717,-1.0717,-1.0047,-0.8767,-1.0047,-1.0047,-0.8767,-1.0114,-1.0717,-1.0717,-1.0717,-1.0717,-1.0717,-1.0717,-1.0717,-1.0717,-1.0717,-1.0717,-1.0717,-1.0717,-1.067,-1.0568,-1.0358,-1.0283,-1.027,-1.0181,-1.0209,-0.9914,-0.7816,-0.6356,-0.4978,-0.2605,-0.1057,0.0,0.0,0.0,0.0,0.0,0.0,0.0,0.0,0.0,0.0,0.0,0.0,0.0,0.0,0.0,0.0,0.0,0.0,0.0,0.0,0.0,0.0,0.0,0.0,0.0,0.0,0.0,0.0,0.0,0.0,0.0,0.0,0.0,0.0,0.0,0.0,0.0,0.0,0.0,0.0,0.0,0.0,0.0,0.0,0.0,0.0,0.0,0.0,0.0,0.0,0.0,0.0,0.0,0.0,0.0,-0.014,-0.155,-0.3321,-0.5023,-1.4566,-1.3327,-1.2277,-1.2277,-1.0899,-0.9822,-0.9822,-0.9822,-0.9822,-0.9822,-0.9815,-0.9707,-0.9435,-0.9395,-0.9266,-0.8912,-0.9469,-0.9815,-0.9822,-1.0236,-1.0555,-1.0711,-1.0717,-1.0717,-1.0717,-1.0717,-1.0651,-1.0651,-1.0651,-1.0651,-1.0651,-1.0651,-1.0717,-1.0717,-1.0717,-1.0717,-1.0717,-1.0717,-1.0717,-1.0717,-1.0717,-1.0717,-1.0717,-1.0717,-1.0541,-1.029,-1.0283,-1.0283,-1.0236,-0.9937,-1.0032,-0.9653,-0.6089,-0.515,-0.4692,-0.1098,-0.0065,0.0,0.0,0.0,0.0,0.0,0.0,0.0,0.0,0.0,0.0,0.0,0.0,0.0,0.0,0.0,0.0,0.0,0.0,0.0,0.0,0.0,0.0,0.0,0.0,0.0,0.0,0.0,0.0,0.0,0.0,0.0,0.0,0.0,0.0,0.0,0.0,0.0,0.0,0.0,0.0,0.0,0.0,0.0,0.0,0.0,0.0,0.0,0.0,0.0,0.0,0.0,0.0,0.0,0.0,0.0,0.0,-0.0069,-0.1316,-0.3011,-1.467,-1.3435,-1.23,-1.2234,-1.0899,-0.9822,-0.9822,-0.9822,-0.9822,-0.9822,-0.9822,0.0,0.0,0.0,0.0,0.0,-0.9178,-0.9361,-0.9659,-0.991,-1.0202,-1.0555,-1.0663,-1.0717,-1.0717,-1.0717,-1.0717,-1.0717,-1.0717,-1.0717,-1.0717,-1.0717,-1.0717,-1.0717,-1.0717,-1.0717,-1.0717,-1.0717,-1.0717,-1.0717,-1.0717,-1.0717,-1.0697,-1.05,-1.0365,-1.0229,0.0,-0.9686,-0.9666,-0.9564,-0.9598,-0.9333,-0.7342,-0.5916,-0.4419,-0.0971,0.0,0.0,0.0,0.0,0.0,0.0,0.0,0.0,0.0,0.0,0.0,0.0,0.0,0.0,0.0,0.0,0.0,0.0,0.0,0.0,0.0,0.0,0.0,0.0,0.0,0.0,0.0,0.0,0.0,0.0,0.0,0.0,0.0,0.0,0.0,0.0,0.0,0.0,0.0,0.0,0.0,0.0,0.0,0.0,0.0,0.0,0.0,0.0,0.0,0.0,0.0,0.0,0.0,0.0,0.0,0.0,0.0,0.0,-0.0408,-0.0954,0.0,-1.23,-1.1643,-1.1525,-1.0656,0.0,0.0,0.0,0.0,0.0,0.0,0.0,0.0,0.0,0.0,0.0,0.0,-0.9279,-0.951,-0.9666,-0.9897,-1.0236,-1.0344,-1.0399,-1.0399,-1.0507,-1.0561,-1.0561,-1.067,-1.0717,-1.0717,-1.0717,-1.0717,-1.0717,-1.0717,-1.0717,-1.0717,-1.0717,-1.0717,-1.0711,-1.0609,-1.0561,-1.0527,-1.0229,-1.0053,0.0,-0.9523,-0.9313,-0.9225,-0.9225,-0.9293,-0.9162,-0.7696,-0.5726,-0.3536,-0.157,-0.0508,0.0,0.0,0.0,0.0,0.0,0.0,0.0,0.0,0.0,0.0,0.0,0.0,0.0,0.0,0.0,0.0,0.0,0.0,0.0,0.0,0.0,0.0,0.0,0.0,0.0,0.0,0.0,0.0,0.0,0.0,0.0,0.0,0.0,0.0,0.0,0.0,0.0,0.0,0.0,0.0,0.0,0.0,0.0,0.0,0.0,0.0,0.0,0.0,0.0,0.0,0.0,0.0,0.0,0.0,0.0,0.0,0.0,0.0,0.0,0.0,0.0,-1.029,0.0,0.0,0.0,0.0,0.0,0.0,0.0,0.0,0.0,0.0,0.0,0.0,0.0,0.0,0.0,-0.9381,-0.951,-0.9659,-0.9802,-0.9815,-0.9822,-0.9822,-1.0107,-1.0256,-1.0256,-1.0534,-1.0677,-1.0677,-1.0677,-1.0677,-1.0677,-1.0677,-1.0677,-1.0677,-1.0677,-1.0677,-1.0649,-1.0371,-1.0256,-1.0222,-0.9917,-0.9625,-0.9381,-0.9361,-0.9178,-0.8885,-0.8885,-0.9087,-0.8993,-0.7319,-0.4772,-0.2449,-0.2655,-0.1484,-0.0131,0.0,0.0,0.0,0.0,0.0,0.0,0.0,0.0,0.0,0.0,0.0,0.0,0.0,0.0,0.0,0.0,0.0,0.0,0.0,0.0,0.0,0.0,0.0,0.0,0.0,0.0,0.0,0.0,0.0,0.0,0.0,0.0,0.0,0.0,0.0,0.0,0.0,0.0,0.0,0.0,0.0,0.0,0.0,0.0,0.0,0.0,0.0,0.0,0.0,0.0,0.0,0.0,0.0,0.0,0.0,0.0,0.0,0.0,0.0,0.0,0.0,0.0,0.0,0.0,0.0,0.0,0.0,0.0,0.0,0.0,0.0,0.0,0.0,0.0,0.0,0.0,-0.9275,-0.9354,-0.9503,-0.9659,-0.9768,-0.9822,-0.9822,-0.9897,-0.9937,-0.9937,-1.0012,-1.0053,-1.0053,-1.0053,-1.0053,-1.0053,-1.0053,-1.0053,-1.0053,-1.0053,-1.0053,-1.0046,-0.9964,-0.9937,-0.9903,-0.9605,-0.9449,-0.9354,-0.913,-0.8946,-0.8885,-0.8885,-0.8464,-0.7838,-0.7593,-0.6292,-0.4588,-0.323,-0.2499,-0.185,-0.0409,0.0,0.0,0.0,0.0,0.0,0.0,0.0,0.0,0.0,0.0,0.0,0.0,0.0,0.0,0.0,0.0,0.0,0.0,0.0,0.0,0.0,0.0,0.0,0.0,0.0,0.0,0.0,0.0,0.0,0.0,0.0,0.0,0.0,0.0,0.0,0.0,0.0,0.0,0.0,0.0,0.0,0.0,0.0,0.0,0.0,0.0,0.0,0.0,0.0,0.0,0.0,0.0,0.0,0.0,0.0,0.0,0.0,0.0,0.0,0.0,0.0,0.0,0.0,0.0,0.0,0.0,0.0,0.0,0.0,0.0,0.0,0.0,0.0,0.0,0.0,0.0,-0.9367,-0.9422,-0.9503,-0.9523,-0.953,-0.953,-0.953,-0.9591,-0.9727,-0.9727,-0.9795,-0.9856,-0.9849,-0.9822,-0.9822,-0.9822,-0.9822,-0.9822,-0.9822,-0.9822,0.0,0.0,-0.9625,-0.9605,-0.9367,-0.9337,-0.9266,-0.9171,-0.913,-0.9171,-0.9435,-0.9025,-0.842,-0.8913,-0.8,-0.6566,-0.5631,-0.4765,-0.3771,-0.1812,-0.1282,-0.1093,-0.0219,0.0,0.0,0.0,0.0,0.0,0.0,0.0,0.0,0.0,0.0,0.0,0.0,0.0,0.0,0.0,0.0,0.0,0.0,0.0,0.0,0.0,0.0,0.0,0.0,0.0,0.0,0.0,0.0,0.0,0.0,0.0,0.0,0.0,0.0,0.0,0.0,0.0,0.0,0.0,0.0,0.0,0.0,0.0,0.0,0.0,0.0,0.0,0.0,0.0,0.0,0.0,0.0,0.0,0.0,0.0,0.0,0.0,0.0,0.0,0.0,0.0,0.0,0.0,0.0,-1.0324,-1.0337,-1.0337,-1.0337,0.0,0.0,0.0,0.0,0.0,0.0,-0.9381,-0.9381,-0.9309,-0.9241,-0.9241,-0.9241,-0.9313,-0.9578,-0.9578,-0.9707,-0.9896,-0.9802,-0.9734,-0.9734,-0.9734,-0.9734,-0.9734,-0.9754,-0.9761,-0.9741,-0.9483,-0.9381,-0.9367,0.0,-0.9241,-0.9255,-0.9334,-0.9381,-0.9476,-1.01,-1.0053,-0.9856,-1.0582,-0.9721,-0.8512,-0.8542,-0.7406,-0.5778,-0.381,-0.3262,-0.2909,-0.1166,-0.0802,-0.0725,-0.0425,-0.0351,-0.0278,-0.0068,0.0,0.0,0.0,0.0,0.0,0.0,0.0,0.0,0.0,0.0,0.0,0.0,0.0,0.0,0.0,0.0,0.0,0.0,0.0,0.0,0.0,0.0,0.0,0.0,0.0,0.0,0.0,0.0,0.0,0.0,0.0,0.0,0.0,0.0,0.0,0.0,0.0,0.0,0.0,0.0,0.0,0.0,0.0,0.0,0.0,0.0,0.0,0.0,0.0,0.0,0.0,0.0,0.0,0.0,0.0,0.0,0.0,0.0,-1.0568,-1.0643,0.0,0.0,0.0,0.0,0.0,0.0,0.0,0.0,0.0,-0.9381,-0.9354,-0.934,-0.934,-0.934,-0.9367,-0.9422,-0.9422,-0.9449,-0.9496,-0.934,-0.9323,-0.9323,-0.9323,-0.9323,-0.9337,-0.9401,-0.9456,-0.9456,-0.9401,-0.9381,-0.9374,-0.9354,0.0,0.0,-0.9374,-0.9381,-0.949,-1.0209,-1.0405,-1.0446,-1.1077,-1.1131,-1.0677,-0.9126,-0.8439,-0.775,-0.5859,-0.5285,-0.5229,-0.4866,-0.4796,-0.4356,-0.2747,-0.2416,-0.1946,-0.0338,0.0,0.0,0.0,0.0,0.0,0.0,0.0,0.0,0.0,0.0,0.0,0.0,0.0,0.0,0.0,0.0,0.0,0.0,0.0,0.0,0.0,0.0,0.0,0.0,0.0,0.0,0.0,0.0,0.0,0.0,0.0,0.0,0.0,0.0,0.0,0.0,0.0,0.0,0.0,0.0,0.0,0.0,0.0,0.0,0.0,0.0,0.0,0.0,0.0,0.0,0.0,0.0,0.0,0.0,-1.0616,-1.067,-1.0636,-1.0412,-1.0507,-1.0575,-1.05,-1.0493,-1.0466,0.0,0.0,0.0,0.0,0.0,0.0,-0.9612,-0.9537,0.0,-0.9503,-0.9347,-0.934,-0.9503,0.0,-0.9347,-0.9496,-0.934,-0.933,-0.933,-0.933,-0.933,-0.933,-0.9347,-0.9381,-0.9381,-0.9381,-0.9381,-0.9388,0.0,0.0,0.0,-0.9612,-0.9612,-0.9686,-1.0209,-1.0385,-1.0514,-1.1274,-1.1558,-1.1415,-1.0335,-1.0094,-0.9738,-0.7659,-0.7185,-0.7038,-0.6025,-0.5808,-0.5264,-0.3371,-0.2904,-0.2369,-0.039,0.0,0.0,0.0,0.0,0.0,0.0,0.0,0.0,0.0,0.0,0.0,0.0,0.0,0.0,0.0,0.0,0.0,0.0,0.0,0.0,0.0,0.0,0.0,0.0,0.0,0.0,0.0,0.0,0.0,0.0,0.0,0.0,0.0,0.0,0.0,0.0,0.0,0.0,0.0,0.0,0.0,0.0,0.0,0.0,0.0,0.0,0.0,0.0,0.0,0.0,0.0,0.0,0.0,0.0,-1.0514,-1.0595,-1.0568,-1.027,-1.0331,-1.0344,-1.0195,-1.0243,-1.0324,0.0,0.0,0.0,0.0,0.0,0.0,0.0,0.0,0.0,-0.9652,0.0,0.0,-0.9652,-0.9415,0.0,0.0,0.0,0.0,0.0,-0.9429,-0.9429,-0.9435,-0.9462,-0.9476,0.0,0.0,-0.9476,-0.949,0.0,0.0,0.0,0.0,-0.9822,-0.9869,-1.0175,-1.0283,-1.0412,-1.1185,-1.143,-1.1389,-1.1212,-1.1335,-1.1122,-0.9467,-0.9144,-0.8925,-0.7404,-0.7042,-0.6527,-0.4515,-0.3773,-0.2977,-0.0944,-0.0248,0.0,0.0,0.0,0.0,0.0,0.0,0.0,0.0,0.0,0.0,0.0,0.0,0.0,0.0,0.0,0.0,0.0,0.0,0.0,0.0,0.0,0.0,0.0,0.0,0.0,0.0,0.0,0.0,0.0,0.0,0.0,0.0,0.0,0.0,0.0,0.0,0.0,0.0,0.0,0.0,0.0,0.0,0.0,0.0,0.0,0.0,0.0,0.0,0.0,0.0,0.0,0.0,0.0,-1.0514,-1.0507,-1.0405,-1.0044,-1.0017,-0.997,-0.9876,-1.0114,-1.0283,0.0,0.0,0.0,0.0,0.0,0.0,0.0,0.0,0.0,0.0,0.0,0.0,-0.9802,-0.9774,0.0,0.0,0.0,0.0,0.0,0.0,-0.9591,-0.9598,-0.9727,0.0,0.0,0.0,0.0,0.0,0.0,0.0,0.0,0.0,-0.9822,-0.9869,-1.0175,-1.0283,-1.0344,-1.069,-1.0806,-1.0853,-1.109,-1.1255,-1.126,-1.1291,-1.1305,-1.1253,-1.1109,-1.1038,-1.0519,-0.8328,-0.6613,-0.4914,-0.2707,-0.1068,0.0,0.0,0.0,0.0,0.0,0.0,0.0,0.0,0.0,0.0,0.0,0.0,0.0,0.0,0.0,0.0,0.0,0.0,0.0,0.0,0.0,0.0,0.0,0.0,0.0,0.0,0.0,0.0,0.0,0.0,0.0,0.0,0.0,0.0,0.0,0.0,0.0,0.0,0.0,0.0,0.0,0.0,0.0,0.0,0.0,0.0,0.0,0.0,0.0,0.0,0.0,0.0,0.0,-1.0514,-1.0568,-1.0487,-1.0038,-1.0134,-1.0093,-0.9849,-0.993,-1.0039,-1.0134,-0.9998,0.0,0.0,0.0,0.0,0.0,0.0,0.0,0.0,0.0,-0.9822,-0.9822,-0.9822,0.0,0.0,0.0,0.0,0.0,0.0,-0.9734,-0.9741,-0.9795,0.0,0.0,0.0,0.0,0.0,0.0,0.0,0.0,0.0,0.0,-0.9842,-0.9964,-1.0005,-1.0025,-1.0141,-1.0181,-1.0236,-1.0541,-1.0954,-1.1151,-1.1097,-1.1341,-1.1619,-1.1619,-1.1619,-1.0986,-0.8802,-0.7761,-0.6411,-0.316,-0.1988,-0.1175,-0.0188,0.0,0.0,0.0,0.0,0.0,0.0,0.0,0.0,0.0,0.0,0.0,0.0,0.0,0.0,0.0,0.0,0.0,0.0,0.0,0.0,0.0,0.0,0.0,0.0,0.0,0.0,0.0,0.0,0.0,0.0,0.0,0.0,0.0,0.0,0.0,0.0,0.0,0.0,0.0,0.0,0.0,0.0,0.0,0.0,0.0,0.0,0.0,0.0,0.0,0.0,-1.067,-1.0514,-1.0582,-1.0527,-1.0161,-1.0215,-1.0181,-0.9917,-0.989,-0.9856,-0.9916,-0.9883,0.0,0.0,0.0,0.0,0.0,0.0,0.0,0.0,0.0,-0.9822,-0.9822,-0.9822,-0.9822,0.0,0.0,-0.9822,-0.9822,0.0,0.0,0.0,0.0,0.0,0.0,0.0,0.0,0.0,0.0,0.0,0.0,0.0,0.0,0.0,0.0,0.0,-0.9822,-0.9822,-0.9822,-0.9883,-1.0188,-1.0636,-1.1002,-1.0887,-1.1226,-1.1619,-1.1619,-1.1552,-1.1067,-0.9411,-0.8585,-0.7242,-0.3916,-0.2831,-0.1971,-0.0308,0.0,0.0,0.0,0.0,0.0,0.0,0.0,0.0,0.0,0.0,0.0,0.0,0.0,0.0,0.0,0.0,0.0,0.0,0.0,0.0,0.0,0.0,0.0,0.0,0.0,0.0,0.0,0.0,0.0,0.0,0.0,0.0,0.0,0.0,0.0,0.0,0.0,0.0,0.0,0.0,0.0,0.0,0.0,0.0,0.0,0.0,0.0,0.0,0.0,0.0,-1.067,-1.0514,-1.0493,-1.0439,-1.0297,-1.0276,-1.0222,-1.0004,-0.9984,-0.9923,-0.9836,-0.9822,0.0,0.0,0.0,0.0,0.0,0.0,0.0,-0.9822,-0.9822,-0.9822,-0.9822,-0.9822,-0.9822,-0.9822,-0.9822,-0.9822,-0.9822,0.0,0.0,0.0,0.0,0.0,0.0,0.0,0.0,0.0,0.0,0.0,0.0,0.0,0.0,0.0,0.0,0.0,0.0,0.0,-0.9822,-0.9883,-1.0188,-1.0493,-1.0785,-1.1077,-1.1382,-1.1619,-1.1619,-1.1389,-1.109,-1.0785,-0.9175,-0.7258,-0.5255,-0.3628,-0.1971,-0.0308,0.0,0.0,0.0,0.0,0.0,0.0,0.0,0.0,0.0,0.0,0.0,0.0,0.0,0.0,0.0,0.0,0.0,0.0,0.0,0.0,0.0,0.0,0.0,0.0,0.0,0.0,0.0,0.0,0.0,0.0,0.0,0.0,0.0,0.0,0.0,0.0,0.0,0.0,0.0,0.0,0.0,0.0,0.0,0.0,0.0,0.0,0.0,0.0,0.0,0.0,0.0,-1.0656,-1.0649,-1.0595,-1.0446,-1.0337,-1.0222,-1.0004,-0.9896,-0.9856,-0.9909,-0.9883,0.0,0.0,0.0,0.0,0.0,0.0,0.0,-0.9822,-0.9822,-0.9822,-0.9822,-0.9822,-0.9822,-0.9822,-0.9822,-0.9822,-0.9822,-0.9822,-0.9822,0.0,0.0,0.0,0.0,0.0,0.0,-0.9822,0.0,0.0,0.0,0.0,0.0,0.0,0.0,0.0,0.0,0.0,0.0,0.0,-0.9937,-1.0181,-1.0439,-1.0534,-1.0778,-1.1002,-1.1002,-1.0934,-1.0785,-1.0487,-0.9954,-0.8977,-0.704,-0.5284,-0.3628,-0.2033,-0.0802,0.0,0.0,0.0,0.0,0.0,0.0,0.0,0.0,0.0,0.0,0.0,0.0,0.0,0.0,0.0,0.0,0.0,0.0,0.0,0.0,0.0,0.0,0.0,0.0,0.0,0.0,0.0,0.0,0.0,0.0,0.0,0.0,0.0,0.0,0.0,0.0,0.0,0.0,0.0,0.0,0.0,0.0,0.0,0.0,0.0,0.0,0.0,0.0,0.0,0.0,-1.0643,-1.0683,-1.0663,-1.0514,-1.0412,-1.0324,-1.0229,-1.0086,-1.0032,-1.0127,-1.0046,0.0,0.0,0.0,0.0,0.0,0.0,0.0,-0.9992,-0.9937,-0.9849,-0.9849,-0.9849,-0.9822,-0.9822,-0.9822,-0.9822,-0.9822,-0.9822,-0.9822,0.0,0.0,0.0,0.0,0.0,0.0,-0.9747,0.0,0.0,0.0,0.0,0.0,0.0,0.0,0.0,0.0,0.0,0.0,0.0,0.0,-0.9958,-1.0134,-1.0249,-1.0493,-1.0717,-1.0717,-1.0636,-1.0507,-1.0324,-1.0188,-0.961,-0.776,-0.6068,-0.4422,-0.2775,-0.112,0.0,0.0,0.0,0.0,0.0,0.0,0.0,0.0,0.0,0.0,0.0,0.0,0.0,0.0,0.0,0.0,0.0,0.0,0.0,0.0,0.0,0.0,0.0,0.0,0.0,0.0,0.0,0.0,0.0,0.0,0.0,0.0,0.0,0.0,0.0,0.0,0.0,0.0,0.0,0.0,0.0,0.0,0.0,0.0,0.0,0.0,0.0,0.0,0.0,0.0,0.0,-1.0622,-1.0663,-1.0541,-1.0507,-1.0493,-1.0507,-1.0371,-1.0283,-1.0297,-1.0297,0.0,0.0,0.0,0.0,0.0,0.0,-1.0283,-1.0283,-1.0141,-1.0004,-1.0004,-0.9924,-0.9856,-0.9856,-0.9842,-0.9836,-0.9836,-0.9829,-0.9822,-0.9822,-0.9822,-0.9747,-0.9639,-0.9768,-0.9741,0.0,0.0,0.0,0.0,0.0,0.0,0.0,0.0,0.0,0.0,0.0,0.0,0.0,0.0,0.0,0.0,0.0,-1.0446,-1.0656,-1.0656,-1.0453,-1.0249,-1.0249,-1.0025,0.0,-0.7933,-0.6294,-0.4585,-0.2979,-0.1331,-0.0192,0.0,0.0,0.0,0.0,0.0,0.0,0.0,0.0,0.0,0.0,0.0,0.0,0.0,0.0,0.0,0.0,0.0,0.0,0.0,0.0,0.0,0.0,0.0,0.0,0.0,0.0,0.0,0.0,0.0,0.0,0.0,0.0,0.0,0.0,0.0,0.0,0.0,0.0,0.0,0.0,0.0,0.0,0.0,0.0,0.0,0.0,0.0,0.0,0.0,0.0,0.0,0.0,0.0,-1.0636,-1.0534,-1.0656,-1.0432,-1.0324,0.0,0.0,0.0,0.0,0.0,0.0,0.0,-1.0283,-1.0283,-1.0283,-1.0243,-1.0222,-1.0222,-1.0188,-1.0175,-1.0168,-1.0053,-0.993,-0.993,-0.9876,-0.9822,-0.9822,-0.9822,-0.9802,-0.9774,-0.9808,-0.9802,0.0,0.0,0.0,0.0,-0.9822,-0.9822,0.0,0.0,0.0,0.0,0.0,0.0,0.0,0.0,-0.9822,-0.9836,-0.991,0.0,-1.0032,-1.0032,-0.9978,-0.993,0.0,-0.9869,-0.9767,-0.9613,-0.8303,-0.6596,-0.503,-0.3323,-0.1715,-0.0257,0.0,0.0,0.0,0.0,0.0,0.0,0.0,0.0,0.0,0.0,0.0,0.0,0.0,0.0,0.0,0.0,0.0,0.0,0.0,0.0,0.0,0.0,0.0,0.0,0.0,0.0,0.0,0.0,0.0,0.0,0.0,0.0,0.0,0.0,0.0,0.0,0.0,0.0,0.0,0.0,0.0,0.0,0.0,0.0,0.0,0.0,0.0,0.0,0.0,0.0,0.0,0.0,-1.0595,-1.0548,-1.0704,-1.0514,-1.0439,0.0,0.0,0.0,0.0,0.0,0.0,-1.048,-1.048,-1.048,-1.048,-1.0412,-1.0378,-1.0378,-1.031,-1.0283,-1.0276,-1.0195,-1.0114,-0.9977,-0.989,-0.9863,-0.9862,-0.9849,-0.9781,-0.9727,-0.9795,0.0,0.0,0.0,0.0,0.0,-0.9822,-0.9822,0.0,-0.9822,-0.9822,-0.9822,0.0,0.0,0.0,0.0,-0.9822,-0.9822,-0.9822,-0.9822,-0.9856,-0.9998,-0.9924,-0.9856,-0.9998,-0.9924,-0.991,-1.0215,-0.8278,-0.6481,-0.6485,-0.3776,-0.1509,-0.1163,-0.0523,0.0,0.0,0.0,0.0,0.0,0.0,0.0,0.0,0.0,0.0,0.0,0.0,0.0,0.0,0.0,0.0,0.0,0.0,0.0,0.0,0.0,0.0,0.0,0.0,0.0,0.0,0.0,0.0,0.0,0.0,0.0,0.0,0.0,0.0,0.0,0.0,0.0,0.0,0.0,0.0,0.0,0.0,0.0,0.0,0.0,0.0,0.0,0.0,0.0,0.0,0.0,0.0,0.0,0.0,0.0,0.0,0.0,0.0,0.0,0.0,0.0,0.0,-1.0717,-1.0717,-1.0717,-1.0717,-1.0595,-1.0527,-1.0527,-1.0405,-1.0344,-1.0344,-1.0324,-1.0215,-0.9984,-0.9856,-0.9856,-0.9943,-0.9876,-0.9754,-0.9652,-0.9774,0.0,0.0,0.0,0.0,0.0,0.0,0.0,0.0,-0.9822,-0.9822,-0.9822,-0.9822,0.0,0.0,0.0,0.0,0.0,-0.9822,-0.9836,-0.9924,-1.0209,-1.0046,-0.9903,-1.0209,-1.0039,-0.9924,-1.0276,-0.7943,-0.6138,-0.73,-0.4107,-0.1505,-0.2064,-0.0906,0.0,0.0,0.0,0.0,0.0,0.0,0.0,0.0,0.0,0.0,0.0,0.0,0.0,0.0,0.0,0.0,0.0,0.0,0.0,0.0,0.0,0.0,0.0,0.0,0.0,0.0,0.0,0.0,0.0,0.0,0.0,0.0,0.0,0.0,0.0,0.0,0.0,0.0,0.0,0.0,0.0,0.0,0.0,0.0,0.0,0.0,0.0,0.0,0.0,0.0,0.0,0.0,0.0,0.0,0.0,0.0,0.0,0.0,0.0,0.0,0.0,0.0,-1.0717,-1.0717,-1.0717,-1.0717,-1.0697,-1.0683,-1.0683,-1.0663,-1.0656,-1.0649,-1.0521,-1.031,-0.9984,-0.9963,-0.9896,-0.9856,-0.9829,-0.9808,-0.9788,-0.9815,0.0,0.0,0.0,0.0,0.0,0.0,0.0,0.0,-0.9822,-0.9822,-0.9822,-0.9822,0.0,0.0,0.0,0.0,0.0,-0.9822,-0.9856,-0.9997,-1.0236,-1.0046,-0.9903,-1.0209,-1.0039,-0.9978,-1.0534,-1.0182,-0.9048,-0.6585,-0.6773,-0.5858,-0.1174,-0.0197,0.0,0.0,0.0,0.0,0.0,0.0,0.0,0.0,0.0,0.0,0.0,0.0,0.0,0.0,0.0,0.0,0.0,0.0,0.0,0.0,0.0,0.0,0.0,0.0,0.0,0.0,0.0,0.0,0.0,0.0,0.0,0.0,0.0,0.0,0.0,0.0,0.0,0.0,0.0,0.0,0.0,0.0,0.0,0.0,0.0,0.0,0.0,0.0,0.0,0.0,0.0,0.0,0.0,0.0,0.0,0.0,0.0,0.0,0.0,0.0,-1.0717,-1.0717,-1.0717,-1.0717,-1.0717,-1.0717,-1.0717,-1.0717,-1.0717,-1.0717,-1.0717,-1.0717,-1.0561,-1.0419,-1.0283,-1.0058,-0.995,-0.9876,-0.9856,-0.9822,-0.9822,0.0,0.0,0.0,0.0,0.0,0.0,0.0,0.0,0.0,0.0,-0.9822,-0.9822,-0.9822,0.0,0.0,0.0,0.0,0.0,-0.9822,-0.9869,-1.0019,-1.0419,-1.029,-1.0188,-1.0649,-1.0399,-1.0236,-1.0833,-0.9905,-0.8927,-0.8535,-0.7632,-0.574,-0.2183,-0.0684,0.0,0.0,0.0,0.0,0.0,0.0,0.0,0.0,0.0,0.0,0.0,0.0,0.0,0.0,0.0,0.0,0.0,0.0,0.0,0.0,0.0,0.0,0.0,0.0,0.0,0.0,0.0,0.0,0.0,0.0,0.0,0.0,0.0,0.0,0.0,0.0,0.0,0.0,0.0,0.0,0.0,0.0,0.0,0.0,0.0,0.0,0.0,0.0,0.0,0.0,0.0,0.0,0.0,0.0,0.0,0.0,0.0,0.0,0.0,0.0,-1.0717,-1.0717,-1.0717,-1.0717,-1.0717,-1.0717,-1.0717,-1.0717,-1.0717,-1.0717,-1.0717,-1.0717,-1.0561,-1.0473,-1.0432,-1.0168,-0.997,-0.9923,-0.9435,-0.9268,-0.9268,0.0,0.0,0.0,0.0,0.0,0.0,0.0,0.0,0.0,0.0,0.0,0.0,0.0,0.0,0.0,-0.9822,-0.9822,-0.9822,-0.9822,-0.9849,-0.9992,-1.0493,-1.0392,-1.0344,-1.1009,-1.0677,-1.0405,-1.1104,-0.9678,-0.8746,-1.0013,-0.76,-0.4978,-0.3708,-0.1827,-0.0432,-0.0071,0.0,0.0,0.0,0.0,0.0,0.0,0.0,0.0,0.0,0.0,0.0,0.0,0.0,0.0,0.0,0.0,0.0,0.0,0.0,0.0,0.0,0.0,0.0,0.0,0.0,0.0,0.0,0.0,0.0,0.0,0.0,0.0,0.0,0.0,0.0,0.0,0.0,0.0,0.0,0.0,0.0,0.0,0.0,0.0,0.0,0.0,0.0,0.0,0.0,0.0,0.0,0.0,0.0,0.0,0.0,0.0,0.0,0.0,-1.0717,-1.0717,-1.0717,-1.0717,-1.0717,-1.0717,-1.0717,-1.0717,-1.0717,-1.0717,-1.0717,-1.0717,-1.0561,-1.0419,-1.029,-1.0058,-0.9909,-0.9714,-0.8221,-0.7545,-0.7545,-0.7545,0.0,0.0,0.0,0.0,0.0,0.0,0.0,0.0,0.0,0.0,0.0,0.0,0.0,-0.9822,-0.9822,-0.9822,-0.9822,-0.9822,-0.9862,-1.0017,-1.0263,-1.008,-1.0086,-1.0962,-1.0595,-1.0276,-1.1009,-1.0941,-1.0319,-0.9079,-0.694,-0.5329,-0.5266,-0.3564,-0.1769,-0.0218,0.0,0.0,0.0,0.0,0.0,0.0,0.0,0.0,0.0,0.0,0.0,0.0,0.0,0.0,0.0,0.0,0.0,0.0,0.0,0.0,0.0,0.0,0.0,0.0,0.0,0.0,0.0,0.0,0.0,0.0,0.0,0.0,0.0,0.0,0.0,0.0,0.0,0.0,0.0,0.0,0.0,0.0,0.0,0.0,0.0,0.0,0.0,0.0,0.0,0.0,0.0,0.0,0.0,0.0,0.0,0.0,0.0,-1.0717,-1.0717,-1.0717,-1.0717,-1.0717,-1.0717,-1.0717,-1.0717,-1.0717,-1.0717,-1.0717,-1.0717,-1.0717,-1.0561,-1.0419,-1.0276,-0.9042,-0.8403,-0.8221,-0.6569,-0.5835,-0.5835,-0.5835,-0.5835,0.0,0.0,0.0,0.0,0.0,0.0,0.0,0.0,-0.9822,-0.9822,-0.9822,-0.9822,-0.9822,-0.9822,-0.9822,-0.9822,-0.9822,-0.9869,-1.0065,-1.0473,-1.0256,-1.0175,-1.0982,-1.0799,-1.0656,-1.1314,-1.1029,-1.0452,-0.982,-0.8319,-0.7172,-0.7174,-0.4673,-0.2517,-0.189,-0.0729,0.0,0.0,0.0,0.0,0.0,0.0,0.0,0.0,0.0,0.0,0.0,0.0,0.0,0.0,0.0,0.0,0.0,0.0,0.0,0.0,0.0,0.0,0.0,0.0,0.0,0.0,0.0,0.0,0.0,0.0,0.0,0.0,0.0,0.0,0.0,0.0,0.0,0.0,0.0,0.0,0.0,0.0,0.0,0.0,0.0,0.0,0.0,0.0,0.0,0.0,0.0,0.0,0.0,0.0,0.0,0.0,-0.9842,-1.0386,-1.0717,-1.0717,-1.0717,-1.0717,-1.0717,-1.0717,-1.0717,-1.0717,-1.0717,-1.0717,-1.0717,-1.0521,-1.0115,-0.943,-0.8114,-0.7187,-0.6503,-0.4855,-0.4119,-0.4119,-0.4119,-0.4119,0.0,0.0,0.0,0.0,0.0,0.0,0.0,0.0,-0.9822,-0.9822,-0.9822,-0.9822,-0.9822,-0.9822,-0.9822,-0.9822,-0.9822,-0.9835,-1.0011,-1.048,-1.0247,-1.0179,-1.0995,-1.0894,-1.0819,-1.1423,-1.1172,-1.0785,-1.0595,-0.9869,-0.9001,-0.8372,-0.5739,-0.3527,-0.2978,-0.1239,0.0,0.0,0.0,0.0,0.0,0.0,0.0,0.0,0.0,0.0,0.0,0.0,0.0,0.0,0.0,0.0,0.0,0.0,0.0,0.0,0.0,0.0,0.0,0.0,0.0,0.0,0.0,0.0,0.0,0.0,0.0,0.0,0.0,0.0,0.0,0.0,0.0,0.0,0.0,0.0,0.0,0.0,0.0,0.0,0.0,0.0,0.0,0.0,-0.1545,0.0,0.0,0.0,0.0,0.0,0.0,0.0,-0.803,-0.9709,-1.0651,-1.0717,-1.0717,-1.0717,-1.0717,-1.0717,-1.0717,-1.0717,-1.0717,-1.0717,-1.0711,-1.0419,-0.9373,-0.7758,-0.7464,-0.6446,-0.4794,-0.3139,-0.2464,-0.2462,-0.2462,-0.2462,-0.2647,0.0,0.0,0.0,0.0,0.0,0.0,0.0,-0.9822,-0.9822,-0.9822,-0.9822,-0.9822,-0.9822,-0.9822,-0.9822,-0.9822,-0.9822,-0.9897,-1.0209,-1.0168,-1.0186,-1.0989,-1.0819,-1.0663,-1.1267,-1.1511,-1.1525,-1.1212,-1.1234,-1.0536,-0.8649,-0.6696,-0.4861,-0.3186,-0.1239,0.0,0.0,0.0,0.0,0.0,0.0,0.0,0.0,0.0,0.0,0.0,0.0,0.0,0.0,0.0,0.0,0.0,0.0,0.0,0.0,0.0,0.0,0.0,0.0,0.0,0.0,0.0,0.0,0.0,0.0,0.0,0.0,0.0,0.0,0.0,0.0,0.0,0.0,0.0,0.0,0.0,0.0,0.0,0.0,0.0,0.0,0.0,0.0,-0.0471,0.0,0.0,0.0,0.0,0.0,0.0,0.0,-0.7897,-0.8501,-0.9371,-1.0651,-1.0717,-1.0717,-1.0717,-1.0717,-1.0717,-1.0717,-1.0717,-1.0663,-1.0555,-0.9196,-0.8234,-0.7519,-0.5063,-0.3698,-0.3081,-0.145,-0.0755,-0.074,-0.074,-0.074,-0.0925,0.0,0.0,0.0,0.0,0.0,0.0,0.0,0.0,0.0,-0.9822,-0.9822,-0.9863,-1.008,-0.9992,-0.9869,-1.0086,-1.0066,-0.999,-1.0351,-1.0392,-1.0473,-1.0914,-1.0907,-1.0894,-1.1172,-1.1355,-1.1335,-1.0928,-1.1199,-1.1197,-1.043,-0.8851,-0.7048,-0.5222,-0.3272,-0.1529,-0.0146,0.0,0.0,0.0,0.0,0.0,0.0,0.0,0.0,0.0,0.0,0.0,0.0,0.0,0.0,0.0,0.0,0.0,0.0,0.0,0.0,0.0,0.0,0.0,0.0,0.0,0.0,0.0,0.0,0.0,0.0,0.0,0.0,0.0,0.0,0.0,0.0,0.0,0.0,0.0,0.0,0.0,0.0,0.0,0.0,0.0,0.0,0.0,-0.0404,0.0,0.0,0.0,0.0,0.0,0.0,-0.5826,-0.656,-0.7764,-0.9576,-0.9643,-0.9981,-1.0651,-1.0717,-1.0319,-0.9643,-1.0319,-1.0307,-0.95,-0.8333,-0.7005,-0.5589,-0.3469,-0.2129,-0.1419,-0.0441,0.0,0.0,0.0,0.0,-0.0123,0.0,0.0,0.0,0.0,0.0,0.0,0.0,0.0,0.0,-0.9572,-0.9903,-1.0012,-1.008,-1.0053,-1.0046,-1.0229,-1.0215,-1.0243,-1.0656,-1.067,-1.0458,-1.0005,-1.0483,-1.0885,-1.0308,-1.0915,-1.1402,-1.1124,-1.1375,-1.1558,-1.1375,-0.9835,-0.8049,-0.6098,-0.4141,-0.2183,-0.0219,0.0,0.0,0.0,0.0,0.0,0.0,0.0,0.0,0.0,0.0,0.0,0.0,0.0,0.0365,0.1166,0.1166,0.1529,0.233,0.1529,0.1166,0.1093,0.0365,0.0,0.0,0.0,0.0,0.0,0.0,0.0,0.0,0.0,0.0,0.0,0.0,0.0,0.0,0.0,0.0,0.0,0.0,0.0,0.0,0.0,0.0,0.0,0.0,0.0,0.0,0.0,0.0,0.0,0.0,0.0,0.0,0.0,-0.4225,-0.5964,-0.7698,-0.7897,-0.8767,-1.0452,-1.0452,-0.9643,-0.803,-0.9643,-0.9497,-0.7712,-0.7488,-0.5664,-0.2698,-0.2422,-0.1421,0.0,0.0,0.0,0.0,0.0,0.0,0.0,0.0,0.0,0.0,0.0,0.0,0.0,0.0,0.0,0.0,-0.9268,-1.0012,-1.0188,-0.9937,-1.0059,-1.0283,-1.0317,-1.0304,-1.0412,-1.1029,-1.0772,-0.999,-0.8416,-0.9579,-1.0556,-0.9016,-1.0221,-1.1606,-1.1619,-1.1619,-1.1619,-1.1619,-1.0083,-0.8198,-0.6098,-0.4286,-0.2401,-0.0219,0.0,0.0,0.0,0.0,0.0,0.0,0.0,0.0,0.0,0.0,0.0,0.0,0.0146,0.1093,0.2909,0.3054,0.4068,0.5808,0.3851,0.2909,0.2836,0.0874,0.0,0.0,0.0,0.0,0.0,0.0,0.0,0.0,0.0,0.0,0.0,0.0,0.0,0.0,0.0,0.0,0.0,0.0,0.0,0.0,0.0,0.0,0.0,0.0,0.0,0.0,0.0,0.0,0.0,0.0,0.0,0.0,0.0,-0.3088,-0.4091,-0.5897,-0.7298,-0.8163,-0.8568,-0.8568,-0.8368,-0.803,-0.8368,-0.76,-0.5672,-0.4374,-0.3359,-0.2476,-0.114,-0.0316,0.0,0.0,0.0,0.0,0.0,0.0,0.0,0.0,-0.0247,0.0,0.0,0.0,0.0,0.0,0.0,0.0,-0.9268,-0.9869,-0.9951,-1.0127,-1.0229,-1.0331,-1.0561,-1.046,-1.0337,-1.0575,-0.9534,-0.807,-0.6622,-0.778,-0.9035,-0.8745,-1.015,-1.1477,-1.1599,-1.1619,-1.1619,-1.1619,-1.1253,-0.9795,-0.6315,-0.5446,-0.3925,-0.0438,0.0,0.0,0.0,0.0,0.0,0.0,0.0,0.0,0.0,0.0,0.0,0.0,0.1456,0.2472,0.2909,0.4431,0.5373,0.5808,0.3851,0.2909,0.2836,0.0874,0.0,0.0,0.0,0.0,0.0,0.0,0.0,0.0,0.0,0.0,0.0,0.0,0.0,0.0,0.0,0.0,0.0,0.0,0.0,0.0,0.0,0.0,0.0,0.0,0.0,0.0,0.0,0.0,0.0,0.0,0.0,0.0,0.0,-0.1411,-0.2216,-0.4024,-0.583,-0.6765,-0.6765,-0.6765,-0.6364,-0.5492,-0.5492,-0.4951,-0.3919,-0.3085,-0.2217,-0.1296,-0.0377,0.0,0.0,0.0,0.0,0.0,0.0,0.0,0.0,0.0,0.0,-0.0123,-0.0978,0.0,0.0,0.0,0.0,0.0,0.0,0.0,-0.9032,-0.9804,-1.0168,-1.0183,-0.9481,-0.9909,-1.0561,-1.0853,-0.9582,-0.7771,-0.6083,-0.6467,-0.7195,-0.7319,-0.9529,-1.1525,-1.1606,-1.1619,-1.1619,-1.1619,-1.1619,-1.0233,-0.6315,-0.5808,-0.4361,-0.0438,0.0,0.0,0.0,0.0,0.0,0.0,0.0,0.0,0.0,0.0,0.0,0.0,0.1892,0.3342,0.4286,0.6242,0.7693,0.8564,0.6604,0.4718,0.2836,0.0874,0.0,0.0,0.0,0.0,0.0,0.0,0.0,0.0,0.0,0.0,0.0,0.0,0.0,0.0,0.0,0.0,0.0,0.0,0.0,0.0,0.0,0.0,0.0,0.0,0.0,0.0,0.0,0.0,0.0,0.0,0.0,0.0,0.0,0.0,0.0,-0.2148,-0.3957,-0.4961,-0.4961,-0.4961,-0.4225,-0.2685,-0.2417,-0.2257,-0.2203,-0.2203,-0.1405,0.0,0.0,0.0,0.0,0.0,0.0,0.0,0.0,0.0,0.0,0.0,0.0,0.0,0.0,0.0,-0.0246,-0.1963,0.0,0.0,0.0,0.0,-0.7544,-0.8658,-0.9218,-0.9182,-0.8087,-0.898,-1.021,-1.0328,-0.8975,-0.7224,-0.5502,-0.5242,-0.5273,-0.5295,-0.842,-1.1181,-1.1548,-1.1619,-1.1619,-1.1619,-1.1325,-0.9867,-0.6315,-0.5518,-0.3998,-0.0438,0.0,0.0,0.0,0.0,0.0,0.0,0.0,0.0,0.0,0.0,0.0,0.0,0.2183,0.4141,0.5808,0.8054,1.0011,1.1548,0.9285,0.6311,0.2836,0.0874,0.0,0.0,0.0,0.0,0.0,0.0,0.0,0.0,0.0,0.0,0.0,0.0,0.0,0.0,0.0,0.0,0.0,0.0,0.0,0.0,0.0,0.0,0.0,0.0,0.0,0.0,0.0,0.0,0.0,0.0,0.0,0.0,0.0,0.0,0.0,-0.0336,-0.2081,-0.3088,-0.3088,-0.3088,-0.2954,-0.2685,-0.1143,-0.0336,-0.0334,-0.0334,-0.0264,0.0,0.0,0.0,0.0,0.0,0.0,0.0,0.0,0.0,0.0,0.0,0.0,0.0,0.0,0.0,-0.0242,-0.1932,-0.2496,0.0,0.0,0.0,-0.5313,-0.5475,-0.5773,-0.6293,-0.7513,-0.7992,-0.7885,-0.6525,-0.475,-0.3296,-0.3301,-0.3284,-0.3256,-0.3256,-0.6383,-0.9574,-1.1253,-1.1619,-1.1619,-1.1619,-1.0161,-0.8343,-0.6098,-0.4358,-0.2472,-0.0292,0.0,0.0,0.0,0.0,0.0,0.0,0.0,0.0,0.0,0.0,0.0,0.0,0.349,0.5518,0.5808,0.9435,1.1325,1.1548,0.791,0.5011,0.2836,0.0874,0.0,0.0,0.0,0.0,0.0,0.0,0.0,0.0,0.0,0.0,0.0,0.0,0.0,0.0,0.0,0.0,0.0,0.0,0.0,0.0,0.0,0.0,0.0,0.0,0.0,0.0,0.0,0.0,0.0,0.0,0.0,0.0,0.0,0.0,0.0,0.0,-0.074,-0.121,-0.121,-0.121,-0.121,-0.121,-0.0404,0.0,0.0,0.0,0.0,0.0,0.0,0.0,0.0,0.0,0.0,0.0,0.0,0.0,0.0,0.0,0.0,0.0,0.0,0.0,-0.0119,-0.0832,-0.1081,-0.1399,-0.3037,0.0,0.0,0.0,-0.5026,-0.5301,-0.6194,-0.5773,-0.5175,-0.5557,-0.4154,-0.2725,-0.2874,-0.2068,-0.1552,-0.2676,-0.4283,-0.6383,-0.943,-1.0887,-1.1619,-1.1619,-0.9939,-0.8049,-0.6098,-0.4141,-0.2183,-0.0219,0.0,0.0,0.0,0.0,0.0,0.0,0.0,0.0,0.0,0.0,0.051,0.1602,0.4361,0.6315,0.7399,1.0233,1.1619,1.1548,0.8781,0.6387,0.4431,0.2527,0.1006,0.0,0.0,0.0,0.0,0.0,0.0,0.0,0.0,0.0,0.0,0.0,0.0,0.0,0.0,0.0,0.0,0.0,0.0,0.0,0.0,0.0,0.0,0.0,0.0,0.0,0.0,0.0,0.0,0.0,0.0,0.0,0.0,0.0,0.0,0.0,0.0,0.0,0.0,0.0,0.0,0.0,0.0,0.0,0.0,0.0,0.0,0.0,0.0,0.0,0.0,0.0,0.0,0.0,0.0,0.0,0.0,0.0,0.0,0.0,0.0,0.0,0.0,0.0,0.0,-0.024,-0.1443,-0.1881,0.0,0.0,0.0,-0.4229,-0.406,-0.3399,-0.3075,-0.4065,-0.3235,-0.2154,-0.2188,-0.1055,-0.042,-0.1863,-0.2533,-0.3778,-0.6673,-0.9213,-1.0887,-1.0887,-0.9213,-0.7255,-0.5301,-0.3417,-0.1602,-0.0146,0.0,0.0,0.0,0.0,0.0,0.0,0.0,0.0,0.0,0.0,0.0874,0.2836,0.4794,0.6749,0.8703,1.0599,1.1619,1.1548,0.9651,0.7688,0.5732,0.3799,0.1852,0.0,0.0,0.0,0.0,0.0,0.0,0.0,0.0,0.0,0.0,0.0,0.0,0.0,0.0,0.0,0.0,0.0,0.0,0.0,0.0,0.0,0.0,0.0,0.0,0.0,0.0,0.0,0.0,0.0,0.0,0.0,0.0,0.0,0.0,0.0,0.0,0.0,0.0,0.0,0.0,0.0,0.0,0.0,0.0,0.0,0.0,0.0,0.0,0.0,0.0,0.0,0.0,0.0,0.0,0.0,0.0,0.0,0.0,0.0,0.0,0.0,0.0,0.0,0.0,0.0,-0.012,-0.0121,-0.0121,0.0,0.0,0.0,-0.0705,-0.1355,-0.2138,-0.067,-0.0198,-0.013,-0.0134,-0.0067,0.0,-0.014,-0.1645,-0.2979,-0.3197,-0.6311,-0.8848,-0.8848,-0.7183,-0.5301,-0.3342,-0.1384,-0.0146,0.0,0.0,0.0,0.0,0.0,0.0,0.0,0.0,0.0,0.0,0.0,0.0874,0.2836,0.4794,0.6749,0.8703,1.0599,1.1619,1.1548,0.9651,0.7688,0.5732,0.3799,0.1843,0.0,0.0,0.0,0.0,0.0,0.0,0.0,0.0,0.0,0.0,0.0,0.0,0.0,0.0,0.0,0.0,0.0,0.0,0.0,0.0,0.0,0.0,0.0,0.0,0.0,0.0,0.0,0.0,0.0,0.0,0.0,0.0,0.0,0.0,0.0,0.0,0.0,0.0,0.0,0.0,0.0,0.0,0.0,0.0,0.0,0.0,0.0,0.0,0.0,0.0,0.0,0.0,0.0,0.0,0.0,0.0,0.0,0.0,0.0,0.0,0.0,0.0,0.0,0.0,0.0,0.0,0.0,0.0,0.0,-0.0432,-0.0745,-0.0192,-0.0445,-0.0761,-0.0133,0.0,0.0,0.0,0.0,0.0,0.0,-0.0566,-0.1449,-0.2705,-0.6101,-0.8266,-0.7038,-0.6242,-0.5156,-0.3197,-0.1239,0.0,0.0,0.0,0.0,0.0,0.0,0.0,0.0,0.0,0.0,0.0,0.0,0.1432,0.4646,0.5446,0.7331,1.0521,1.1253,1.1619,1.1619,1.0887,0.8888,0.5805,0.5094,0.3006,0.0,0.0,0.0,0.0,0.0,0.0,0.0,0.0,0.0,0.0,0.0,0.0,0.0,0.0,0.0,0.0,0.0,0.0,0.0,0.0,0.0,0.0,0.0,0.0,0.0,0.0,0.0,0.0,0.0,0.0,0.0,0.0,0.0,0.0,0.0,0.0,0.0,0.0,0.0,0.0,0.0,0.0,0.0,0.0,0.0,0.0,0.0,0.0,0.0,0.0,0.0,0.0,0.0,0.0,0.0,0.0,0.0,0.0,0.0,0.0,0.0,0.0,0.0,0.0,0.0,0.0,0.0,0.0,0.0,0.0,0.0,0.0,0.0,0.0,0.0,0.0,0.0,0.0,0.0,0.0,0.0,0.0,-0.0363,-0.1709,-0.4594,-0.6311,-0.5011,-0.4794,-0.4141,-0.2183,-0.0802,0.0,0.0,0.0,0.0,0.0,0.0,0.0,0.0,0.0,0.0,0.0,0.0,0.1788,0.566,0.7042,0.8997,1.1548,1.1619,1.1619,1.1619,1.1619,0.9875,0.6685,0.6108,0.4021,0.0892,0.0271,0.0,0.0,0.0,0.0,0.0,0.0,0.0,0.0,0.0,0.0,0.0,0.0,0.0,0.0,0.0,0.0,0.0,0.0,0.0,0.0,0.0,0.0,0.0,0.0,0.0,0.0,0.0,0.0,0.0,0.0,0.0,0.0,0.0,0.0,0.0,0.0,0.0,0.0,0.0,0.0,0.0,0.0,0.0,0.0,0.0,0.0,0.0,0.0,0.0,0.0,0.0,0.0,0.0,0.0,0.0,0.0,0.0,0.0,0.0,0.0,0.0,0.0,0.0,0.0,0.0,0.0,0.0,0.0,0.0,0.0,0.0,0.0,0.0,0.0,0.0,0.0,0.0,0.0,0.0,0.0,0.0,0.0,-0.1528,-0.2836,-0.2836,-0.2836,-0.2256,-0.0292,0.0,0.0,0.0,0.0,0.0,0.0,0.0,0.0,0.0,0.0,0.0,0.0,0.0073,0.1893,0.5663,0.9579,1.1619,1.1619,1.1619,1.1619,1.1619,1.1613,1.0447,0.8379,0.6593,0.4641,0.2533,0.0744,0.0,0.0,0.0,0.0,0.0,0.0,0.0,0.0,0.0,0.0,0.0,0.0,0.0,0.0,0.0,0.0,0.0,0.0,0.0,0.0,0.0,0.0,0.0,0.0,0.0,0.0,0.0,0.0,0.0,0.0,0.0,0.0,0.0,0.0,0.0,0.0,0.0,0.0,0.0,0.0,0.0,0.0,0.0,0.0,0.0,0.0,0.0,0.0,0.0,0.0,0.0,0.0,0.0,0.0,0.0,0.0,0.0,0.0,0.0,0.0,0.0,0.0,0.0,0.0,0.0,0.0,0.0,0.0,0.0,0.0,0.0,0.0,0.0,0.0,0.0,0.0,0.0,0.0,0.0,0.0,0.0,0.0,-0.0432,-0.0802,-0.0802,-0.1965,-0.2256,-0.0292,0.0,0.0,0.0,0.0,0.0,0.0,0.0,0.0,0.0,0.0,0.0,0.0,0.2692,0.4724,0.5736,0.9579,1.1619,1.1619,1.1619,1.1619,1.1619,1.1504,0.9736,0.6519,0.595,0.3893,0.0744,0.0202,0.0,0.0,0.0,0.0,0.0,0.0,0.0,0.0,0.0,0.0,0.0,0.0,0.0,0.0,0.0,0.0,0.0,0.0,0.0,0.0,0.0,0.0,0.0,0.0,0.0,0.0,0.0,0.0,0.0,0.0,0.0,0.0,0.0,0.0,0.0,0.0,0.0,0.0,0.0,0.0,0.0,0.0,0.0,0.0,0.0,0.0,0.0,0.0063,0.0651,0.058,0.0125,0.1503,0.1668,0.1098,0.1153,0.1144,0.1044,0.0253,0.0,0.0,0.0,0.0,0.0,0.0,0.0,0.0,0.0,0.0,0.0,0.0,0.0,0.0,0.0,0.0,0.0,0.0,0.0,0.0,0.0,0.0,0.0,0.0,0.0,0.0,0.0,-0.0932,-0.1295,-0.0146,0.0,0.0,0.0,0.0,0.0,0.0,0.0,0.0,0.0,0.0,0.0,0.0,0.3708,0.5808,0.5808,0.9579,1.1619,1.1619,1.1619,1.1619,1.1619,1.1463,0.9824,0.6905,0.5985,0.3939,0.1076,0.0336,0.0,0.0,0.0,0.0,0.0,0.0,0.0,0.0,0.0,0.0,0.0,0.0,0.0549,0.0546,0.0539,0.0537,0.0536,0.0536,0.0536,0.0533,0.0,0.0394,0.0261,0.0258,0.0129,0.0,0.0,0.0,0.0,0.0,0.0,0.0,0.0,0.0,0.0,0.0,0.0,0.0,0.0,0.0,0.0,0.0,0.0,0.0,0.0,0.0,0.0123,0.037,0.184,0.1709,0.0796,0.3721,0.4137,0.2986,0.2994,0.3025,0.2762,0.0931,0.033,0.0259,0.0066,0.0,0.0,0.0,0.0,0.0,0.0,0.0,0.0,0.0,0.0,0.0,0.0,0.0,0.0,0.0,0.0,0.0,0.0,0.0,0.0,0.0,0.0,0.0,0.0,0.0,0.0,0.0,0.0,0.0,0.0,0.0,0.0,0.0,0.0,0.0,0.0,0.0,0.0,0.0,0.349,0.5591,0.5808,0.9363,1.1404,1.1619,1.1619,1.1613,1.1592,1.1436,1.0226,0.8144,0.6385,0.4408,0.2283,0.0672,0.0,0.0,0.0,0.0,0.0,0.0,0.0,0.0,0.0,0.0,0.0,0.404,0.4208,0.4104,0.4093,0.4013,0.3951,0.3951,0.3951,0.3945,0.3935,0.2813,0.2031,0.2026,0.0815,0.0,0.0,0.0,0.0,0.0,0.0,0.0,0.0,0.0,0.0,0.0,0.0,0.0,0.0,0.0,0.0,0.0,0.0,0.0,0.0,0.0,0.074,0.209,0.3472,0.3932,0.3821,0.4624,0.4867,0.4896,0.4844,0.4846,0.4618,0.2833,0.2176,0.1932,0.052,0.0,0.0,0.0,0.0,0.0,0.0,0.0,0.0,0.0,0.0,0.0,0.0,0.0,0.0,0.0,0.0,0.0,0.0,0.0,0.0,0.0,0.0,0.0,0.0,0.0,0.0,0.0,0.0,0.0,0.0,0.0,0.0,0.0,0.0,0.0,0.0,0.0,0.0,0.0,0.2183,0.4213,0.5736,0.8054,1.0011,1.1548,1.1619,1.1558,1.1436,1.128,0.9452,0.6176,0.5687,0.3631,0.0538,0.0135,0.0,0.0,0.0,0.0,0.0,0.0,0.0,0.0,0.0,0.0,0.0,0.5217,0.5225,0.5106,0.5106,0.5014,0.4878,0.4878,0.4878,0.4929,0.4893,0.4204,0.367,0.367,0.2966,0.2094,0.1295,0.1233,0.0863,0.0062,0.0,0.0,0.0,0.0,0.0,0.0,0.0,0.0,0.0,0.0,0.0,0.0,0.0,0.0432,0.1233,0.1233,0.2146,0.3701,0.509,0.5763,0.596,0.6965,0.7027,0.6495,0.6657,0.671,0.6438,0.4712,0.3457,0.2427,0.0583,0.0,0.0,0.0,0.0,0.0,0.0,0.0,0.0,0.0,0.0,0.0,0.0,0.0,0.0,0.0,0.0,0.0,0.0,0.0,0.0,0.0,0.0,0.0,0.0,0.0,0.0,0.0,0.0,0.0,0.0,0.0,0.0,0.0,0.0,0.0,0.0,0.0,0.0,0.0,0.1819,0.3778,0.5736,0.7688,0.9651,1.1548,1.1619,1.1545,1.1389,1.124,0.9692,0.6902,0.5867,0.389,0.1277,0.0404,0.0,0.0,0.0,0.0,0.0,0.0,0.0,0.0,0.0,0.0,0.0,0.6431,0.6279,0.6076,0.6076,0.5985,0.5851,0.5851,0.5851,0.5827,0.5819,0.5567,0.5418,0.5451,0.5118,0.4373,0.3165,0.3041,0.2354,0.0617,0.0558,0.0372,0.0,0.0,0.0,0.0,0.0,0.0,0.0,0.0,0.0,0.0,0.0,0.074,0.2033,0.2339,0.3366,0.4902,0.6369,0.7277,0.7818,0.9294,0.9144,0.8049,0.8393,0.8474,0.8239,0.6485,0.4492,0.2475,0.1042,0.0258,0.0,0.0,0.0,0.0,0.0,0.0,0.0,0.0,0.0,0.0,0.0,0.0,0.0,0.0,0.0,0.0,0.0,0.0,0.0,0.0,0.0,0.0,0.0,0.0,0.0,0.0,0.0,0.0,0.0,0.0,0.0,0.0,0.0,0.0,0.0,0.0,0.0,0.0,0.1456,0.3417,0.5736,0.7327,0.9285,1.1548,1.1592,1.1497,1.1348,1.1192,1.0141,0.8168,0.6262,0.4426,0.2618,0.0807,0.0,0.0,0.0,0.0,0.0,0.0,0.0,0.0,0.0,0.0,0.0,1.0114,0.9902,0.9723,0.9723,0.943,0.9252,0.9252,0.9252,0.9246,0.9233,0.7983,0.7192,0.7453,0.5932,0.4971,0.5036,0.505,0.4236,0.2344,0.246,0.1773,0.0062,0.0,0.0,0.0,0.0,0.0,0.0,0.0,0.0,0.0,0.0,0.0123,0.037,0.1848,0.3465,0.5178,0.6696,0.825,0.9695,1.0105,0.9962,0.9623,1.0175,1.0228,0.9845,0.8294,0.5559,0.2673,0.2469,0.1353,0.0,0.0,0.0,0.0,0.0,0.0,0.0,0.0,0.0,0.0,0.0,0.0,0.0,0.0,0.0,0.0,0.0,0.0,0.0,0.0,0.0,0.0,0.0,0.0,0.0,0.0,0.0,0.0,0.0,0.0,0.0,0.0,0.0,0.0,0.0,0.0,0.0,0.0,0.0219,0.2039,0.5663,0.6025,0.791,1.1548,1.1484,1.1341,1.1185,1.1043,0.9937,0.7984,0.6235,0.4426,0.2618,0.0807,0.0,0.0,0.0,0.0,0.0,0.0,0.0,0.0,0.0,0.0,0.0,1.0717,1.048,1.0283,1.0283,1.0025,0.9822,0.9822,0.9822,0.9822,0.9822,0.9207,0.894,0.9215,0.8511,0.778,0.7154,0.7103,0.6349,0.4529,0.438,0.3579,0.177,0.1555,0.0986,0.0,0.0,0.0,0.0,0.0,0.0,0.0,0.0,0.0986,0.2893,0.3566,0.5364,0.7865,0.8488,0.9239,0.9862,0.9985,0.9937,0.9883,1.0493,1.0643,1.0332,0.8643,0.7065,0.5587,0.4388,0.2887,0.1507,0.1313,0.0673,0.0,0.0,0.0,0.0,0.0,0.0,0.0,0.0,0.0,0.0,0.0,0.0,0.0,0.0,0.0,0.0,0.0,0.0,0.0,0.0,0.0,0.0,0.0,0.0,0.0,0.0,0.0,0.0,0.0,0.0,0.0,0.0,0.0,0.0,0.0,0.0,0.1748,0.5663,0.5808,0.7693,1.1548,1.147,1.1314,1.1227,1.1016,1.0456,0.9443,0.6698,0.4961,0.4091,0.121,0.0,0.0,0.0,0.0,0.0,0.0,0.0,0.0,0.0,0.0,0.0,1.0609,1.046,1.0324,1.029,1.0059,0.9869,0.9829,0.9897,0.9944,0.9944,0.9944,1.0066,1.0371,1.0256,0.9851,0.901,0.8972,0.8235,0.656,0.6308,0.5458,0.3771,0.3327,0.2658,0.1497,0.1362,0.1356,0.1356,0.1356,0.1356,0.1356,0.1356,0.2585,0.4916,0.5323,0.685,0.9147,0.968,0.991,0.9951,1.0032,1.0066,1.0107,1.046,1.0649,1.0558,0.9228,0.8426,0.7771,0.6265,0.4737,0.3424,0.3156,0.2355,0.1357,0.0872,0.0721,0.0638,0.012,0.0,0.0,0.0,0.0,0.0,0.0,0.0,0.0,0.0,0.0,0.0,0.0,0.0,0.0,0.0,0.0,0.0,0.0,0.0,0.0,0.0,0.0,0.0,0.0,0.0,0.0,0.0,0.0,0.0,0.0,0.0,0.1748,0.5663,0.5808,0.7679,1.1487,1.1402,1.1253,1.1104,1.0955,1.0759,1.0585,0.7036,0.5429,0.5228,0.1545,0.0,0.0,0.0,0.0,0.0,0.0,0.0,0.0,0.0,0.0,0.0,1.0324,1.0399,1.0439,1.0304,1.0148,0.993,0.9842,1.0073,1.0263,1.0263,1.0263,1.0378,1.0677,1.0188,1.0011,1.0604,1.0651,0.9915,0.8302,0.823,0.7488,0.5752,0.5136,0.4922,0.5191,0.4929,0.4732,0.4732,0.4732,0.4732,0.4732,0.4732,0.4794,0.4974,0.6408,0.72,0.7612,0.9292,1.0127,1.029,1.0575,1.069,1.0663,1.0399,1.0473,1.0717,1.0644,0.9498,0.7995,0.7899,0.6741,0.5337,0.5326,0.5279,0.4878,0.3118,0.2641,0.2211,0.0493,0.0,0.0,0.0,0.0,0.0,0.0,0.0,0.0,0.0,0.0,0.0,0.0,0.0,0.0,0.0,0.0,0.0,0.0,0.0,0.0,0.0,0.0,0.0,0.0,0.0,0.0,0.0,0.0,0.0,0.0,0.0,0.1748,0.5663,0.5808,0.7571,1.1396,1.1246,1.1097,1.0887,1.0799,1.0724,1.0585,0.7036,0.5429,0.5228,0.1545,0.0,0.0,0.0,0.0,0.0,0.0,0.0,0.0,0.0,0.0,0.0,1.0331,1.0317,1.0304,1.0154,0.9998,0.9883,0.9829,0.991,1.0046,1.0256,1.0283,1.0466,1.0962,1.0833,1.0792,1.0995,1.1199,1.1018,1.0265,1.0253,0.949,0.7771,0.737,0.661,0.5394,0.528,0.514,0.4916,0.4916,0.4916,0.4916,0.4916,0.5468,0.656,0.6945,0.7807,0.9031,0.9731,1.0141,1.029,1.0392,1.0432,1.0439,1.0534,1.0636,1.0717,1.0717,1.0313,0.9738,0.9594,0.8452,0.7103,0.691,0.6184,0.528,0.4654,0.4473,0.4074,0.227,0.1782,0.147,0.032,0.0,0.0,0.0,0.0,0.0,0.0,0.0,0.0,0.0,0.0,0.0,0.0,0.0,0.0,0.0,0.0,0.0,0.0,0.0,0.0,0.0,0.0,0.0,0.0,0.0,0.0,0.0,0.0,0.1207,0.3827,0.5111,0.6993,0.9459,1.06,1.109,1.088,1.0725,1.0047,0.8906,0.7698,0.5826,0.3555,0.235,0.1076,0.0,0.0,0.0,0.0,0.0,0.0,0.0,0.0,0.0,0.0,1.0188,1.0161,1.0168,1.0004,0.9862,0.9856,0.9964,0.9985,1.0134,1.0541,1.05,1.0622,1.1111,1.107,1.105,1.122,1.1246,1.1307,1.1321,1.1029,1.0506,0.9748,0.9271,0.8519,0.7473,0.7265,0.7096,0.6972,0.6765,0.6728,0.6802,0.6728,0.722,0.8153,0.7968,0.8526,0.9598,0.9856,1.0025,1.0127,1.0236,1.0344,1.0446,1.0534,1.0629,1.0717,1.0717,1.0717,1.069,1.05,0.9764,0.8944,0.8785,0.8081,0.7131,0.6531,0.6329,0.5918,0.4155,0.3653,0.3393,0.2219,0.1939,0.1734,0.1107,0.0955,0.075,0.0127,0.0,0.0,0.0,0.0,0.0,0.0,0.0,0.0,0.0,0.0,0.0,0.0,0.0,0.0,0.0,0.0,0.0,0.0,0.0,0.0,0.0,0.0,0.0911,0.2869,0.4139,0.5658,0.7486,0.9273,1.0042,0.9844,1.0432,1.0114,0.89,0.7631,0.5826,0.3555,0.2283,0.1076,0.0,0.0,0.0,0.0,0.0,0.0,0.0,0.0,0.0,0.0,0.991,0.9876,0.9977,0.9977,0.9869,0.9944,1.0236,1.029,1.0507,1.107,1.0907,1.0846,1.12,1.0921,1.0867,1.1118,1.0894,1.0982,1.1538,1.0792,1.0711,1.1579,1.0799,1.0602,1.122,1.0616,1.0453,1.0717,1.0134,0.9992,1.0276,0.9964,0.9747,0.9605,0.9449,0.9357,0.9241,0.9632,0.9829,0.9869,1.0148,1.0432,1.067,1.0385,1.0466,1.0717,1.0717,1.0717,1.0717,1.0717,1.0717,1.0717,1.0717,1.0717,1.0386,0.8634,0.8163,0.7764,0.603,0.5496,0.5527,0.5444,0.5393,0.4965,0.3226,0.2797,0.2242,0.0469,0.0067,0.0,0.0,0.0,0.0,0.0,0.0,0.0,0.0,0.0,0.0,0.0,0.0,0.0,0.0,0.0,0.0,0.0,0.0,0.0,0.0,0.0,0.0839,0.273,0.2825,0.3742,0.5444,0.7356,0.82,0.803,0.9842,1.0651,1.0452,0.7169,0.5496,0.5095,0.1747,0.0135,0.0,0.0,0.0,0.0,0.0,0.0,0.0,0.0,0.0,0.0,0.989,0.9849,0.9876,0.9876,1.0039,1.0188,1.027,1.0466,1.0663,1.0812,1.0962,1.1077,1.122,1.1301,1.124,1.0867,1.0968,1.1023,1.0955,1.0941,1.1138,1.1599,1.1402,1.124,1.1234,1.1084,1.0867,1.0717,1.0344,1.0202,1.0276,0.9964,0.9747,0.9605,0.9449,0.9357,0.9241,0.9632,0.9951,1.0148,0.9998,1.012,1.0385,1.031,1.0466,1.0717,1.0717,1.0717,1.0717,1.0717,1.0717,1.0717,1.0717,1.0717,1.0585,1.0114,0.9981,0.9643,0.7831,0.7365,0.7018,0.5712,0.5432,0.5304,0.4822,0.3637,0.2597,0.2109,0.0934,0.0,0.0,0.0,0.0,0.0,0.0,0.0,0.0,0.0,0.0,0.0,0.0,0.0,0.0,0.0,0.0,0.0,0.0,0.0,0.0,0.0,0.0202,0.07,0.2113,0.3061,0.3425,0.6677,0.8178,0.803,0.9842,0.9981,0.8701,0.9172,0.7165,0.3423,0.3823,0.2484,0.0,0.0,0.0,0.0,0.0,0.0,0.0,0.0,0.0,0.0,0.9883,0.9822,0.9822,0.9822,1.0181,1.0473,1.0473,1.0616,1.0812,1.1077,1.1145,1.1212,1.1348,1.1518,1.1484,1.1145,1.1023,1.1009,1.1104,1.09,1.1029,1.1592,1.1491,1.1341,1.1165,1.1234,1.1084,1.0914,1.0487,1.0344,1.0466,1.0025,0.9707,0.9503,0.9422,0.9259,0.9096,0.9605,0.9998,1.0263,1.0093,1.0202,0.0,1.0331,1.0466,1.0717,1.0717,1.0717,1.0717,1.0717,1.0717,1.0717,1.0717,1.0717,1.0717,1.0717,1.0717,1.0452,0.9437,0.9172,0.8972,0.7969,0.7741,0.7481,0.6726,0.5774,0.4847,0.4135,0.2469,0.1172,0.1234,0.0603,0.0,0.0,0.0,0.0,0.0,0.0,0.0,0.0,0.0,0.0,0.0,0.0,0.0,0.0,0.0,0.0,0.0,0.0,0.0,0.0,0.1066,0.1598,0.154,0.5052,0.6828,0.6902,0.9335,1.0064,0.9172,0.9443,0.7431,0.3957,0.4961,0.3354,0.0067,0.0874,0.074,0.0,0.0,0.0,0.0,0.0,0.0,0.0,0.9883,0.9822,0.9836,0.9876,1.0317,1.069,1.0765,1.0812,1.1009,1.1497,1.1362,1.1307,1.1538,1.1592,1.1606,1.1565,1.1077,1.1002,1.1525,1.0826,1.0765,1.1586,1.1362,1.1219,1.1219,1.1219,1.1219,1.1219,1.0629,1.0466,1.0704,1.0086,0.9646,0.9381,0.9361,0.9239,0.9026,0.9564,0.9964,1.0283,1.0283,1.0432,1.0636,1.0419,1.0493,1.0717,1.0717,1.0717,1.0717,1.0717,1.0717,1.0717,1.0717,1.0717,1.0717,1.0717,1.0717,1.0717,1.0717,1.0717,1.0717,1.0717,1.0717,1.0279,0.8698,0.8188,0.7639,0.6215,0.4414,0.313,0.3241,0.1716,0.0264,0.0063,0.0,0.0,0.0,0.0,0.0,0.0,0.0,0.0,0.0,0.0,0.0,0.0,0.0,0.0,0.0,0.0,0.0,0.0,0.0262,0.0262,0.0,0.3477,0.5313,0.5426,0.8747,1.0432,1.0651,0.9105,0.7365,0.5763,0.5763,0.3823,0.0807,0.2417,0.2016,0.0336,0.0336,0.0336,0.0336,0.0336,0.0336,0.0336,0.9883,0.9822,0.9903,1.0154,1.029,1.0521,1.1009,1.1301,1.1409,1.126,1.1416,1.1463,1.1267,1.147,1.1518,1.1267,1.1145,1.1131,1.124,1.1166,1.1192,1.1599,1.1565,1.1538,1.1538,1.1538,1.1538,1.1538,1.0934,1.067,1.0704,0.9985,0.9551,0.9374,0.9309,0.9367,0.9659,0.9517,0.9774,1.0283,1.0283,1.031,1.0378,1.0568,1.0677,1.0717,1.0717,1.0717,1.0717,1.0717,1.0717,1.0717,1.0717,1.0717,1.0717,1.0717,1.0717,1.0717,1.0717,1.0717,1.0717,1.0717,1.0717,1.0591,1.0279,0.9086,0.7961,0.7886,0.636,0.5143,0.5258,0.3679,0.1854,0.0253,0.0,0.0,0.0,0.0,0.0,0.0,0.0,0.0,0.0,0.0,0.0,0.0,0.0,0.0,0.0,0.0,0.0,0.0,0.1462,0.1524,0.0,0.4761,0.6562,0.5454,0.8705,1.0432,1.0717,1.0379,0.9238,0.7564,0.7564,0.636,0.4492,0.4827,0.389,0.2216,0.2216,0.2216,0.2216,0.2216,0.2216,0.2016,1.0086,0.993,0.9869,1.0012,1.0304,1.0602,1.0887,1.1321,1.1565,1.1416,1.1531,1.1565,1.1416,1.1531,1.1558,1.1409,1.1253,1.1226,1.1389,1.1253,1.1301,1.1606,1.1619,1.1545,1.1389,1.1538,1.1545,1.1382,1.0934,1.0717,1.0704,0.9958,0.953,0.9374,0.9364,0.9395,0.9605,0.9774,1.0019,1.0297,1.0446,1.0507,1.0521,1.0663,1.0717,1.0717,1.0717,1.0717,1.0717,1.0717,1.0717,1.0717,1.0717,1.0717,1.0717,1.0717,1.0717,1.0717,1.0717,1.0717,1.0717,1.0717,1.0717,1.0717,1.0717,1.0031,0.944,0.9638,0.8233,0.6774,0.5969,0.4185,0.2918,0.3011,0.1959,0.1224,0.1493,0.1276,0.0851,0.0117,0.0,0.0,0.0,0.0,0.0,0.0,0.0,0.0,0.0,0.0,0.0431,0.1383,0.2248,0.2757,0.2794,0.6019,0.7344,0.6753,0.9178,1.0432,1.0717,1.0717,0.9709,0.803,0.8972,0.7902,0.5429,0.5429,0.4894,0.4091,0.4091,0.4091,0.4091,0.4091,0.4091,0.3689,1.0371,1.0181,1.0032,1.0093,1.0446,1.0765,1.0894,1.126,1.1545,1.1613,1.1619,1.1619,1.1619,1.1619,1.1592,1.1531,1.1362,1.1307,1.1423,1.1321,1.1341,1.1511,1.1586,1.1504,1.1267,1.1497,1.1504,1.126,1.0962,1.0765,1.0656,0.9971,0.9557,0.9388,0.9449,0.951,0.9605,1.008,1.0317,1.0392,1.0629,1.0717,1.0717,1.0717,1.0717,1.0717,1.0717,1.0717,1.0717,1.0717,1.0717,1.0717,1.0717,1.0717,1.0717,1.0717,1.0717,1.0717,1.0717,1.0717,1.0717,1.0717,1.0717,1.0717,1.0717,1.0717,1.0765,1.0847,0.9841,0.8408,0.6725,0.5175,0.4353,0.5075,0.3855,0.2793,0.2784,0.2433,0.1769,0.0604,0.0187,0.0,0.0,0.0,0.0,0.0,0.0,0.0,0.0,0.0,0.0662,0.2055,0.2773,0.372,0.479,0.6996,0.8065,0.8033,0.9532,1.0432,1.0717,1.0717,0.9915,0.8634,1.0047,0.9111,0.6502,0.6097,0.5964,0.5964,0.5964,0.5964,0.5964,0.5964,0.5964,0.5496,1.0677,1.0656,1.0717,1.0989,1.086,1.09,1.145,1.1348,1.1307,1.1586,1.1619,1.1619,1.1619,1.1619,1.1504,1.1226,1.1436,1.1355,1.0839,1.1287,1.1463,1.1219,1.147,1.1606,1.1579,1.1606,1.1606,1.1579,1.1274,1.0914,1.05,1.0025,0.9652,0.9395,0.9659,0.9937,1.0202,1.0256,1.0432,1.0683,1.0711,1.0717,1.0717,1.0717,1.0717,1.0717,1.0717,1.0717,1.0717,1.0717,1.0717,1.0717,1.0717,1.0717,1.0717,1.0717,1.0717,1.0717,1.0717,1.0717,1.0717,1.0717,1.0717,1.0717,1.0717,1.0717,1.0765,1.0847,1.1034,1.0511,0.8585,0.8224,0.706,0.3711,0.4085,0.4222,0.2504,0.2227,0.2168,0.1985,0.0786,0.0,0.0,0.0,0.0,0.0,0.0,0.0,0.0,0.0,0.006,0.0246,0.3158,0.4128,0.2954,0.7362,0.903,0.8,0.9555,1.0432,1.0717,1.0717,1.0585,1.0452,1.0651,1.0518,1.0047,0.8435,0.7764,0.7764,0.7764,0.7764,0.7764,0.7764,0.7764,0.7498,1.0989,1.0839,1.0758,1.0873,1.0948,1.107,1.1307,1.1396,1.1484,1.1606,1.1619,1.1619,1.1619,1.1619,1.1572,1.145,1.1552,1.1518,1.1274,1.1484,1.1565,1.1443,1.1552,1.1619,1.1619,1.1619,1.1619,1.1619,1.1138,1.0758,1.048,1.0032,0.9754,0.9659,0.9958,1.0168,1.029,1.0466,1.0616,1.0717,1.0717,1.0717,1.0717,1.0717,1.0717,1.0717,1.0717,1.0717,1.0717,1.0717,1.0717,1.0717,1.0717,1.0717,1.0717,1.0717,1.0717,1.0717,1.0717,1.0717,1.0717,1.0717,1.0717,1.0717,1.0717,1.0717,1.0738,1.0799,1.0982,1.0895,1.0358,0.9344,0.8362,0.7784,0.7201,0.6571,0.5762,0.5686,0.5367,0.4477,0.3563,0.3162,0.3442,0.2199,0.1466,0.1711,0.0633,0.0,0.0,0.1059,0.1604,0.164,0.4701,0.6215,0.5888,0.8574,0.9829,0.9643,1.0267,1.0609,1.0717,1.0717,1.0717,1.0717,1.0717,1.0717,1.0651,0.9915,0.9643,0.9643,0.9643,0.9643,0.9643,0.9643,0.9643,0.951,1.1294,1.1131,1.0982,1.0982,1.1158,1.1267,1.1179,1.1423,1.1586,1.1497,1.1565,1.1619,1.1619,1.1619,1.1586,1.1491,1.1565,1.1545,1.1369,1.1518,1.1579,1.1491,1.1572,1.1619,1.1619,1.1619,1.1619,1.1619,1.1151,1.0792,1.0548,1.0148,0.9958,0.9971,1.0276,1.0412,1.0426,1.0629,1.0717,1.0717,1.0717,1.0717,1.0717,1.0717,1.0717,1.0717,1.0717,1.0717,1.0717,1.0717,1.0717,1.0717,1.0717,1.0717,1.0717,1.0717,1.0717,1.0717,1.0717,1.0717,1.0717,1.0717,1.0717,1.0717,1.0717,1.0717,1.0717,1.0717,1.0839,1.0941,1.1226,1.0162,0.9463,1.0109,0.9379,0.8584,0.8071,0.8028,0.7403,0.5752,0.4913,0.4613,0.4885,0.3397,0.2699,0.346,0.2198,0.1193,0.0625,0.1824,0.2657,0.308,0.5664,0.7345,0.7845,0.9193,1.0188,1.0717,1.0717,1.0717,1.0717,1.0717,1.0717,1.0717,1.0717,1.0717,1.0717,1.0717,1.0717,1.0717,1.0717,1.0717,1.0717,1.0717,1.0717,1.0717,1.1613,1.1613,1.1606,1.1606,1.1613,1.1511,1.1206,1.1423,1.1511,1.1206,1.143,1.1619,1.1619,1.1619,1.1497,1.1261,1.1443,1.1369,1.0772,1.1287,1.1484,1.1255,1.1457,1.1619,1.1619,1.1619,1.1619,1.1619,1.1463,1.1151,1.0711,1.0412,1.0276,1.029,1.0582,1.0717,1.0717,1.0717,1.0717,1.0717,1.0717,1.0717,1.0717,1.0717,1.0717,1.0717,1.0717,1.0717,1.0717,1.0717,1.0717,1.0717,1.0717,1.0717,1.0717,1.0717,1.0717,1.0717,1.0717,1.0717,1.0717,1.0717,1.0717,1.0717,1.0717,1.0717,1.0717,1.0717,1.0839,1.088,1.0887,1.107,1.0584,0.8812,0.9715,1.0018,0.8253,0.8028,0.7257,0.5333,0.383,0.2938,0.2947,0.2903,0.346,0.4757,0.4867,0.3986,0.2053,0.1988,0.2615,0.3948,0.551,0.6638,0.7389,0.8891,0.9985,1.0717,1.0717,1.0717,1.0717,1.0717,1.0717,1.0717,1.0717,1.0717,1.0717,1.0717,1.0717,1.0717,1.0717,1.0717,1.0717,1.0717,1.0717,1.0717,1.105,1.1335,1.1552,1.1341,1.1484,1.1586,1.1491,1.1558,1.1586,1.1491,1.1558,1.1619,1.1619,1.1619,1.1579,1.1484,1.1369,1.1314,1.1335,1.1314,1.1355,1.147,1.1369,1.1307,1.1307,1.1307,1.126,1.1096,1.1111,1.0907,1.0561,1.0371,1.0385,1.0582,1.0677,1.0717,1.0717,1.0717,1.0717,1.0717,1.0717,1.0717,1.0717,1.0717,1.0717,1.0717,1.0717,1.0717,1.0717,1.0717,1.0717,1.0717,1.0717,1.0717,1.0717,1.0717,1.0717,1.0717,1.0717,1.0717,1.0717,1.0717,1.0717,1.0717,1.0717,1.0717,1.0717,1.0717,1.0758,1.0759,1.086,1.0921,1.0779,1.0011,1.0551,1.0779,0.9958,0.9848,0.9617,0.9105,0.8392,0.8028,0.823,0.6986,0.6394,0.6723,0.552,0.4478,0.3856,0.4993,0.5467,0.5,0.7513,0.852,0.783,0.9181,1.0118,1.0717,1.0717,1.0717,1.0717,1.0717,1.0717,1.0717,1.0717,1.0717,1.0717,1.0717,1.0717,1.0717,1.0717,1.0717,1.0717,1.0717,1.0717,1.0717,1.2103,1.1846,1.1558,1.1369,1.1491,1.1579,1.1463,1.1545,1.1579,1.1463,1.1545,1.1619,1.1619,1.1619,1.1619,1.1619,1.1443,1.1416,1.1606,1.1443,1.1416,1.1613,1.1436,1.1335,1.1335,1.1335,1.126,1.1118,1.0934,1.0819,1.0575,1.0487,1.0541,1.0717,1.0717,1.0717,1.0717,1.0717,1.0717,1.0717,1.0717,1.0717,1.0717,1.0717,1.0717,1.0717,1.0717,1.0717,1.0717,1.0717,1.0717,1.0717,1.0717,1.0717,1.0717,1.0717,1.0717,1.0717,1.0717,1.0717,1.0717,1.0717,1.0717,1.0717,1.0717,1.0717,1.0717,1.0717,1.0717,1.0751,1.0779,1.0793,1.0819,1.0683,1.09,1.1036,1.0907,1.0744,1.0465,0.9958,0.9536,0.9412,0.9736,0.8688,0.8185,0.8561,0.7348,0.6575,0.671,0.697,0.7072,0.6906,0.8818,0.951,0.8756,0.9614,1.0213,1.0717,1.0717,1.0717,1.0717,1.0717,1.0717,1.0717,1.0717,1.0717,1.0717,1.0717,1.0717,1.0717,1.0717,1.0717,1.0717,1.0717,1.0717,1.0717,1.4568,1.3065,1.1828,1.1801,1.1678,1.1525,1.124,1.1436,1.1518,1.1233,1.1443,1.1619,1.1619,1.1619,1.1619,1.1619,1.1599,1.1599,1.1619,1.1599,1.1599,1.1619,1.1599,1.1586,1.1586,1.1586,1.1518,1.1375,1.1077,1.0793,1.0717,1.0717,1.0717,1.0717,1.0717,1.0717,1.0717,1.0717,1.0717,1.0717,1.0717,1.0717,1.0717,1.0717,1.0717,1.0717,1.0717,1.0717,1.0717,1.0717,1.0717,1.0717,1.0717,1.0717,1.0717,1.0717,1.0717,1.0717,1.0717,1.0717,1.0717,1.0717,1.0717,1.0717,1.0717,1.0717,1.0717,1.0717,1.0717,1.0717,1.0717,1.0717,1.0765,1.084,1.0867,1.0975,1.1084,1.0738,0.9942,0.855,0.8016,0.7957,0.841,0.8464,0.901,1.0213,0.9876,0.9761,0.997,0.8042,0.7712,0.9462,0.9476,0.9673,1.0031,1.0031,1.024,1.0717,1.0717,1.0717,1.0717,1.0717,1.0717,1.0717,1.0717,1.0717,1.0717,1.0717,1.0717,1.0717,1.0717,1.0717,1.0717,1.0717,1.0717,1.0717,1.5965,1.4733,1.3649,1.3445,1.2448,1.1592,1.1525,1.1572,1.1592,1.1518,1.1572,1.1619,1.1619,1.1619,1.1619,1.1619,1.1402,1.1369,1.1606,1.1402,1.1375,1.1606,1.1396,1.1274,1.1274,1.1274,1.1253,1.1219,1.0921,1.0758,1.0717,1.0717,1.0717,1.0717,1.0717,1.0717,1.0717,1.0717,1.0717,1.0717,1.0717,1.0717,1.0717,1.0717,1.0717,1.0717,1.0717,1.0717,1.0717,1.0717,1.0717,1.0717,1.0717,1.0717,1.0717,1.0717,1.0717,1.0717,1.0717,1.0717,1.0717,1.0717,1.0717,1.0717,1.0717,1.0717,1.0717,1.0717,1.0717,1.0717,1.0717,1.0717,1.0731,1.0765,1.0772,1.0711,1.0514,1.0399,1.0116,0.9503,0.9677,0.9813,0.9813,1.0103,1.0234,1.0078,0.9943,0.9916,0.9984,0.9544,0.963,1.0392,1.0405,1.0453,1.0561,1.0561,1.0616,1.0717,1.0717,1.0717,1.0717,1.0717,1.0717,1.0717,1.0717,1.0717,1.0717,1.0717,1.0717,1.0717,1.0717,1.0717,1.0717,1.0717,1.0717,1.0717,1.8128,1.6776,1.5352,1.4379,1.3467,1.261,1.1763,1.1619,1.1619,1.1619,1.1619,1.1619,1.1619,1.1619,1.1619,1.1619,1.1463,1.1443,1.1606,1.1463,1.1443,1.1613,1.1457,1.1369,1.1369,1.1369,1.1301,1.1234,1.0867,1.0717,1.0717,1.0717,1.0717,1.0717,1.0717,1.0717,1.0717,1.0717,1.0717,1.0717,1.0717,1.0717,1.0717,1.0717,1.0717,1.0717,1.0717,1.0717,1.0717,1.0717,1.0717,1.0717,1.0717,1.0717,1.0717,1.0717,1.0717,1.0717,1.0717,1.0717,1.0717,1.0717,1.0717,1.0717,1.0717,1.0717,1.0717,1.0717,1.0717,1.0717,1.0717,1.0717,1.0717,1.0717,1.0548,1.0358,1.0195,0.9998,0.9883,0.9924,1.0141,1.0337,1.0466,1.0704,1.0644,1.0314,1.0168,1.0141,1.028,1.0161,1.0256,1.0704,1.0717,1.0717,1.0717,1.0717,1.0717,1.0717,1.0717,1.0717,1.0717,1.0717,1.0717,1.0717,1.0717,1.0717,1.0717,1.0717,1.0717,1.0717,1.0717,1.0717,1.0717,1.0717,1.0717,1.0717,2.0548,1.9008,1.7107,1.5557,1.4778,1.3872,1.2252,1.1763,1.1619,1.1619,1.1619,1.1619,1.1619,1.1619,1.1619,1.1619,1.1619,1.1619,1.1619,1.1619,1.1619,1.1619,1.1619,1.1619,1.1619,1.1599,1.1457,1.1199,1.0921,1.0778,1.0758,1.0758,1.0744,1.0717,1.0717,1.0717,1.0717,1.0717,1.0717,1.0717,1.0717,1.0717,1.0717,1.0717,1.0717,1.0717,1.0717,1.0717,1.0717,1.0717,1.0717,1.0717,1.0717,1.0717,1.0717,1.0717,1.0717,1.0717,1.0717,1.0717,1.0717,1.0717,1.0717,1.0717,1.0717,1.0717,1.0717,1.0717,1.0717,1.0717,1.0717,1.0717,1.0697,1.0629,1.0317,1.0059,0.993,0.9734,0.9693,1.0135,1.0244,1.0371,1.0751,1.0785,1.0778,1.0758,1.0399,1.0344,1.0704,1.0294,1.026,1.0711,1.0717,1.0717,1.0717,1.0717,1.0717,1.0717,1.0717,1.0717,1.0717,1.0717,1.0717,1.0717,1.0717,1.0717,1.0717,1.0717,1.0717,1.0717,1.0717,1.0717,1.0717,1.0717,1.0717,1.0717,2.2435,2.0963,1.9565,1.9286,1.6545,1.429,1.4006,1.2602,1.1619,1.1619,1.1619,1.1619,1.1619,1.1619,1.1619,1.1619,1.1619,1.1619,1.1619,1.1619,1.1619,1.1619,1.1619,1.1619,1.1619,1.1491,1.1402,1.1355,1.1179,1.1029,1.0847,1.0847,1.0779,1.0717,1.0717,1.0717,1.0717,1.0717,1.0717,1.0717,1.0717,1.0717,1.0717,1.0717,1.0717,1.0717,1.0717,1.0717,1.0717,1.0717,1.0717,1.0717,1.0717,1.0717,1.0717,1.0717,1.0717,1.0717,1.0717,1.0717,1.0717,1.0717,1.0717,1.0717,1.0717,1.0717,1.0717,1.0717,1.0717,1.0717,1.0717,1.0717,1.0595,1.0152,1.0209,1.0114,0.9734,1.0046,1.0344,1.0412,1.0758,1.1016,1.1084,1.109,1.1043,1.0853,1.0779,1.0785,1.0724,1.0656,1.0649,1.0717,1.0717,1.0717,1.0717,1.0717,1.0717,1.0717,1.0717,1.0717,1.0717,1.0717,1.0717,1.0717,1.0717,1.0717,1.0717,1.0717,1.0717,1.0717,1.0717,1.0717,1.0717,1.0717,1.0717,1.0717,2.2928,2.2229,2.1321,2.0271,1.8648,1.7107,1.6051,1.4298,1.3095,1.3095,1.2252,1.1619,1.1619,1.1619,1.1619,1.1619,1.1619,1.1619,1.1619,1.1619,1.1619,1.1619,1.1619,1.1619,1.1619,1.147,1.1389,1.1389,1.124,1.1131,1.1063,1.1063,1.0982,1.0846,1.0846,1.0799,1.0717,1.0717,1.0717,1.0717,1.0717,1.0717,1.0717,1.0717,1.0717,1.0717,1.0717,1.0717,1.0717,1.0717,1.0717,1.0717,1.0717,1.0717,1.0717,1.0717,1.0717,1.0717,1.0717,1.0717,1.0717,1.0717,1.0717,1.0717,1.0717,1.0717,1.0717,1.0717,1.0785,1.0846,1.0846,1.0907,1.0887,1.0683,1.0507,1.0324,1.0114,1.0317,1.0493,1.0493,1.0887,1.1234,1.1234,1.1234,1.1138,1.107,1.1063,1.1029,1.0962,1.0962,1.0921,1.0779,1.0765,1.0717,1.0717,1.0717,1.0717,1.0717,1.0717,1.0717,1.0717,1.0717,1.0717,1.0717,1.0717,1.0717,1.0717,1.0717,1.0717,1.0717,1.0717,1.0717,1.0717,1.0717,1.0717,1.0717,2.2928,2.2928,2.2435,2.0963,2.0409,1.9565,1.8089,1.6263,1.507,1.507,1.3452,1.2252,1.2252,1.1828,1.1619,1.1619,1.1619,1.1619,1.1619,1.1619,1.1619,1.1619,1.1619,1.1619,1.1619,1.1504,1.1443,1.1443,1.1328,1.1253,1.1212,1.1212,1.1138,1.0995,1.0995,1.0934,1.0819,1.0785,1.0772,1.0772,1.0731,1.0717,1.0717,1.0717,1.0717,1.0717,1.0717,1.0717,1.0717,1.0717,1.0717,1.0717,1.0717,1.0717,1.0717,1.0717,1.0717,1.0717,1.0717,1.0717,1.0717,1.0717,1.0717,1.0731,1.0765,1.0772,1.0785,1.0819,1.0914,1.0995,1.0995,1.109,1.1131,1.1091,1.0744,1.0548,1.0548,1.0575,1.0636,1.0744,1.1056,1.1267,1.1267,1.1267,1.1253,1.1219,1.1212,1.1199,1.1234,1.1234,1.1111,1.1002,1.0819,1.0717,1.0717,1.0717,1.0717,1.0717,1.0717,1.0717,1.0717,1.0717,1.0717,1.0717,1.0717,1.0717,1.0717,1.0717,1.0717,1.0717,1.0717,1.0717,1.0717,1.0717,1.0744,1.0772,2.2928,2.2928,2.2859,2.2722,2.1252,2.0051,1.9912,1.8229,1.6967,1.6967,1.5345,1.4219,1.4219,1.2602,1.1619,1.1619,1.1619,1.1619,1.1619,1.1619,1.1619,1.1619,1.1619,1.1619,1.1619,1.1606,1.1599,1.1599,1.1592,1.1511,1.1375,1.1375,1.1294,1.1145,1.1145,1.1138,1.1124,1.0989,1.086,1.0853,1.0778,1.0717,1.0717,1.0717,1.0717,1.0717,1.0717,1.0717,1.0717,1.0717,1.0717,1.0717,1.0717,1.0717,1.0717,1.0717,1.0717,1.0717,1.0717,1.0717,1.0717,1.0717,1.0717,1.0758,1.0833,1.086,1.0968,1.1104,1.1138,1.1145,1.1145,1.1158,1.1029,1.0609,1.0629,1.0704,1.0704,1.0759,1.1002,1.1484,1.1565,1.1586,1.1586,1.1586,1.1525,1.1382,1.1375,1.1314,1.1241,1.1234,1.1158,1.1145,1.0867,1.0717,1.0717,1.0717,1.0717,1.0717,1.0717,1.0717,1.0717,1.0717,1.0717,1.0717,1.0717,1.0717,1.0717,1.0717,1.0717,1.0717,1.0717,1.0717,1.0717,1.0717,1.0812,1.086,2.2928,2.2928,2.2928,2.2928,2.2297,2.1803,2.1803,2.019,1.9008,1.9008,1.6333,1.4432,1.4432,1.2745,1.1619,1.1619,1.1619,1.1619,1.1619,1.1619,1.1619,1.1619,1.1619,1.1619,1.1619,1.1619,1.1619,1.1619,1.1619,1.1592,1.1531,1.1531,1.145,1.1307,1.1307,1.1253,1.1158,1.1104,1.1084,1.1077,1.1016,1.0995,1.0995,1.0995,1.0995,1.0995,1.0995,1.0995,1.0995,1.0995,1.0995,1.0995,1.0995,1.0995,1.0995,1.0995,1.0995,1.0995,1.0995,1.0928,1.0887,1.0975,1.0995,1.1009,1.107,1.1084,1.1097,1.1151,1.124,1.1307,1.1307,1.1382,1.1389,1.1219,1.124,1.128,1.128,1.1328,1.143,1.1599,1.1619,1.1619,1.1619,1.1619,1.1592,1.1538,1.1531,1.1504,1.145,1.1355,1.1307,1.1307,1.1104,1.0995,1.0995,1.0995,1.0995,1.0995,1.0995,1.0948,1.0793,1.0793,1.0793,1.0793,1.0793,1.0914,1.0995,1.0995,1.0995,1.0995,1.0995,1.0995,1.0995,1.0995,1.1029,1.1084,2.2928,2.2928,2.2928,2.2928,2.2928,2.2928,2.2928,2.1803,2.0963,2.0963,1.7658,1.5274,1.5274,1.3103,1.1619,1.1619,1.1619,1.1619,1.1619,1.1619,1.1619,1.1619,1.1619,1.1619,1.1619,1.1619,1.1619,1.1619,1.1619,1.1619,1.1619,1.1619,1.1565,1.1463,1.1463,1.1402,1.1301,1.1253,1.1233,1.1226,1.1255,1.1234,1.1234,1.1234,1.1234,1.1234,1.1234,1.1234,1.1234,1.1234,1.1234,1.1234,1.1234,1.1234,1.1234,1.1234,1.1234,1.1241,1.1219,1.1165,1.1097,1.1151,1.1234,1.1241,1.1226,1.1233,1.1246,1.1294,1.1389,1.1463,1.1463,1.1552,1.1619,1.1619,1.1619,1.1619,1.1619,1.1619,1.1619,1.1619,1.1619,1.1619,1.1619,1.1619,1.1619,1.1619,1.1619,1.1619,1.1619,1.1518,1.1463,1.1463,1.1362,1.1307,1.1307,1.1212,1.1234,1.1234,1.1234,1.1111,1.1016,1.1016,1.1016,1.1016,1.1016,1.107,1.1234,1.1234,1.1234,1.1234,1.1234,1.1234,1.1234,1.1234,1.1261,1.1233,2.2928,2.2928,2.2928,2.2928,2.2928,2.2928,2.2928,2.2928,2.2859,2.2859,1.9565,1.7178,1.7188,1.3808,1.1619,1.1619,1.1619,1.1619,1.1619,1.1619,1.1619,1.1619,1.1619,1.1619,1.1619,1.1619,1.1619,1.1619,1.1619,1.1619,1.1619,1.1619,1.1619,1.1619,1.1619,1.1619,1.1606,1.1457,1.1396,1.1382,1.1226,1.1165,1.1165,1.1165,1.1165,1.1165,1.1165,1.1165,1.1165,1.1165,1.1165,1.1165,1.1165,1.1165,1.1165,1.1165,1.1165,1.1199,1.1355,1.1396,1.1355,1.1275,1.1165,1.1206,1.1355,1.1396,1.1436,1.1586,1.1619,1.1619,1.1619,1.1619,1.1619,1.1619,1.1619,1.1619,1.1619,1.1619,1.1619,1.1619,1.1619,1.1619,1.1619,1.1619,1.1619,1.1619,1.1619,1.1619,1.1619,1.1619,1.1619,1.1619,1.1619,1.1619,1.1619,1.1314,1.1165,1.1165,1.1165,1.1165,1.1234,1.1234,1.1234,1.1234,1.1234,1.1234,1.1165,1.1165,1.1165,1.1165,1.1165,1.1165,1.1165,1.1165,1.126,1.1396,2.2928,2.2928,2.2928,2.2928,2.2928,2.2928,2.2928,2.2928,2.2448,2.1101,1.8729,1.6685,1.5345,1.3031,1.1619,1.1619,1.1619,1.1619,1.1619,1.1619,1.1619,1.1619,1.1619,1.1619,1.1619,1.1619,1.1619,1.1619,1.1619,1.1619,1.1619,1.1619,1.1619,1.1619,1.1619,1.1619,1.1613,1.1572,1.1552,1.1545,1.1504,1.1484,1.1484,1.1484,1.1484,1.1484,1.1484,1.1484,1.1484,1.1484,1.1484,1.1484,1.1484,1.1484,1.1484,1.1484,1.1484,1.1491,1.1538,1.1552,1.1538,1.1497,1.1484,1.1497,1.1538,1.1552,1.1565,1.1613,1.1619,1.1619,1.1619,1.1619,1.1619,1.1619,1.1619,1.1619,1.1619,1.1619,1.1619,1.1619,1.1619,1.1619,1.1619,1.1619,1.1619,1.1619,1.1619,1.1619,1.1619,1.1619,1.1619,1.1619,1.1619,1.1619,1.1619,1.1531,1.1484,1.1484,1.1484,1.1423,1.1321,1.1321,1.1321,1.1321,1.1321,1.1382,1.1484,1.1484,1.1484,1.1484,1.1484,1.1484,1.1484,1.1484,1.1511,1.1552,2.2928,2.2928,2.2928,2.2928,2.2928,2.2928,2.2928,2.2928,2.2229,2.034,1.8449,1.6474,1.4574,1.2745,1.1619,1.1619,1.1619,1.1619,1.1619,1.1619,1.1619,1.1619,1.1619,1.1619,1.1619,1.1619,1.1619,1.1619,1.1619,1.1619,1.1619,1.1619,1.1619,1.1619,1.1619,1.1619,1.1619,1.1619,1.1619,1.1619,1.1619,1.1619,1.1619,1.1619,1.1619,1.1619,1.1619,1.1619,1.1619,1.1619,1.1619,1.1619,1.1619,1.1619,1.1619,1.1619,1.1619,1.1619,1.1619,1.1619,1.1619,1.1619,1.1619,1.1619,1.1619,1.1619,1.1619,1.1619,1.1619,1.1619,1.1619,1.1619,1.1619,1.1619,1.1619,1.1619,1.1619,1.1619,1.1619,1.1619,1.1619,1.1619,1.1619,1.1619,1.1619,1.1619,1.1619,1.1619,1.1619,1.1619,1.1619,1.1619,1.1619,1.1619,1.1619,1.1619,1.1619,1.1619,1.1619,1.1572,1.1484,1.1484,1.1484,1.1484,1.1484,1.1531,1.1619,1.1619,1.1619,1.1619,1.1619,1.1619,1.1619,1.1619,1.1619,1.1619,2.2928,2.2928,2.2928,2.2928,2.2928,2.2928,2.2928,2.2928,2.2229,2.034,1.8589,1.6685,1.4645,1.2888,1.1763,1.1619,1.1619,1.1619,1.1619,1.1619,1.1619,1.1619,1.1619,1.1619,1.1619,1.1619,1.1619,1.1619,1.1619,1.1619,1.1619,1.1619,1.1619,1.1619,1.1619,1.1619,1.1619,1.1619,1.1619,1.1619,1.1619,1.1619,1.1619,1.1619,1.1619,1.1619,1.1619,1.1619,1.1619,1.1619,1.1619,1.1619,1.1619,1.1619,1.1619,1.1619,1.1619,1.1619,1.1619,1.1619,1.1619,1.1619,1.1619,1.1619,1.1619,1.1619,1.1619,1.1619,1.1619,1.1619,1.1619,1.1619,1.1619,1.1619,1.1619,1.1619,1.1619,1.1619,1.1619,1.1619,1.1619,1.1619,1.1619,1.1619,1.1619,1.1619,1.1619,1.1619,1.1619,1.1619,1.1619,1.1619,1.1619,1.1619,1.1619,1.1619,1.1619,1.1619,1.1619,1.1619,1.1619,1.1619,1.1619,1.1619,1.1619,1.1619,1.1619,1.1619,1.1619,1.1619,1.1619,1.1619,1.1619,1.1619,1.1619,1.1619,2.2928,2.2928,2.2928,2.2928,2.2928,2.2928,2.2928,2.2928,2.2229,2.034,1.9704,1.8159,1.4778,1.4006,1.3167,1.1763,1.1619,1.1619,1.1619,1.1619,1.1619,1.1619,1.1619,1.1619,1.1619,1.1619,1.1619,1.1619,1.1619,1.1619,1.1619,1.1619,1.1619,1.1619,1.1619,1.1619,1.1619,1.1619,1.1619,1.1619,1.1619,1.1619,1.1619,1.1619,1.1619,1.1619,1.1619,1.1619,1.1619,1.1619,1.1619,1.1619,1.1619,1.1619,1.1619,1.1619,1.1619,1.1619,1.1619,1.1619,1.1619,1.1619,1.1619,1.1619,1.1619,1.1619,1.1619,1.1619,1.1619,1.1619,1.1619,1.1619,1.1619,1.1619,1.1619,1.1619,1.1619,1.1619,1.1619,1.1619,1.1619,1.1619,1.1619,1.1619,1.1619,1.1619,1.1619,1.1619,1.1619,1.1619,1.1619,1.1619,1.1619,1.1619,1.1619,1.1619,1.1619,1.1619,1.1619,1.1619,1.1619,1.1619,1.1619,1.1619,1.1619,1.1619,1.1619,1.1619,1.1619,1.1619,1.1619,1.1619,1.1619,1.1619,1.1619,1.1619,2.2928,2.2928,2.2928,2.2928,2.2928,2.2928,2.2928,2.2928,2.2229,2.034,2.0132,1.9041,1.6264,1.5988,1.5247,1.3405,1.3268,1.2838,1.1903,1.183,1.183,1.183,1.183,1.183,1.183,1.183,1.1762,1.1619,1.1619,1.1619,1.1619,1.1619,1.1619,1.1619,1.1619,1.1619,1.1619,1.1619,1.1619,1.1619,1.1619,1.1619,1.1619,1.1619,1.1619,1.1619,1.1619,1.1619,1.1619,1.1619,1.1619,1.1619,1.1619,1.1619,1.1619,1.1619,1.1619,1.1619,1.1619,1.1619,1.1619,1.1619,1.1619,1.1619,1.1619,1.1619,1.1619,1.1619,1.1619,1.1619,1.1619,1.1619,1.1619,1.1619,1.1619,1.1619,1.1619,1.1619,1.1619,1.1619,1.1619,1.1619,1.1619,1.1619,1.1619,1.1619,1.1619,1.1619,1.1619,1.1619,1.1619,1.1619,1.1619,1.1619,1.1619,1.1619,1.1619,1.1619,1.1619,1.1619,1.1619,1.1619,1.1619,1.1619,1.1619,1.1619,1.1619,1.1619,1.1619,1.1619,1.1619,1.1619,1.1619,1.1619,1.1619,1.1619,2.2928,2.2928,2.2928,2.2928,2.2968,2.2939,2.2939,2.2979,2.2523,2.0971,2.0762,2.0134,1.841,1.7929,1.7208,1.5709,1.558,1.4777,1.2724,1.2575,1.2426,1.2135,1.2135,1.2135,1.2135,1.2135,1.1938,1.1694,1.1694,1.1694,1.1694,1.1694,1.1681,1.1653,1.1653,1.164,1.1619,1.1619,1.1619,1.1619,1.1619,1.1619,1.1619,1.1619,1.1619,1.1619,1.1619,1.1619,1.1619,1.1619,1.1619,1.1619,1.1619,1.1619,1.1619,1.1619,1.1619,1.1619,1.1619,1.1619,1.1619,1.1619,1.1619,1.1619,1.1619,1.1619,1.1619,1.1619,1.1619,1.1619,1.1619,1.1619,1.1619,1.1619,1.1619,1.1619,1.1619,1.1619,1.1619,1.1619,1.1619,1.1619,1.1619,1.1619,1.1619,1.1619,1.1619,1.1619,1.1619,1.1619,1.1619,1.1619,1.1619,1.1619,1.1619,1.1619,1.1619,1.1619,1.1619,1.1619,1.1619,1.1619,1.1619,1.1619,1.1619,1.1619,1.1619,1.1619,1.1619,1.1619,1.1619,1.1619,1.1619,1.1619,1.1619,1.1619,2.2928,2.2928,2.2928,2.2928,2.3086,2.326,2.326,2.3487,2.3577,2.3351,2.328,2.2568,2.0696,1.9025,1.7958,1.7686,1.7696,1.6819,1.4843,1.4703,1.3897,1.221,1.2135,1.2135,1.2135,1.2135,1.2115,1.1999,1.1999,1.1999,1.1999,1.1999,1.1932,1.1803,1.1803,1.1735,1.1619,1.1619,1.1619,1.1619,1.1619,1.1619,1.1619,1.1619,1.1619,1.1619,1.1619,1.1619,1.1619,1.1619,1.1619,1.1619,1.1619,1.1619,1.1619,1.1619,1.1619,1.1619,1.1619,1.1619,1.1619,1.1619,1.1619,1.1619,1.1619,1.1619,1.1619,1.1619,1.1619,1.1619,1.1619,1.1619,1.1619,1.1619,1.1619,1.1619,1.1619,1.1619,1.1619,1.1619,1.1619,1.1619,1.1619,1.1619,1.1619,1.1619,1.1619,1.1619,1.1619,1.1619,1.1619,1.1619,1.1619,1.1619,1.1619,1.1619,1.1619,1.1619,1.1619,1.1619,1.1619,1.1619,1.1619,1.1619,1.1619,1.1619,1.1619,1.1619,1.1619,1.1619,1.1619,1.1619,1.1619,1.1619,1.1619,1.1619,2.334,2.3367,2.3367,2.3367,2.3487,2.3581,2.3581,2.3688,2.3768,2.3768,2.3768,2.3535,2.2802,2.2141,2.1261,2.0144,2.007,1.917,1.716,1.7086,1.6121,1.4104,1.4028,1.3506,1.2381,1.2311,1.2311,1.2311,1.2142,1.2135,1.2135,1.2135,1.2026,1.1959,1.1959,1.1925,1.187,1.187,1.187,1.187,1.187,1.1816,1.1735,1.1735,1.1687,1.1619,1.1619,1.1619,1.1619,1.1619,1.1619,1.1619,1.1619,1.1619,1.1619,1.1619,1.1619,1.1619,1.1619,1.1619,1.1619,1.1619,1.1619,1.1619,1.1619,1.1619,1.1619,1.1619,1.1619,1.1619,1.1619,1.1619,1.1619,1.1619,1.1619,1.1619,1.1619,1.1619,1.1619,1.1619,1.1619,1.1619,1.1619,1.1619,1.1619,1.1619,1.1619,1.1619,1.1619,1.1619,1.1619,1.1619,1.1619,1.1619,1.1619,1.1619,1.1619,1.1619,1.1619,1.1619,1.1619,1.1619,1.1619,1.1619,1.1619,1.1619,1.1619,1.1619,1.1619,1.1619,1.1619,1.1619,1.1619,1.1619,1.1619,1.1619]}]]